<?xml version="1.0" encoding="UTF-8" standalone="no" ?>
<gpx xmlns="http://www.topografix.com/GPX/1/1" xmlns:xsi="http://www.w3.org/2001/XMLSchema-instance" xsi:schemaLocation="http://www.topografix.com/GPX/1/1 http://www.topografix.com/GPX/1/1/gpx.xsd" version="1.1" creator="VisuGPX - https://www.visugpx.com">
  <metadata>
    <name>Rando Cyclo Rochoise 100 km</name>
  </metadata>
  <trk>
    <name><![CDATA[Rando Cyclo Rochoise 100 km-7430627]]></name>
    <trkseg>
      <trkpt lat="46.06756" lon="6.31104">
        <ele>554</ele>
        <time>2024-07-23T15:03:08Z</time>
      </trkpt>
      <trkpt lat="46.0673" lon="6.31196">
        <ele>553</ele>
        <time>2024-07-23T15:03:20Z</time>
      </trkpt>
      <trkpt lat="46.06718" lon="6.31214">
        <ele>553</ele>
        <time>2024-07-23T15:03:23Z</time>
      </trkpt>
      <trkpt lat="46.06696" lon="6.31182">
        <ele>554</ele>
        <time>2024-07-23T15:03:29Z</time>
      </trkpt>
      <trkpt lat="46.06668" lon="6.3115">
        <ele>555</ele>
        <time>2024-07-23T15:03:35Z</time>
      </trkpt>
      <trkpt lat="46.06595" lon="6.31095">
        <ele>556</ele>
        <time>2024-07-23T15:03:50Z</time>
      </trkpt>
      <trkpt lat="46.06565" lon="6.31088">
        <ele>556</ele>
        <time>2024-07-23T15:03:55Z</time>
      </trkpt>
      <trkpt lat="46.06475" lon="6.31084">
        <ele>555</ele>
        <time>2024-07-23T15:04:11Z</time>
      </trkpt>
      <trkpt lat="46.06472" lon="6.31076">
        <ele>556</ele>
        <time>2024-07-23T15:04:12Z</time>
      </trkpt>
      <trkpt lat="46.06466" lon="6.31072">
        <ele>556</ele>
        <time>2024-07-23T15:04:14Z</time>
      </trkpt>
      <trkpt lat="46.06458" lon="6.31076">
        <ele>556</ele>
        <time>2024-07-23T15:04:15Z</time>
      </trkpt>
      <trkpt lat="46.06456" lon="6.31085">
        <ele>556</ele>
        <time>2024-07-23T15:04:16Z</time>
      </trkpt>
      <trkpt lat="46.06459" lon="6.31095">
        <ele>555</ele>
        <time>2024-07-23T15:04:18Z</time>
      </trkpt>
      <trkpt lat="46.06462" lon="6.31096">
        <ele>555</ele>
        <time>2024-07-23T15:04:18Z</time>
      </trkpt>
      <trkpt lat="46.06423" lon="6.31198">
        <ele>550</ele>
        <time>2024-07-23T15:04:33Z</time>
      </trkpt>
      <trkpt lat="46.06401" lon="6.3128">
        <ele>548</ele>
        <time>2024-07-23T15:04:43Z</time>
      </trkpt>
      <trkpt lat="46.06359" lon="6.31458">
        <ele>549</ele>
        <time>2024-07-23T15:05:07Z</time>
      </trkpt>
      <trkpt lat="46.06267" lon="6.31602">
        <ele>551</ele>
        <time>2024-07-23T15:05:31Z</time>
      </trkpt>
      <trkpt lat="46.06258" lon="6.31612">
        <ele>551</ele>
        <time>2024-07-23T15:05:33Z</time>
      </trkpt>
      <trkpt lat="46.0625" lon="6.31617">
        <ele>551</ele>
        <time>2024-07-23T15:05:34Z</time>
      </trkpt>
      <trkpt lat="46.06204" lon="6.3164">
        <ele>552</ele>
        <time>2024-07-23T15:05:43Z</time>
      </trkpt>
      <trkpt lat="46.06191" lon="6.31642">
        <ele>552</ele>
        <time>2024-07-23T15:05:45Z</time>
      </trkpt>
      <trkpt lat="46.06179" lon="6.3164">
        <ele>552</ele>
        <time>2024-07-23T15:05:48Z</time>
      </trkpt>
      <trkpt lat="46.0617" lon="6.31635">
        <ele>553</ele>
        <time>2024-07-23T15:05:49Z</time>
      </trkpt>
      <trkpt lat="46.06124" lon="6.31603">
        <ele>555</ele>
        <time>2024-07-23T15:05:58Z</time>
      </trkpt>
      <trkpt lat="46.06077" lon="6.31566">
        <ele>556</ele>
        <time>2024-07-23T15:06:08Z</time>
      </trkpt>
      <trkpt lat="46.06065" lon="6.31565">
        <ele>557</ele>
        <time>2024-07-23T15:06:10Z</time>
      </trkpt>
      <trkpt lat="46.06054" lon="6.31571">
        <ele>558</ele>
        <time>2024-07-23T15:06:12Z</time>
      </trkpt>
      <trkpt lat="46.06038" lon="6.31595">
        <ele>559</ele>
        <time>2024-07-23T15:06:16Z</time>
      </trkpt>
      <trkpt lat="46.06033" lon="6.31612">
        <ele>560</ele>
        <time>2024-07-23T15:06:18Z</time>
      </trkpt>
      <trkpt lat="46.06034" lon="6.31635">
        <ele>561</ele>
        <time>2024-07-23T15:06:21Z</time>
      </trkpt>
      <trkpt lat="46.06081" lon="6.31738">
        <ele>562</ele>
        <time>2024-07-23T15:06:37Z</time>
      </trkpt>
      <trkpt lat="46.06086" lon="6.31756">
        <ele>562</ele>
        <time>2024-07-23T15:06:39Z</time>
      </trkpt>
      <trkpt lat="46.06082" lon="6.31788">
        <ele>561</ele>
        <time>2024-07-23T15:06:43Z</time>
      </trkpt>
      <trkpt lat="46.06074" lon="6.31801">
        <ele>562</ele>
        <time>2024-07-23T15:06:45Z</time>
      </trkpt>
      <trkpt lat="46.06062" lon="6.3181">
        <ele>562</ele>
        <time>2024-07-23T15:06:48Z</time>
      </trkpt>
      <trkpt lat="46.05999" lon="6.31832">
        <ele>567</ele>
        <time>2024-07-23T15:06:59Z</time>
      </trkpt>
      <trkpt lat="46.05935" lon="6.3185">
        <ele>575</ele>
        <time>2024-07-23T15:07:11Z</time>
      </trkpt>
      <trkpt lat="46.05926" lon="6.31856">
        <ele>576</ele>
        <time>2024-07-23T15:07:12Z</time>
      </trkpt>
      <trkpt lat="46.05917" lon="6.31869">
        <ele>577</ele>
        <time>2024-07-23T15:07:15Z</time>
      </trkpt>
      <trkpt lat="46.0589" lon="6.31934">
        <ele>577</ele>
        <time>2024-07-23T15:07:24Z</time>
      </trkpt>
      <trkpt lat="46.05867" lon="6.32005">
        <ele>580</ele>
        <time>2024-07-23T15:07:34Z</time>
      </trkpt>
      <trkpt lat="46.05861" lon="6.32015">
        <ele>581</ele>
        <time>2024-07-23T15:07:35Z</time>
      </trkpt>
      <trkpt lat="46.05848" lon="6.32027">
        <ele>584</ele>
        <time>2024-07-23T15:07:38Z</time>
      </trkpt>
      <trkpt lat="46.05822" lon="6.32037">
        <ele>586</ele>
        <time>2024-07-23T15:07:43Z</time>
      </trkpt>
      <trkpt lat="46.05763" lon="6.32069">
        <ele>589</ele>
        <time>2024-07-23T15:07:54Z</time>
      </trkpt>
      <trkpt lat="46.05729" lon="6.32097">
        <ele>592</ele>
        <time>2024-07-23T15:08:01Z</time>
      </trkpt>
      <trkpt lat="46.057" lon="6.32133">
        <ele>593</ele>
        <time>2024-07-23T15:08:08Z</time>
      </trkpt>
      <trkpt lat="46.05619" lon="6.32294">
        <ele>594</ele>
        <time>2024-07-23T15:08:32Z</time>
      </trkpt>
      <trkpt lat="46.05554" lon="6.32459">
        <ele>597</ele>
        <time>2024-07-23T15:08:56Z</time>
      </trkpt>
      <trkpt lat="46.05369" lon="6.32811">
        <ele>604</ele>
        <time>2024-07-23T15:09:50Z</time>
      </trkpt>
      <trkpt lat="46.05313" lon="6.32927">
        <ele>611</ele>
        <time>2024-07-23T15:10:08Z</time>
      </trkpt>
      <trkpt lat="46.05299" lon="6.3295">
        <ele>612</ele>
        <time>2024-07-23T15:10:12Z</time>
      </trkpt>
      <trkpt lat="46.0528" lon="6.32972">
        <ele>614</ele>
        <time>2024-07-23T15:10:16Z</time>
      </trkpt>
      <trkpt lat="46.05246" lon="6.32993">
        <ele>617</ele>
        <time>2024-07-23T15:10:23Z</time>
      </trkpt>
      <trkpt lat="46.05198" lon="6.33044">
        <ele>619</ele>
        <time>2024-07-23T15:10:33Z</time>
      </trkpt>
      <trkpt lat="46.05164" lon="6.33152">
        <ele>623</ele>
        <time>2024-07-23T15:10:48Z</time>
      </trkpt>
      <trkpt lat="46.05108" lon="6.33317">
        <ele>623</ele>
        <time>2024-07-23T15:11:10Z</time>
      </trkpt>
      <trkpt lat="46.05091" lon="6.3335">
        <ele>623</ele>
        <time>2024-07-23T15:11:16Z</time>
      </trkpt>
      <trkpt lat="46.04966" lon="6.33502">
        <ele>630</ele>
        <time>2024-07-23T15:11:45Z</time>
      </trkpt>
      <trkpt lat="46.04957" lon="6.33517">
        <ele>630</ele>
        <time>2024-07-23T15:11:47Z</time>
      </trkpt>
      <trkpt lat="46.04948" lon="6.33547">
        <ele>630</ele>
        <time>2024-07-23T15:11:51Z</time>
      </trkpt>
      <trkpt lat="46.04936" lon="6.3364">
        <ele>630</ele>
        <time>2024-07-23T15:12:03Z</time>
      </trkpt>
      <trkpt lat="46.04928" lon="6.33777">
        <ele>632</ele>
        <time>2024-07-23T15:12:20Z</time>
      </trkpt>
      <trkpt lat="46.04926" lon="6.33895">
        <ele>635</ele>
        <time>2024-07-23T15:12:34Z</time>
      </trkpt>
      <trkpt lat="46.04922" lon="6.33935">
        <ele>636</ele>
        <time>2024-07-23T15:12:39Z</time>
      </trkpt>
      <trkpt lat="46.04904" lon="6.34038">
        <ele>643</ele>
        <time>2024-07-23T15:12:52Z</time>
      </trkpt>
      <trkpt lat="46.04889" lon="6.34097">
        <ele>647</ele>
        <time>2024-07-23T15:13:00Z</time>
      </trkpt>
      <trkpt lat="46.04877" lon="6.34167">
        <ele>648</ele>
        <time>2024-07-23T15:13:09Z</time>
      </trkpt>
      <trkpt lat="46.04867" lon="6.34269">
        <ele>650</ele>
        <time>2024-07-23T15:13:22Z</time>
      </trkpt>
      <trkpt lat="46.04866" lon="6.34303">
        <ele>653</ele>
        <time>2024-07-23T15:13:26Z</time>
      </trkpt>
      <trkpt lat="46.04866" lon="6.34287">
        <ele>652</ele>
        <time>2024-07-23T15:13:28Z</time>
      </trkpt>
      <trkpt lat="46.04858" lon="6.3433">
        <ele>655</ele>
        <time>2024-07-23T15:13:34Z</time>
      </trkpt>
      <trkpt lat="46.04854" lon="6.34339">
        <ele>656</ele>
        <time>2024-07-23T15:13:35Z</time>
      </trkpt>
      <trkpt lat="46.04834" lon="6.34354">
        <ele>657</ele>
        <time>2024-07-23T15:13:39Z</time>
      </trkpt>
      <trkpt lat="46.04779" lon="6.3436">
        <ele>662</ele>
        <time>2024-07-23T15:13:49Z</time>
      </trkpt>
      <trkpt lat="46.0476" lon="6.34359">
        <ele>664</ele>
        <time>2024-07-23T15:13:52Z</time>
      </trkpt>
      <trkpt lat="46.0473" lon="6.34348">
        <ele>667</ele>
        <time>2024-07-23T15:13:58Z</time>
      </trkpt>
      <trkpt lat="46.04717" lon="6.34349">
        <ele>668</ele>
        <time>2024-07-23T15:14:00Z</time>
      </trkpt>
      <trkpt lat="46.04683" lon="6.34345">
        <ele>671</ele>
        <time>2024-07-23T15:14:06Z</time>
      </trkpt>
      <trkpt lat="46.04676" lon="6.34417">
        <ele>673</ele>
        <time>2024-07-23T15:14:15Z</time>
      </trkpt>
      <trkpt lat="46.04664" lon="6.34481">
        <ele>676</ele>
        <time>2024-07-23T15:14:23Z</time>
      </trkpt>
      <trkpt lat="46.04671" lon="6.34543">
        <ele>674</ele>
        <time>2024-07-23T15:14:31Z</time>
      </trkpt>
      <trkpt lat="46.04669" lon="6.34607">
        <ele>674</ele>
        <time>2024-07-23T15:14:39Z</time>
      </trkpt>
      <trkpt lat="46.04638" lon="6.34847">
        <ele>670</ele>
        <time>2024-07-23T15:15:09Z</time>
      </trkpt>
      <trkpt lat="46.04525" lon="6.35169">
        <ele>666</ele>
        <time>2024-07-23T15:15:53Z</time>
      </trkpt>
      <trkpt lat="46.04515" lon="6.35218">
        <ele>667</ele>
        <time>2024-07-23T15:16:00Z</time>
      </trkpt>
      <trkpt lat="46.0447" lon="6.35297">
        <ele>669</ele>
        <time>2024-07-23T15:16:12Z</time>
      </trkpt>
      <trkpt lat="46.04413" lon="6.3546">
        <ele>672</ele>
        <time>2024-07-23T15:16:35Z</time>
      </trkpt>
      <trkpt lat="46.04411" lon="6.35506">
        <ele>672</ele>
        <time>2024-07-23T15:16:41Z</time>
      </trkpt>
      <trkpt lat="46.044" lon="6.35536">
        <ele>674</ele>
        <time>2024-07-23T15:16:45Z</time>
      </trkpt>
      <trkpt lat="46.04385" lon="6.35558">
        <ele>676</ele>
        <time>2024-07-23T15:16:49Z</time>
      </trkpt>
      <trkpt lat="46.04363" lon="6.35633">
        <ele>678</ele>
        <time>2024-07-23T15:16:59Z</time>
      </trkpt>
      <trkpt lat="46.04332" lon="6.3572">
        <ele>683</ele>
        <time>2024-07-23T15:17:11Z</time>
      </trkpt>
      <trkpt lat="46.04325" lon="6.3575">
        <ele>684</ele>
        <time>2024-07-23T15:17:15Z</time>
      </trkpt>
      <trkpt lat="46.04323" lon="6.3598">
        <ele>685</ele>
        <time>2024-07-23T15:17:43Z</time>
      </trkpt>
      <trkpt lat="46.04318" lon="6.36064">
        <ele>686</ele>
        <time>2024-07-23T15:17:54Z</time>
      </trkpt>
      <trkpt lat="46.04304" lon="6.36177">
        <ele>687</ele>
        <time>2024-07-23T15:18:08Z</time>
      </trkpt>
      <trkpt lat="46.04291" lon="6.36256">
        <ele>687</ele>
        <time>2024-07-23T15:18:18Z</time>
      </trkpt>
      <trkpt lat="46.04274" lon="6.36324">
        <ele>688</ele>
        <time>2024-07-23T15:18:27Z</time>
      </trkpt>
      <trkpt lat="46.0428" lon="6.36333">
        <ele>687</ele>
        <time>2024-07-23T15:18:28Z</time>
      </trkpt>
      <trkpt lat="46.04297" lon="6.36346">
        <ele>685</ele>
        <time>2024-07-23T15:18:32Z</time>
      </trkpt>
      <trkpt lat="46.04325" lon="6.36377">
        <ele>681</ele>
        <time>2024-07-23T15:18:38Z</time>
      </trkpt>
      <trkpt lat="46.04337" lon="6.36403">
        <ele>679</ele>
        <time>2024-07-23T15:18:42Z</time>
      </trkpt>
      <trkpt lat="46.04356" lon="6.36465">
        <ele>677</ele>
        <time>2024-07-23T15:18:50Z</time>
      </trkpt>
      <trkpt lat="46.0436" lon="6.36469">
        <ele>677</ele>
        <time>2024-07-23T15:18:51Z</time>
      </trkpt>
      <trkpt lat="46.044" lon="6.36467">
        <ele>674</ele>
        <time>2024-07-23T15:18:58Z</time>
      </trkpt>
      <trkpt lat="46.04445" lon="6.36475">
        <ele>672</ele>
        <time>2024-07-23T15:19:06Z</time>
      </trkpt>
      <trkpt lat="46.04454" lon="6.3647">
        <ele>671</ele>
        <time>2024-07-23T15:19:08Z</time>
      </trkpt>
      <trkpt lat="46.04451" lon="6.36506">
        <ele>672</ele>
        <time>2024-07-23T15:19:12Z</time>
      </trkpt>
      <trkpt lat="46.04459" lon="6.36518">
        <ele>671</ele>
        <time>2024-07-23T15:19:14Z</time>
      </trkpt>
      <trkpt lat="46.04469" lon="6.36526">
        <ele>671</ele>
        <time>2024-07-23T15:19:16Z</time>
      </trkpt>
      <trkpt lat="46.04503" lon="6.3654">
        <ele>669</ele>
        <time>2024-07-23T15:19:23Z</time>
      </trkpt>
      <trkpt lat="46.04561" lon="6.36627">
        <ele>668</ele>
        <time>2024-07-23T15:19:38Z</time>
      </trkpt>
      <trkpt lat="46.04574" lon="6.3665">
        <ele>668</ele>
        <time>2024-07-23T15:19:41Z</time>
      </trkpt>
      <trkpt lat="46.04629" lon="6.36716">
        <ele>666</ele>
        <time>2024-07-23T15:19:54Z</time>
      </trkpt>
      <trkpt lat="46.0464" lon="6.36747">
        <ele>664</ele>
        <time>2024-07-23T15:19:58Z</time>
      </trkpt>
      <trkpt lat="46.04646" lon="6.36777">
        <ele>662</ele>
        <time>2024-07-23T15:20:02Z</time>
      </trkpt>
      <trkpt lat="46.04643" lon="6.36821">
        <ele>660</ele>
        <time>2024-07-23T15:20:08Z</time>
      </trkpt>
      <trkpt lat="46.04623" lon="6.36892">
        <ele>661</ele>
        <time>2024-07-23T15:20:17Z</time>
      </trkpt>
      <trkpt lat="46.04621" lon="6.36924">
        <ele>661</ele>
        <time>2024-07-23T15:20:21Z</time>
      </trkpt>
      <trkpt lat="46.04626" lon="6.36939">
        <ele>659</ele>
        <time>2024-07-23T15:20:23Z</time>
      </trkpt>
      <trkpt lat="46.04697" lon="6.36965">
        <ele>648</ele>
        <time>2024-07-23T15:20:36Z</time>
      </trkpt>
      <trkpt lat="46.04722" lon="6.36953">
        <ele>646</ele>
        <time>2024-07-23T15:20:41Z</time>
      </trkpt>
      <trkpt lat="46.04748" lon="6.36878">
        <ele>644</ele>
        <time>2024-07-23T15:20:51Z</time>
      </trkpt>
      <trkpt lat="46.04787" lon="6.36888">
        <ele>642</ele>
        <time>2024-07-23T15:20:58Z</time>
      </trkpt>
      <trkpt lat="46.04835" lon="6.36916">
        <ele>641</ele>
        <time>2024-07-23T15:21:07Z</time>
      </trkpt>
      <trkpt lat="46.04868" lon="6.3695">
        <ele>639</ele>
        <time>2024-07-23T15:21:15Z</time>
      </trkpt>
      <trkpt lat="46.04904" lon="6.36963">
        <ele>636</ele>
        <time>2024-07-23T15:21:21Z</time>
      </trkpt>
      <trkpt lat="46.04912" lon="6.36955">
        <ele>635</ele>
        <time>2024-07-23T15:21:23Z</time>
      </trkpt>
      <trkpt lat="46.04916" lon="6.36935">
        <ele>636</ele>
        <time>2024-07-23T15:21:26Z</time>
      </trkpt>
      <trkpt lat="46.04893" lon="6.36673">
        <ele>636</ele>
        <time>2024-07-23T15:21:58Z</time>
      </trkpt>
      <trkpt lat="46.04884" lon="6.3661">
        <ele>637</ele>
        <time>2024-07-23T15:22:06Z</time>
      </trkpt>
      <trkpt lat="46.04877" lon="6.36581">
        <ele>638</ele>
        <time>2024-07-23T15:22:10Z</time>
      </trkpt>
      <trkpt lat="46.04819" lon="6.36432">
        <ele>641</ele>
        <time>2024-07-23T15:22:31Z</time>
      </trkpt>
      <trkpt lat="46.04809" lon="6.364">
        <ele>643</ele>
        <time>2024-07-23T15:22:35Z</time>
      </trkpt>
      <trkpt lat="46.04805" lon="6.36358">
        <ele>643</ele>
        <time>2024-07-23T15:22:41Z</time>
      </trkpt>
      <trkpt lat="46.04806" lon="6.36273">
        <ele>645</ele>
        <time>2024-07-23T15:22:51Z</time>
      </trkpt>
      <trkpt lat="46.04798" lon="6.3617">
        <ele>644</ele>
        <time>2024-07-23T15:23:04Z</time>
      </trkpt>
      <trkpt lat="46.04816" lon="6.35973">
        <ele>642</ele>
        <time>2024-07-23T15:23:28Z</time>
      </trkpt>
      <trkpt lat="46.04819" lon="6.35865">
        <ele>642</ele>
        <time>2024-07-23T15:23:42Z</time>
      </trkpt>
      <trkpt lat="46.04841" lon="6.35869">
        <ele>640</ele>
        <time>2024-07-23T15:23:46Z</time>
      </trkpt>
      <trkpt lat="46.04898" lon="6.3589">
        <ele>637</ele>
        <time>2024-07-23T15:23:56Z</time>
      </trkpt>
      <trkpt lat="46.05013" lon="6.35966">
        <ele>637</ele>
        <time>2024-07-23T15:24:19Z</time>
      </trkpt>
      <trkpt lat="46.05034" lon="6.35975">
        <ele>637</ele>
        <time>2024-07-23T15:24:23Z</time>
      </trkpt>
      <trkpt lat="46.05044" lon="6.35983">
        <ele>637</ele>
        <time>2024-07-23T15:24:25Z</time>
      </trkpt>
      <trkpt lat="46.05047" lon="6.35988">
        <ele>637</ele>
        <time>2024-07-23T15:24:25Z</time>
      </trkpt>
      <trkpt lat="46.05052" lon="6.36015">
        <ele>636</ele>
        <time>2024-07-23T15:24:29Z</time>
      </trkpt>
      <trkpt lat="46.05047" lon="6.3614">
        <ele>631</ele>
        <time>2024-07-23T15:24:44Z</time>
      </trkpt>
      <trkpt lat="46.05065" lon="6.3651">
        <ele>617</ele>
        <time>2024-07-23T15:25:30Z</time>
      </trkpt>
      <trkpt lat="46.05079" lon="6.36608">
        <ele>612</ele>
        <time>2024-07-23T15:25:43Z</time>
      </trkpt>
      <trkpt lat="46.05092" lon="6.36778">
        <ele>607</ele>
        <time>2024-07-23T15:26:04Z</time>
      </trkpt>
      <trkpt lat="46.05109" lon="6.3694">
        <ele>605</ele>
        <time>2024-07-23T15:26:24Z</time>
      </trkpt>
      <trkpt lat="46.05122" lon="6.37033">
        <ele>599</ele>
        <time>2024-07-23T15:26:36Z</time>
      </trkpt>
      <trkpt lat="46.05124" lon="6.37108">
        <ele>595</ele>
        <time>2024-07-23T15:26:45Z</time>
      </trkpt>
      <trkpt lat="46.05121" lon="6.37175">
        <ele>593</ele>
        <time>2024-07-23T15:26:53Z</time>
      </trkpt>
      <trkpt lat="46.05122" lon="6.3722">
        <ele>590</ele>
        <time>2024-07-23T15:26:59Z</time>
      </trkpt>
      <trkpt lat="46.05128" lon="6.37232">
        <ele>587</ele>
        <time>2024-07-23T15:27:01Z</time>
      </trkpt>
      <trkpt lat="46.05137" lon="6.37239">
        <ele>583</ele>
        <time>2024-07-23T15:27:02Z</time>
      </trkpt>
      <trkpt lat="46.05148" lon="6.37236">
        <ele>578</ele>
        <time>2024-07-23T15:27:04Z</time>
      </trkpt>
      <trkpt lat="46.05156" lon="6.37227">
        <ele>575</ele>
        <time>2024-07-23T15:27:06Z</time>
      </trkpt>
      <trkpt lat="46.0516" lon="6.37211">
        <ele>574</ele>
        <time>2024-07-23T15:27:08Z</time>
      </trkpt>
      <trkpt lat="46.05163" lon="6.37079">
        <ele>578</ele>
        <time>2024-07-23T15:27:25Z</time>
      </trkpt>
      <trkpt lat="46.05176" lon="6.37008">
        <ele>581</ele>
        <time>2024-07-23T15:27:34Z</time>
      </trkpt>
      <trkpt lat="46.05194" lon="6.36974">
        <ele>577</ele>
        <time>2024-07-23T15:27:39Z</time>
      </trkpt>
      <trkpt lat="46.05253" lon="6.36885">
        <ele>563</ele>
        <time>2024-07-23T15:27:54Z</time>
      </trkpt>
      <trkpt lat="46.05266" lon="6.36861">
        <ele>560</ele>
        <time>2024-07-23T15:27:58Z</time>
      </trkpt>
      <trkpt lat="46.05276" lon="6.36792">
        <ele>558</ele>
        <time>2024-07-23T15:28:07Z</time>
      </trkpt>
      <trkpt lat="46.05288" lon="6.36746">
        <ele>557</ele>
        <time>2024-07-23T15:28:13Z</time>
      </trkpt>
      <trkpt lat="46.05319" lon="6.36651">
        <ele>552</ele>
        <time>2024-07-23T15:28:26Z</time>
      </trkpt>
      <trkpt lat="46.05338" lon="6.36579">
        <ele>549</ele>
        <time>2024-07-23T15:28:35Z</time>
      </trkpt>
      <trkpt lat="46.05358" lon="6.36526">
        <ele>547</ele>
        <time>2024-07-23T15:28:43Z</time>
      </trkpt>
      <trkpt lat="46.05369" lon="6.36489">
        <ele>546</ele>
        <time>2024-07-23T15:28:48Z</time>
      </trkpt>
      <trkpt lat="46.05379" lon="6.36438">
        <ele>543</ele>
        <time>2024-07-23T15:28:54Z</time>
      </trkpt>
      <trkpt lat="46.05383" lon="6.36342">
        <ele>544</ele>
        <time>2024-07-23T15:29:06Z</time>
      </trkpt>
      <trkpt lat="46.05389" lon="6.36275">
        <ele>546</ele>
        <time>2024-07-23T15:29:14Z</time>
      </trkpt>
      <trkpt lat="46.05394" lon="6.36261">
        <ele>545</ele>
        <time>2024-07-23T15:29:16Z</time>
      </trkpt>
      <trkpt lat="46.05402" lon="6.36252">
        <ele>543</ele>
        <time>2024-07-23T15:29:18Z</time>
      </trkpt>
      <trkpt lat="46.05415" lon="6.36251">
        <ele>539</ele>
        <time>2024-07-23T15:29:20Z</time>
      </trkpt>
      <trkpt lat="46.05424" lon="6.36255">
        <ele>536</ele>
        <time>2024-07-23T15:29:22Z</time>
      </trkpt>
      <trkpt lat="46.05432" lon="6.36264">
        <ele>533</ele>
        <time>2024-07-23T15:29:24Z</time>
      </trkpt>
      <trkpt lat="46.05438" lon="6.36278">
        <ele>531</ele>
        <time>2024-07-23T15:29:26Z</time>
      </trkpt>
      <trkpt lat="46.05433" lon="6.36354">
        <ele>528</ele>
        <time>2024-07-23T15:29:35Z</time>
      </trkpt>
      <trkpt lat="46.05435" lon="6.36428">
        <ele>527</ele>
        <time>2024-07-23T15:29:44Z</time>
      </trkpt>
      <trkpt lat="46.05432" lon="6.36531">
        <ele>526</ele>
        <time>2024-07-23T15:29:57Z</time>
      </trkpt>
      <trkpt lat="46.05435" lon="6.36561">
        <ele>524</ele>
        <time>2024-07-23T15:30:01Z</time>
      </trkpt>
      <trkpt lat="46.05441" lon="6.3659">
        <ele>521</ele>
        <time>2024-07-23T15:30:05Z</time>
      </trkpt>
      <trkpt lat="46.05459" lon="6.36635">
        <ele>517</ele>
        <time>2024-07-23T15:30:11Z</time>
      </trkpt>
      <trkpt lat="46.05468" lon="6.366">
        <ele>516</ele>
        <time>2024-07-23T15:30:16Z</time>
      </trkpt>
      <trkpt lat="46.05498" lon="6.36522">
        <ele>511</ele>
        <time>2024-07-23T15:30:27Z</time>
      </trkpt>
      <trkpt lat="46.05506" lon="6.36496">
        <ele>509</ele>
        <time>2024-07-23T15:30:30Z</time>
      </trkpt>
      <trkpt lat="46.05533" lon="6.36372">
        <ele>504</ele>
        <time>2024-07-23T15:30:46Z</time>
      </trkpt>
      <trkpt lat="46.0553" lon="6.36346">
        <ele>505</ele>
        <time>2024-07-23T15:30:50Z</time>
      </trkpt>
      <trkpt lat="46.05517" lon="6.36308">
        <ele>508</ele>
        <time>2024-07-23T15:30:55Z</time>
      </trkpt>
      <trkpt lat="46.05513" lon="6.36258">
        <ele>509</ele>
        <time>2024-07-23T15:31:01Z</time>
      </trkpt>
      <trkpt lat="46.05518" lon="6.36201">
        <ele>508</ele>
        <time>2024-07-23T15:31:08Z</time>
      </trkpt>
      <trkpt lat="46.05544" lon="6.36023">
        <ele>506</ele>
        <time>2024-07-23T15:31:31Z</time>
      </trkpt>
      <trkpt lat="46.05555" lon="6.35911">
        <ele>509</ele>
        <time>2024-07-23T15:31:44Z</time>
      </trkpt>
      <trkpt lat="46.05562" lon="6.35881">
        <ele>508</ele>
        <time>2024-07-23T15:31:48Z</time>
      </trkpt>
      <trkpt lat="46.05573" lon="6.35853">
        <ele>506</ele>
        <time>2024-07-23T15:31:52Z</time>
      </trkpt>
      <trkpt lat="46.05582" lon="6.35842">
        <ele>503</ele>
        <time>2024-07-23T15:31:54Z</time>
      </trkpt>
      <trkpt lat="46.056" lon="6.35827">
        <ele>501</ele>
        <time>2024-07-23T15:31:58Z</time>
      </trkpt>
      <trkpt lat="46.05604" lon="6.35813">
        <ele>501</ele>
        <time>2024-07-23T15:32:00Z</time>
      </trkpt>
      <trkpt lat="46.05608" lon="6.35758">
        <ele>502</ele>
        <time>2024-07-23T15:32:07Z</time>
      </trkpt>
      <trkpt lat="46.05614" lon="6.35737">
        <ele>502</ele>
        <time>2024-07-23T15:32:10Z</time>
      </trkpt>
      <trkpt lat="46.05646" lon="6.35674">
        <ele>499</ele>
        <time>2024-07-23T15:32:19Z</time>
      </trkpt>
      <trkpt lat="46.05674" lon="6.35583">
        <ele>496</ele>
        <time>2024-07-23T15:32:32Z</time>
      </trkpt>
      <trkpt lat="46.05694" lon="6.35547">
        <ele>495</ele>
        <time>2024-07-23T15:32:37Z</time>
      </trkpt>
      <trkpt lat="46.05707" lon="6.35515">
        <ele>495</ele>
        <time>2024-07-23T15:32:42Z</time>
      </trkpt>
      <trkpt lat="46.0572" lon="6.35404">
        <ele>498</ele>
        <time>2024-07-23T15:32:56Z</time>
      </trkpt>
      <trkpt lat="46.05809" lon="6.35391">
        <ele>492</ele>
        <time>2024-07-23T15:33:12Z</time>
      </trkpt>
      <trkpt lat="46.05827" lon="6.354">
        <ele>491</ele>
        <time>2024-07-23T15:33:15Z</time>
      </trkpt>
      <trkpt lat="46.05869" lon="6.35435">
        <ele>488</ele>
        <time>2024-07-23T15:33:24Z</time>
      </trkpt>
      <trkpt lat="46.05949" lon="6.35469">
        <ele>483</ele>
        <time>2024-07-23T15:33:39Z</time>
      </trkpt>
      <trkpt lat="46.0598" lon="6.35488">
        <ele>482</ele>
        <time>2024-07-23T15:33:45Z</time>
      </trkpt>
      <trkpt lat="46.0599" lon="6.35497">
        <ele>481</ele>
        <time>2024-07-23T15:33:47Z</time>
      </trkpt>
      <trkpt lat="46.05993" lon="6.35509">
        <ele>481</ele>
        <time>2024-07-23T15:33:48Z</time>
      </trkpt>
      <trkpt lat="46.06088" lon="6.35521">
        <ele>477</ele>
        <time>2024-07-23T15:34:05Z</time>
      </trkpt>
      <trkpt lat="46.06129" lon="6.3551">
        <ele>475</ele>
        <time>2024-07-23T15:34:13Z</time>
      </trkpt>
      <trkpt lat="46.06155" lon="6.35524">
        <ele>474</ele>
        <time>2024-07-23T15:34:18Z</time>
      </trkpt>
      <trkpt lat="46.06205" lon="6.35567">
        <ele>473</ele>
        <time>2024-07-23T15:34:28Z</time>
      </trkpt>
      <trkpt lat="46.06222" lon="6.35577">
        <ele>472</ele>
        <time>2024-07-23T15:34:31Z</time>
      </trkpt>
      <trkpt lat="46.06236" lon="6.35577">
        <ele>472</ele>
        <time>2024-07-23T15:34:34Z</time>
      </trkpt>
      <trkpt lat="46.06285" lon="6.35549">
        <ele>471</ele>
        <time>2024-07-23T15:34:43Z</time>
      </trkpt>
      <trkpt lat="46.06333" lon="6.35557">
        <ele>470</ele>
        <time>2024-07-23T15:34:52Z</time>
      </trkpt>
      <trkpt lat="46.0634" lon="6.35494">
        <ele>469</ele>
        <time>2024-07-23T15:35:00Z</time>
      </trkpt>
      <trkpt lat="46.0637" lon="6.35497">
        <ele>469</ele>
        <time>2024-07-23T15:35:05Z</time>
      </trkpt>
      <trkpt lat="46.06426" lon="6.35516">
        <ele>468</ele>
        <time>2024-07-23T15:35:15Z</time>
      </trkpt>
      <trkpt lat="46.06517" lon="6.35562">
        <ele>464</ele>
        <time>2024-07-23T15:35:32Z</time>
      </trkpt>
      <trkpt lat="46.06558" lon="6.35564">
        <ele>463</ele>
        <time>2024-07-23T15:35:40Z</time>
      </trkpt>
      <trkpt lat="46.06786" lon="6.35557">
        <ele>463</ele>
        <time>2024-07-23T15:36:20Z</time>
      </trkpt>
      <trkpt lat="46.06863" lon="6.35552">
        <ele>461</ele>
        <time>2024-07-23T15:36:34Z</time>
      </trkpt>
      <trkpt lat="46.0688" lon="6.35547">
        <ele>461</ele>
        <time>2024-07-23T15:36:37Z</time>
      </trkpt>
      <trkpt lat="46.06952" lon="6.35577">
        <ele>459</ele>
        <time>2024-07-23T15:36:50Z</time>
      </trkpt>
      <trkpt lat="46.06935" lon="6.35626">
        <ele>460</ele>
        <time>2024-07-23T15:36:57Z</time>
      </trkpt>
      <trkpt lat="46.06941" lon="6.35696">
        <ele>460</ele>
        <time>2024-07-23T15:37:06Z</time>
      </trkpt>
      <trkpt lat="46.07009" lon="6.35683">
        <ele>459</ele>
        <time>2024-07-23T15:37:18Z</time>
      </trkpt>
      <trkpt lat="46.07014" lon="6.35775">
        <ele>459</ele>
        <time>2024-07-23T15:37:29Z</time>
      </trkpt>
      <trkpt lat="46.07032" lon="6.35793">
        <ele>459</ele>
        <time>2024-07-23T15:37:33Z</time>
      </trkpt>
      <trkpt lat="46.07061" lon="6.358">
        <ele>459</ele>
        <time>2024-07-23T15:37:38Z</time>
      </trkpt>
      <trkpt lat="46.07145" lon="6.35812">
        <ele>458</ele>
        <time>2024-07-23T15:37:53Z</time>
      </trkpt>
      <trkpt lat="46.07172" lon="6.35809">
        <ele>458</ele>
        <time>2024-07-23T15:37:58Z</time>
      </trkpt>
      <trkpt lat="46.07178" lon="6.35802">
        <ele>458</ele>
        <time>2024-07-23T15:38:00Z</time>
      </trkpt>
      <trkpt lat="46.07185" lon="6.35785">
        <ele>458</ele>
        <time>2024-07-23T15:38:02Z</time>
      </trkpt>
      <trkpt lat="46.07192" lon="6.357">
        <ele>457</ele>
        <time>2024-07-23T15:38:13Z</time>
      </trkpt>
      <trkpt lat="46.0723" lon="6.35717">
        <ele>458</ele>
        <time>2024-07-23T15:38:20Z</time>
      </trkpt>
      <trkpt lat="46.07511" lon="6.35723">
        <ele>456</ele>
        <time>2024-07-23T15:39:10Z</time>
      </trkpt>
      <trkpt lat="46.07574" lon="6.35723">
        <ele>455</ele>
        <time>2024-07-23T15:39:21Z</time>
      </trkpt>
      <trkpt lat="46.07693" lon="6.35707">
        <ele>452</ele>
        <time>2024-07-23T15:39:42Z</time>
      </trkpt>
      <trkpt lat="46.07729" lon="6.35706">
        <ele>452</ele>
        <time>2024-07-23T15:39:49Z</time>
      </trkpt>
      <trkpt lat="46.07733" lon="6.35713">
        <ele>452</ele>
        <time>2024-07-23T15:39:50Z</time>
      </trkpt>
      <trkpt lat="46.07736" lon="6.35714">
        <ele>452</ele>
        <time>2024-07-23T15:39:50Z</time>
      </trkpt>
      <trkpt lat="46.07741" lon="6.3571">
        <ele>452</ele>
        <time>2024-07-23T15:39:51Z</time>
      </trkpt>
      <trkpt lat="46.07743" lon="6.35704">
        <ele>452</ele>
        <time>2024-07-23T15:39:52Z</time>
      </trkpt>
      <trkpt lat="46.07758" lon="6.35699">
        <ele>452</ele>
        <time>2024-07-23T15:39:55Z</time>
      </trkpt>
      <trkpt lat="46.07798" lon="6.35703">
        <ele>453</ele>
        <time>2024-07-23T15:40:02Z</time>
      </trkpt>
      <trkpt lat="46.07809" lon="6.35701">
        <ele>453</ele>
        <time>2024-07-23T15:40:04Z</time>
      </trkpt>
      <trkpt lat="46.07829" lon="6.35686">
        <ele>453</ele>
        <time>2024-07-23T15:40:08Z</time>
      </trkpt>
      <trkpt lat="46.07878" lon="6.35623">
        <ele>452</ele>
        <time>2024-07-23T15:40:20Z</time>
      </trkpt>
      <trkpt lat="46.07898" lon="6.35574">
        <ele>452</ele>
        <time>2024-07-23T15:40:27Z</time>
      </trkpt>
      <trkpt lat="46.07905" lon="6.35542">
        <ele>452</ele>
        <time>2024-07-23T15:40:31Z</time>
      </trkpt>
      <trkpt lat="46.07946" lon="6.3523">
        <ele>450</ele>
        <time>2024-07-23T15:41:10Z</time>
      </trkpt>
      <trkpt lat="46.07964" lon="6.35162">
        <ele>450</ele>
        <time>2024-07-23T15:41:19Z</time>
      </trkpt>
      <trkpt lat="46.07982" lon="6.35029">
        <ele>450</ele>
        <time>2024-07-23T15:41:36Z</time>
      </trkpt>
      <trkpt lat="46.08009" lon="6.34905">
        <ele>453</ele>
        <time>2024-07-23T15:41:52Z</time>
      </trkpt>
      <trkpt lat="46.08024" lon="6.34897">
        <ele>453</ele>
        <time>2024-07-23T15:41:55Z</time>
      </trkpt>
      <trkpt lat="46.08047" lon="6.34906">
        <ele>452</ele>
        <time>2024-07-23T15:41:59Z</time>
      </trkpt>
      <trkpt lat="46.08078" lon="6.34912">
        <ele>451</ele>
        <time>2024-07-23T15:42:04Z</time>
      </trkpt>
      <trkpt lat="46.08104" lon="6.34912">
        <ele>451</ele>
        <time>2024-07-23T15:42:09Z</time>
      </trkpt>
      <trkpt lat="46.08129" lon="6.34899">
        <ele>452</ele>
        <time>2024-07-23T15:42:14Z</time>
      </trkpt>
      <trkpt lat="46.08138" lon="6.34886">
        <ele>452</ele>
        <time>2024-07-23T15:42:16Z</time>
      </trkpt>
      <trkpt lat="46.08143" lon="6.34869">
        <ele>453</ele>
        <time>2024-07-23T15:42:18Z</time>
      </trkpt>
      <trkpt lat="46.08145" lon="6.34824">
        <ele>455</ele>
        <time>2024-07-23T15:42:24Z</time>
      </trkpt>
      <trkpt lat="46.08149" lon="6.34805">
        <ele>456</ele>
        <time>2024-07-23T15:42:26Z</time>
      </trkpt>
      <trkpt lat="46.08287" lon="6.34635">
        <ele>453</ele>
        <time>2024-07-23T15:42:59Z</time>
      </trkpt>
      <trkpt lat="46.08316" lon="6.34668">
        <ele>452</ele>
        <time>2024-07-23T15:43:05Z</time>
      </trkpt>
      <trkpt lat="46.08343" lon="6.34678">
        <ele>450</ele>
        <time>2024-07-23T15:43:10Z</time>
      </trkpt>
      <trkpt lat="46.08351" lon="6.34663">
        <ele>450</ele>
        <time>2024-07-23T15:43:13Z</time>
      </trkpt>
      <trkpt lat="46.08356" lon="6.34637">
        <ele>450</ele>
        <time>2024-07-23T15:43:16Z</time>
      </trkpt>
      <trkpt lat="46.08376" lon="6.34634">
        <ele>449</ele>
        <time>2024-07-23T15:43:19Z</time>
      </trkpt>
      <trkpt lat="46.08417" lon="6.3462">
        <ele>448</ele>
        <time>2024-07-23T15:43:27Z</time>
      </trkpt>
      <trkpt lat="46.08513" lon="6.34572">
        <ele>447</ele>
        <time>2024-07-23T15:43:45Z</time>
      </trkpt>
      <trkpt lat="46.08539" lon="6.34555">
        <ele>446</ele>
        <time>2024-07-23T15:43:50Z</time>
      </trkpt>
      <trkpt lat="46.08579" lon="6.34476">
        <ele>447</ele>
        <time>2024-07-23T15:44:02Z</time>
      </trkpt>
      <trkpt lat="46.08591" lon="6.34464">
        <ele>447</ele>
        <time>2024-07-23T15:44:05Z</time>
      </trkpt>
      <trkpt lat="46.08623" lon="6.34455">
        <ele>447</ele>
        <time>2024-07-23T15:44:11Z</time>
      </trkpt>
      <trkpt lat="46.08644" lon="6.34458">
        <ele>447</ele>
        <time>2024-07-23T15:44:14Z</time>
      </trkpt>
      <trkpt lat="46.08732" lon="6.34495">
        <ele>446</ele>
        <time>2024-07-23T15:44:31Z</time>
      </trkpt>
      <trkpt lat="46.08772" lon="6.34515">
        <ele>446</ele>
        <time>2024-07-23T15:44:38Z</time>
      </trkpt>
      <trkpt lat="46.08795" lon="6.34507">
        <ele>446</ele>
        <time>2024-07-23T15:44:42Z</time>
      </trkpt>
      <trkpt lat="46.08827" lon="6.34466">
        <ele>446</ele>
        <time>2024-07-23T15:44:50Z</time>
      </trkpt>
      <trkpt lat="46.08849" lon="6.34446">
        <ele>445</ele>
        <time>2024-07-23T15:44:55Z</time>
      </trkpt>
      <trkpt lat="46.08865" lon="6.34441">
        <ele>446</ele>
        <time>2024-07-23T15:44:58Z</time>
      </trkpt>
      <trkpt lat="46.08915" lon="6.34451">
        <ele>446</ele>
        <time>2024-07-23T15:45:07Z</time>
      </trkpt>
      <trkpt lat="46.08969" lon="6.34433">
        <ele>445</ele>
        <time>2024-07-23T15:45:16Z</time>
      </trkpt>
      <trkpt lat="46.09025" lon="6.34377">
        <ele>443</ele>
        <time>2024-07-23T15:45:29Z</time>
      </trkpt>
      <trkpt lat="46.09167" lon="6.34291">
        <ele>442</ele>
        <time>2024-07-23T15:45:56Z</time>
      </trkpt>
      <trkpt lat="46.09265" lon="6.34212">
        <ele>441</ele>
        <time>2024-07-23T15:46:16Z</time>
      </trkpt>
      <trkpt lat="46.09309" lon="6.34136">
        <ele>441</ele>
        <time>2024-07-23T15:46:28Z</time>
      </trkpt>
      <trkpt lat="46.09351" lon="6.34092">
        <ele>440</ele>
        <time>2024-07-23T15:46:37Z</time>
      </trkpt>
      <trkpt lat="46.09422" lon="6.34026">
        <ele>441</ele>
        <time>2024-07-23T15:46:52Z</time>
      </trkpt>
      <trkpt lat="46.09486" lon="6.33946">
        <ele>442</ele>
        <time>2024-07-23T15:47:07Z</time>
      </trkpt>
      <trkpt lat="46.0941" lon="6.33904">
        <ele>441</ele>
        <time>2024-07-23T15:47:22Z</time>
      </trkpt>
      <trkpt lat="46.09332" lon="6.33787">
        <ele>444</ele>
        <time>2024-07-23T15:47:42Z</time>
      </trkpt>
      <trkpt lat="46.09302" lon="6.33724">
        <ele>445</ele>
        <time>2024-07-23T15:47:51Z</time>
      </trkpt>
      <trkpt lat="46.09255" lon="6.33681">
        <ele>445</ele>
        <time>2024-07-23T15:48:01Z</time>
      </trkpt>
      <trkpt lat="46.09223" lon="6.33657">
        <ele>446</ele>
        <time>2024-07-23T15:48:08Z</time>
      </trkpt>
      <trkpt lat="46.09157" lon="6.33629">
        <ele>447</ele>
        <time>2024-07-23T15:48:20Z</time>
      </trkpt>
      <trkpt lat="46.09108" lon="6.33605">
        <ele>446</ele>
        <time>2024-07-23T15:48:29Z</time>
      </trkpt>
      <trkpt lat="46.08955" lon="6.33518">
        <ele>447</ele>
        <time>2024-07-23T15:48:58Z</time>
      </trkpt>
      <trkpt lat="46.08752" lon="6.33333">
        <ele>449</ele>
        <time>2024-07-23T15:49:41Z</time>
      </trkpt>
      <trkpt lat="46.0866" lon="6.33256">
        <ele>454</ele>
        <time>2024-07-23T15:50:00Z</time>
      </trkpt>
      <trkpt lat="46.08643" lon="6.3323">
        <ele>455</ele>
        <time>2024-07-23T15:50:04Z</time>
      </trkpt>
      <trkpt lat="46.08681" lon="6.33182">
        <ele>456</ele>
        <time>2024-07-23T15:50:13Z</time>
      </trkpt>
      <trkpt lat="46.08711" lon="6.33161">
        <ele>456</ele>
        <time>2024-07-23T15:50:19Z</time>
      </trkpt>
      <trkpt lat="46.08783" lon="6.33071">
        <ele>455</ele>
        <time>2024-07-23T15:50:36Z</time>
      </trkpt>
      <trkpt lat="46.08855" lon="6.33">
        <ele>455</ele>
        <time>2024-07-23T15:50:52Z</time>
      </trkpt>
      <trkpt lat="46.08898" lon="6.32963">
        <ele>453</ele>
        <time>2024-07-23T15:51:01Z</time>
      </trkpt>
      <trkpt lat="46.08979" lon="6.32898">
        <ele>452</ele>
        <time>2024-07-23T15:51:17Z</time>
      </trkpt>
      <trkpt lat="46.09066" lon="6.32858">
        <ele>452</ele>
        <time>2024-07-23T15:51:34Z</time>
      </trkpt>
      <trkpt lat="46.09153" lon="6.3281">
        <ele>451</ele>
        <time>2024-07-23T15:51:50Z</time>
      </trkpt>
      <trkpt lat="46.09225" lon="6.32754">
        <ele>451</ele>
        <time>2024-07-23T15:52:05Z</time>
      </trkpt>
      <trkpt lat="46.09275" lon="6.32697">
        <ele>454</ele>
        <time>2024-07-23T15:52:16Z</time>
      </trkpt>
      <trkpt lat="46.09351" lon="6.32634">
        <ele>457</ele>
        <time>2024-07-23T15:52:32Z</time>
      </trkpt>
      <trkpt lat="46.09323" lon="6.32545">
        <ele>459</ele>
        <time>2024-07-23T15:52:44Z</time>
      </trkpt>
      <trkpt lat="46.09325" lon="6.32539">
        <ele>459</ele>
        <time>2024-07-23T15:52:44Z</time>
      </trkpt>
      <trkpt lat="46.09329" lon="6.32531">
        <ele>459</ele>
        <time>2024-07-23T15:52:46Z</time>
      </trkpt>
      <trkpt lat="46.09348" lon="6.3251">
        <ele>459</ele>
        <time>2024-07-23T15:52:50Z</time>
      </trkpt>
      <trkpt lat="46.09388" lon="6.32477">
        <ele>461</ele>
        <time>2024-07-23T15:52:58Z</time>
      </trkpt>
      <trkpt lat="46.09414" lon="6.32446">
        <ele>463</ele>
        <time>2024-07-23T15:53:04Z</time>
      </trkpt>
      <trkpt lat="46.09439" lon="6.32411">
        <ele>463</ele>
        <time>2024-07-23T15:53:10Z</time>
      </trkpt>
      <trkpt lat="46.09471" lon="6.32374">
        <ele>463</ele>
        <time>2024-07-23T15:53:18Z</time>
      </trkpt>
      <trkpt lat="46.09463" lon="6.32348">
        <ele>463</ele>
        <time>2024-07-23T15:53:21Z</time>
      </trkpt>
      <trkpt lat="46.09431" lon="6.32269">
        <ele>463</ele>
        <time>2024-07-23T15:53:32Z</time>
      </trkpt>
      <trkpt lat="46.09427" lon="6.32249">
        <ele>463</ele>
        <time>2024-07-23T15:53:35Z</time>
      </trkpt>
      <trkpt lat="46.09429" lon="6.32237">
        <ele>463</ele>
        <time>2024-07-23T15:53:37Z</time>
      </trkpt>
      <trkpt lat="46.09452" lon="6.32185">
        <ele>465</ele>
        <time>2024-07-23T15:53:44Z</time>
      </trkpt>
      <trkpt lat="46.09474" lon="6.32146">
        <ele>466</ele>
        <time>2024-07-23T15:53:50Z</time>
      </trkpt>
      <trkpt lat="46.09435" lon="6.32114">
        <ele>466</ele>
        <time>2024-07-23T15:53:58Z</time>
      </trkpt>
      <trkpt lat="46.09396" lon="6.32078">
        <ele>467</ele>
        <time>2024-07-23T15:54:07Z</time>
      </trkpt>
      <trkpt lat="46.09359" lon="6.3205">
        <ele>467</ele>
        <time>2024-07-23T15:54:14Z</time>
      </trkpt>
      <trkpt lat="46.09318" lon="6.32023">
        <ele>467</ele>
        <time>2024-07-23T15:54:22Z</time>
      </trkpt>
      <trkpt lat="46.09283" lon="6.31991">
        <ele>467</ele>
        <time>2024-07-23T15:54:29Z</time>
      </trkpt>
      <trkpt lat="46.09251" lon="6.31967">
        <ele>467</ele>
        <time>2024-07-23T15:54:36Z</time>
      </trkpt>
      <trkpt lat="46.09223" lon="6.31922">
        <ele>468</ele>
        <time>2024-07-23T15:54:43Z</time>
      </trkpt>
      <trkpt lat="46.09199" lon="6.31842">
        <ele>471</ele>
        <time>2024-07-23T15:54:54Z</time>
      </trkpt>
      <trkpt lat="46.09237" lon="6.31813">
        <ele>471</ele>
        <time>2024-07-23T15:55:02Z</time>
      </trkpt>
      <trkpt lat="46.09285" lon="6.31796">
        <ele>471</ele>
        <time>2024-07-23T15:55:10Z</time>
      </trkpt>
      <trkpt lat="46.09327" lon="6.31747">
        <ele>470</ele>
        <time>2024-07-23T15:55:20Z</time>
      </trkpt>
      <trkpt lat="46.09424" lon="6.31613">
        <ele>470</ele>
        <time>2024-07-23T15:55:44Z</time>
      </trkpt>
      <trkpt lat="46.09449" lon="6.31571">
        <ele>470</ele>
        <time>2024-07-23T15:55:51Z</time>
      </trkpt>
      <trkpt lat="46.09511" lon="6.31425">
        <ele>472</ele>
        <time>2024-07-23T15:56:12Z</time>
      </trkpt>
      <trkpt lat="46.09524" lon="6.31411">
        <ele>472</ele>
        <time>2024-07-23T15:56:15Z</time>
      </trkpt>
      <trkpt lat="46.09563" lon="6.31381">
        <ele>471</ele>
        <time>2024-07-23T15:56:23Z</time>
      </trkpt>
      <trkpt lat="46.09567" lon="6.31377">
        <ele>471</ele>
        <time>2024-07-23T15:56:24Z</time>
      </trkpt>
      <trkpt lat="46.09571" lon="6.31366">
        <ele>471</ele>
        <time>2024-07-23T15:56:25Z</time>
      </trkpt>
      <trkpt lat="46.09599" lon="6.31366">
        <ele>470</ele>
        <time>2024-07-23T15:56:30Z</time>
      </trkpt>
      <trkpt lat="46.09599" lon="6.31362">
        <ele>471</ele>
        <time>2024-07-23T15:56:31Z</time>
      </trkpt>
      <trkpt lat="46.09609" lon="6.31347">
        <ele>471</ele>
        <time>2024-07-23T15:56:33Z</time>
      </trkpt>
      <trkpt lat="46.09628" lon="6.31329">
        <ele>472</ele>
        <time>2024-07-23T15:56:37Z</time>
      </trkpt>
      <trkpt lat="46.09632" lon="6.31319">
        <ele>472</ele>
        <time>2024-07-23T15:56:39Z</time>
      </trkpt>
      <trkpt lat="46.09633" lon="6.31295">
        <ele>473</ele>
        <time>2024-07-23T15:56:42Z</time>
      </trkpt>
      <trkpt lat="46.09611" lon="6.31214">
        <ele>474</ele>
        <time>2024-07-23T15:56:52Z</time>
      </trkpt>
      <trkpt lat="46.09603" lon="6.31157">
        <ele>475</ele>
        <time>2024-07-23T15:56:59Z</time>
      </trkpt>
      <trkpt lat="46.09603" lon="6.31135">
        <ele>476</ele>
        <time>2024-07-23T15:57:02Z</time>
      </trkpt>
      <trkpt lat="46.09607" lon="6.31099">
        <ele>476</ele>
        <time>2024-07-23T15:57:07Z</time>
      </trkpt>
      <trkpt lat="46.09619" lon="6.31061">
        <ele>476</ele>
        <time>2024-07-23T15:57:12Z</time>
      </trkpt>
      <trkpt lat="46.0968" lon="6.30982">
        <ele>478</ele>
        <time>2024-07-23T15:57:26Z</time>
      </trkpt>
      <trkpt lat="46.09761" lon="6.30911">
        <ele>483</ele>
        <time>2024-07-23T15:57:43Z</time>
      </trkpt>
      <trkpt lat="46.09866" lon="6.3083">
        <ele>488</ele>
        <time>2024-07-23T15:58:04Z</time>
      </trkpt>
      <trkpt lat="46.10055" lon="6.30656">
        <ele>486</ele>
        <time>2024-07-23T15:58:44Z</time>
      </trkpt>
      <trkpt lat="46.10116" lon="6.30606">
        <ele>486</ele>
        <time>2024-07-23T15:58:57Z</time>
      </trkpt>
      <trkpt lat="46.10148" lon="6.3057">
        <ele>486</ele>
        <time>2024-07-23T15:59:04Z</time>
      </trkpt>
      <trkpt lat="46.10176" lon="6.30506">
        <ele>487</ele>
        <time>2024-07-23T15:59:13Z</time>
      </trkpt>
      <trkpt lat="46.10225" lon="6.30445">
        <ele>486</ele>
        <time>2024-07-23T15:59:25Z</time>
      </trkpt>
      <trkpt lat="46.10288" lon="6.30535">
        <ele>484</ele>
        <time>2024-07-23T15:59:41Z</time>
      </trkpt>
      <trkpt lat="46.10361" lon="6.30625">
        <ele>480</ele>
        <time>2024-07-23T15:59:58Z</time>
      </trkpt>
      <trkpt lat="46.10376" lon="6.30647">
        <ele>479</ele>
        <time>2024-07-23T16:00:02Z</time>
      </trkpt>
      <trkpt lat="46.10386" lon="6.30669">
        <ele>478</ele>
        <time>2024-07-23T16:00:05Z</time>
      </trkpt>
      <trkpt lat="46.10421" lon="6.30791">
        <ele>477</ele>
        <time>2024-07-23T16:00:21Z</time>
      </trkpt>
      <trkpt lat="46.10445" lon="6.30855">
        <ele>478</ele>
        <time>2024-07-23T16:00:30Z</time>
      </trkpt>
      <trkpt lat="46.10472" lon="6.30914">
        <ele>479</ele>
        <time>2024-07-23T16:00:39Z</time>
      </trkpt>
      <trkpt lat="46.10483" lon="6.30874">
        <ele>478</ele>
        <time>2024-07-23T16:00:44Z</time>
      </trkpt>
      <trkpt lat="46.10495" lon="6.30844">
        <ele>478</ele>
        <time>2024-07-23T16:00:48Z</time>
      </trkpt>
      <trkpt lat="46.10554" lon="6.30757">
        <ele>478</ele>
        <time>2024-07-23T16:01:03Z</time>
      </trkpt>
      <trkpt lat="46.1054" lon="6.3074">
        <ele>477</ele>
        <time>2024-07-23T16:01:07Z</time>
      </trkpt>
      <trkpt lat="46.10497" lon="6.30707">
        <ele>477</ele>
        <time>2024-07-23T16:01:15Z</time>
      </trkpt>
      <trkpt lat="46.1048" lon="6.30689">
        <ele>476</ele>
        <time>2024-07-23T16:01:19Z</time>
      </trkpt>
      <trkpt lat="46.10407" lon="6.30602">
        <ele>478</ele>
        <time>2024-07-23T16:01:36Z</time>
      </trkpt>
      <trkpt lat="46.104" lon="6.3059">
        <ele>479</ele>
        <time>2024-07-23T16:01:38Z</time>
      </trkpt>
      <trkpt lat="46.10399" lon="6.3057">
        <ele>480</ele>
        <time>2024-07-23T16:01:40Z</time>
      </trkpt>
      <trkpt lat="46.10408" lon="6.30527">
        <ele>483</ele>
        <time>2024-07-23T16:01:46Z</time>
      </trkpt>
      <trkpt lat="46.10416" lon="6.30422">
        <ele>484</ele>
        <time>2024-07-23T16:01:59Z</time>
      </trkpt>
      <trkpt lat="46.10424" lon="6.30389">
        <ele>484</ele>
        <time>2024-07-23T16:02:03Z</time>
      </trkpt>
      <trkpt lat="46.10444" lon="6.30337">
        <ele>485</ele>
        <time>2024-07-23T16:02:11Z</time>
      </trkpt>
      <trkpt lat="46.10472" lon="6.30306">
        <ele>487</ele>
        <time>2024-07-23T16:02:17Z</time>
      </trkpt>
      <trkpt lat="46.10477" lon="6.30297">
        <ele>487</ele>
        <time>2024-07-23T16:02:18Z</time>
      </trkpt>
      <trkpt lat="46.10482" lon="6.30263">
        <ele>490</ele>
        <time>2024-07-23T16:02:23Z</time>
      </trkpt>
      <trkpt lat="46.10486" lon="6.30256">
        <ele>490</ele>
        <time>2024-07-23T16:02:24Z</time>
      </trkpt>
      <trkpt lat="46.10468" lon="6.30211">
        <ele>491</ele>
        <time>2024-07-23T16:02:30Z</time>
      </trkpt>
      <trkpt lat="46.10431" lon="6.30171">
        <ele>496</ele>
        <time>2024-07-23T16:02:38Z</time>
      </trkpt>
      <trkpt lat="46.10422" lon="6.30165">
        <ele>497</ele>
        <time>2024-07-23T16:02:40Z</time>
      </trkpt>
      <trkpt lat="46.10418" lon="6.30138">
        <ele>497</ele>
        <time>2024-07-23T16:02:44Z</time>
      </trkpt>
      <trkpt lat="46.10376" lon="6.30065">
        <ele>498</ele>
        <time>2024-07-23T16:02:55Z</time>
      </trkpt>
      <trkpt lat="46.10329" lon="6.29972">
        <ele>495</ele>
        <time>2024-07-23T16:03:09Z</time>
      </trkpt>
      <trkpt lat="46.10326" lon="6.29953">
        <ele>496</ele>
        <time>2024-07-23T16:03:12Z</time>
      </trkpt>
      <trkpt lat="46.10327" lon="6.29927">
        <ele>496</ele>
        <time>2024-07-23T16:03:15Z</time>
      </trkpt>
      <trkpt lat="46.10374" lon="6.29747">
        <ele>498</ele>
        <time>2024-07-23T16:03:39Z</time>
      </trkpt>
      <trkpt lat="46.10382" lon="6.29687">
        <ele>502</ele>
        <time>2024-07-23T16:03:46Z</time>
      </trkpt>
      <trkpt lat="46.10385" lon="6.2964">
        <ele>504</ele>
        <time>2024-07-23T16:03:52Z</time>
      </trkpt>
      <trkpt lat="46.10378" lon="6.29603">
        <ele>505</ele>
        <time>2024-07-23T16:03:57Z</time>
      </trkpt>
      <trkpt lat="46.10365" lon="6.29569">
        <ele>506</ele>
        <time>2024-07-23T16:04:02Z</time>
      </trkpt>
      <trkpt lat="46.10328" lon="6.2949">
        <ele>509</ele>
        <time>2024-07-23T16:04:13Z</time>
      </trkpt>
      <trkpt lat="46.10314" lon="6.29467">
        <ele>509</ele>
        <time>2024-07-23T16:04:17Z</time>
      </trkpt>
      <trkpt lat="46.10305" lon="6.29439">
        <ele>510</ele>
        <time>2024-07-23T16:04:21Z</time>
      </trkpt>
      <trkpt lat="46.10296" lon="6.29395">
        <ele>511</ele>
        <time>2024-07-23T16:04:27Z</time>
      </trkpt>
      <trkpt lat="46.10302" lon="6.29316">
        <ele>514</ele>
        <time>2024-07-23T16:04:36Z</time>
      </trkpt>
      <trkpt lat="46.10298" lon="6.29287">
        <ele>515</ele>
        <time>2024-07-23T16:04:40Z</time>
      </trkpt>
      <trkpt lat="46.10291" lon="6.29258">
        <ele>516</ele>
        <time>2024-07-23T16:04:44Z</time>
      </trkpt>
      <trkpt lat="46.10278" lon="6.29225">
        <ele>517</ele>
        <time>2024-07-23T16:04:49Z</time>
      </trkpt>
      <trkpt lat="46.10262" lon="6.29198">
        <ele>519</ele>
        <time>2024-07-23T16:04:53Z</time>
      </trkpt>
      <trkpt lat="46.10251" lon="6.29165">
        <ele>520</ele>
        <time>2024-07-23T16:04:57Z</time>
      </trkpt>
      <trkpt lat="46.10243" lon="6.2913">
        <ele>520</ele>
        <time>2024-07-23T16:05:02Z</time>
      </trkpt>
      <trkpt lat="46.10248" lon="6.28986">
        <ele>519</ele>
        <time>2024-07-23T16:05:20Z</time>
      </trkpt>
      <trkpt lat="46.10231" lon="6.28885">
        <ele>520</ele>
        <time>2024-07-23T16:05:33Z</time>
      </trkpt>
      <trkpt lat="46.10228" lon="6.28844">
        <ele>521</ele>
        <time>2024-07-23T16:05:38Z</time>
      </trkpt>
      <trkpt lat="46.10202" lon="6.28781">
        <ele>526</ele>
        <time>2024-07-23T16:05:47Z</time>
      </trkpt>
      <trkpt lat="46.1017" lon="6.2867">
        <ele>532</ele>
        <time>2024-07-23T16:06:02Z</time>
      </trkpt>
      <trkpt lat="46.10145" lon="6.28621">
        <ele>534</ele>
        <time>2024-07-23T16:06:09Z</time>
      </trkpt>
      <trkpt lat="46.10118" lon="6.28586">
        <ele>535</ele>
        <time>2024-07-23T16:06:16Z</time>
      </trkpt>
      <trkpt lat="46.10073" lon="6.28512">
        <ele>541</ele>
        <time>2024-07-23T16:06:28Z</time>
      </trkpt>
      <trkpt lat="46.10067" lon="6.28498">
        <ele>542</ele>
        <time>2024-07-23T16:06:30Z</time>
      </trkpt>
      <trkpt lat="46.10059" lon="6.28486">
        <ele>543</ele>
        <time>2024-07-23T16:06:32Z</time>
      </trkpt>
      <trkpt lat="46.10051" lon="6.28481">
        <ele>543</ele>
        <time>2024-07-23T16:06:33Z</time>
      </trkpt>
      <trkpt lat="46.1002" lon="6.28497">
        <ele>543</ele>
        <time>2024-07-23T16:06:39Z</time>
      </trkpt>
      <trkpt lat="46.10012" lon="6.28498">
        <ele>544</ele>
        <time>2024-07-23T16:06:41Z</time>
      </trkpt>
      <trkpt lat="46.10005" lon="6.28496">
        <ele>544</ele>
        <time>2024-07-23T16:06:42Z</time>
      </trkpt>
      <trkpt lat="46.0999" lon="6.28483">
        <ele>545</ele>
        <time>2024-07-23T16:06:45Z</time>
      </trkpt>
      <trkpt lat="46.09976" lon="6.28462">
        <ele>545</ele>
        <time>2024-07-23T16:06:49Z</time>
      </trkpt>
      <trkpt lat="46.09967" lon="6.28442">
        <ele>546</ele>
        <time>2024-07-23T16:06:52Z</time>
      </trkpt>
      <trkpt lat="46.09967" lon="6.28431">
        <ele>546</ele>
        <time>2024-07-23T16:06:53Z</time>
      </trkpt>
      <trkpt lat="46.0997" lon="6.28422">
        <ele>546</ele>
        <time>2024-07-23T16:06:54Z</time>
      </trkpt>
      <trkpt lat="46.09984" lon="6.28403">
        <ele>546</ele>
        <time>2024-07-23T16:06:58Z</time>
      </trkpt>
      <trkpt lat="46.0999" lon="6.28388">
        <ele>546</ele>
        <time>2024-07-23T16:07:00Z</time>
      </trkpt>
      <trkpt lat="46.09993" lon="6.28373">
        <ele>547</ele>
        <time>2024-07-23T16:07:02Z</time>
      </trkpt>
      <trkpt lat="46.09993" lon="6.28346">
        <ele>547</ele>
        <time>2024-07-23T16:07:05Z</time>
      </trkpt>
      <trkpt lat="46.0999" lon="6.28328">
        <ele>547</ele>
        <time>2024-07-23T16:07:07Z</time>
      </trkpt>
      <trkpt lat="46.09984" lon="6.28316">
        <ele>547</ele>
        <time>2024-07-23T16:07:09Z</time>
      </trkpt>
      <trkpt lat="46.09938" lon="6.28257">
        <ele>548</ele>
        <time>2024-07-23T16:07:20Z</time>
      </trkpt>
      <trkpt lat="46.0993" lon="6.28243">
        <ele>548</ele>
        <time>2024-07-23T16:07:22Z</time>
      </trkpt>
      <trkpt lat="46.09925" lon="6.28229">
        <ele>549</ele>
        <time>2024-07-23T16:07:24Z</time>
      </trkpt>
      <trkpt lat="46.09919" lon="6.28198">
        <ele>549</ele>
        <time>2024-07-23T16:07:28Z</time>
      </trkpt>
      <trkpt lat="46.09961" lon="6.28161">
        <ele>550</ele>
        <time>2024-07-23T16:07:37Z</time>
      </trkpt>
      <trkpt lat="46.09971" lon="6.28155">
        <ele>550</ele>
        <time>2024-07-23T16:07:39Z</time>
      </trkpt>
      <trkpt lat="46.09981" lon="6.28153">
        <ele>550</ele>
        <time>2024-07-23T16:07:41Z</time>
      </trkpt>
      <trkpt lat="46.10001" lon="6.28156">
        <ele>550</ele>
        <time>2024-07-23T16:07:44Z</time>
      </trkpt>
      <trkpt lat="46.10015" lon="6.28151">
        <ele>550</ele>
        <time>2024-07-23T16:07:47Z</time>
      </trkpt>
      <trkpt lat="46.1002" lon="6.28144">
        <ele>551</ele>
        <time>2024-07-23T16:07:48Z</time>
      </trkpt>
      <trkpt lat="46.10028" lon="6.28117">
        <ele>551</ele>
        <time>2024-07-23T16:07:52Z</time>
      </trkpt>
      <trkpt lat="46.1004" lon="6.28104">
        <ele>552</ele>
        <time>2024-07-23T16:07:54Z</time>
      </trkpt>
      <trkpt lat="46.10044" lon="6.28087">
        <ele>552</ele>
        <time>2024-07-23T16:07:57Z</time>
      </trkpt>
      <trkpt lat="46.10041" lon="6.28072">
        <ele>553</ele>
        <time>2024-07-23T16:07:58Z</time>
      </trkpt>
      <trkpt lat="46.10034" lon="6.28062">
        <ele>554</ele>
        <time>2024-07-23T16:08:00Z</time>
      </trkpt>
      <trkpt lat="46.10033" lon="6.28054">
        <ele>554</ele>
        <time>2024-07-23T16:08:01Z</time>
      </trkpt>
      <trkpt lat="46.10044" lon="6.2795">
        <ele>558</ele>
        <time>2024-07-23T16:08:14Z</time>
      </trkpt>
      <trkpt lat="46.10049" lon="6.27926">
        <ele>558</ele>
        <time>2024-07-23T16:08:17Z</time>
      </trkpt>
      <trkpt lat="46.10069" lon="6.27869">
        <ele>559</ele>
        <time>2024-07-23T16:08:25Z</time>
      </trkpt>
      <trkpt lat="46.1008" lon="6.27719">
        <ele>565</ele>
        <time>2024-07-23T16:08:44Z</time>
      </trkpt>
      <trkpt lat="46.10087" lon="6.27697">
        <ele>566</ele>
        <time>2024-07-23T16:08:47Z</time>
      </trkpt>
      <trkpt lat="46.10095" lon="6.27684">
        <ele>566</ele>
        <time>2024-07-23T16:08:49Z</time>
      </trkpt>
      <trkpt lat="46.10108" lon="6.27605">
        <ele>570</ele>
        <time>2024-07-23T16:08:59Z</time>
      </trkpt>
      <trkpt lat="46.10113" lon="6.27526">
        <ele>574</ele>
        <time>2024-07-23T16:09:09Z</time>
      </trkpt>
      <trkpt lat="46.10099" lon="6.27446">
        <ele>577</ele>
        <time>2024-07-23T16:09:19Z</time>
      </trkpt>
      <trkpt lat="46.10095" lon="6.2739">
        <ele>580</ele>
        <time>2024-07-23T16:09:26Z</time>
      </trkpt>
      <trkpt lat="46.10059" lon="6.27275">
        <ele>587</ele>
        <time>2024-07-23T16:09:41Z</time>
      </trkpt>
      <trkpt lat="46.10054" lon="6.27271">
        <ele>587</ele>
        <time>2024-07-23T16:09:42Z</time>
      </trkpt>
      <trkpt lat="46.10034" lon="6.27271">
        <ele>589</ele>
        <time>2024-07-23T16:09:46Z</time>
      </trkpt>
      <trkpt lat="46.10013" lon="6.27276">
        <ele>589</ele>
        <time>2024-07-23T16:09:50Z</time>
      </trkpt>
      <trkpt lat="46.09993" lon="6.27288">
        <ele>590</ele>
        <time>2024-07-23T16:09:54Z</time>
      </trkpt>
      <trkpt lat="46.09957" lon="6.27298">
        <ele>591</ele>
        <time>2024-07-23T16:10:00Z</time>
      </trkpt>
      <trkpt lat="46.09931" lon="6.27329">
        <ele>591</ele>
        <time>2024-07-23T16:10:06Z</time>
      </trkpt>
      <trkpt lat="46.09925" lon="6.27332">
        <ele>591</ele>
        <time>2024-07-23T16:10:07Z</time>
      </trkpt>
      <trkpt lat="46.09919" lon="6.27332">
        <ele>591</ele>
        <time>2024-07-23T16:10:08Z</time>
      </trkpt>
      <trkpt lat="46.09895" lon="6.2732">
        <ele>593</ele>
        <time>2024-07-23T16:10:13Z</time>
      </trkpt>
      <trkpt lat="46.09864" lon="6.27295">
        <ele>597</ele>
        <time>2024-07-23T16:10:19Z</time>
      </trkpt>
      <trkpt lat="46.09842" lon="6.27292">
        <ele>598</ele>
        <time>2024-07-23T16:10:23Z</time>
      </trkpt>
      <trkpt lat="46.09798" lon="6.27289">
        <ele>603</ele>
        <time>2024-07-23T16:10:31Z</time>
      </trkpt>
      <trkpt lat="46.09789" lon="6.27294">
        <ele>604</ele>
        <time>2024-07-23T16:10:33Z</time>
      </trkpt>
      <trkpt lat="46.0977" lon="6.27314">
        <ele>605</ele>
        <time>2024-07-23T16:10:37Z</time>
      </trkpt>
      <trkpt lat="46.09773" lon="6.27265">
        <ele>607</ele>
        <time>2024-07-23T16:10:43Z</time>
      </trkpt>
      <trkpt lat="46.09778" lon="6.27238">
        <ele>609</ele>
        <time>2024-07-23T16:10:46Z</time>
      </trkpt>
      <trkpt lat="46.09791" lon="6.27213">
        <ele>610</ele>
        <time>2024-07-23T16:10:50Z</time>
      </trkpt>
      <trkpt lat="46.0981" lon="6.27189">
        <ele>610</ele>
        <time>2024-07-23T16:10:55Z</time>
      </trkpt>
      <trkpt lat="46.09883" lon="6.2712">
        <ele>610</ele>
        <time>2024-07-23T16:11:10Z</time>
      </trkpt>
      <trkpt lat="46.09903" lon="6.27065">
        <ele>614</ele>
        <time>2024-07-23T16:11:18Z</time>
      </trkpt>
      <trkpt lat="46.09922" lon="6.26999">
        <ele>623</ele>
        <time>2024-07-23T16:11:27Z</time>
      </trkpt>
      <trkpt lat="46.09927" lon="6.26967">
        <ele>627</ele>
        <time>2024-07-23T16:11:31Z</time>
      </trkpt>
      <trkpt lat="46.09928" lon="6.26913">
        <ele>635</ele>
        <time>2024-07-23T16:11:37Z</time>
      </trkpt>
      <trkpt lat="46.09933" lon="6.26895">
        <ele>637</ele>
        <time>2024-07-23T16:11:40Z</time>
      </trkpt>
      <trkpt lat="46.09946" lon="6.26877">
        <ele>638</ele>
        <time>2024-07-23T16:11:43Z</time>
      </trkpt>
      <trkpt lat="46.09954" lon="6.26872">
        <ele>638</ele>
        <time>2024-07-23T16:11:45Z</time>
      </trkpt>
      <trkpt lat="46.09969" lon="6.26869">
        <ele>637</ele>
        <time>2024-07-23T16:11:47Z</time>
      </trkpt>
      <trkpt lat="46.09982" lon="6.2687">
        <ele>636</ele>
        <time>2024-07-23T16:11:50Z</time>
      </trkpt>
      <trkpt lat="46.10022" lon="6.26889">
        <ele>630</ele>
        <time>2024-07-23T16:11:57Z</time>
      </trkpt>
      <trkpt lat="46.10039" lon="6.26891">
        <ele>629</ele>
        <time>2024-07-23T16:12:00Z</time>
      </trkpt>
      <trkpt lat="46.10056" lon="6.26886">
        <ele>628</ele>
        <time>2024-07-23T16:12:03Z</time>
      </trkpt>
      <trkpt lat="46.10214" lon="6.26722">
        <ele>634</ele>
        <time>2024-07-23T16:12:38Z</time>
      </trkpt>
      <trkpt lat="46.10269" lon="6.26643">
        <ele>641</ele>
        <time>2024-07-23T16:12:52Z</time>
      </trkpt>
      <trkpt lat="46.1031" lon="6.26576">
        <ele>643</ele>
        <time>2024-07-23T16:13:03Z</time>
      </trkpt>
      <trkpt lat="46.1032" lon="6.26574">
        <ele>642</ele>
        <time>2024-07-23T16:13:04Z</time>
      </trkpt>
      <trkpt lat="46.1032" lon="6.26551">
        <ele>645</ele>
        <time>2024-07-23T16:13:07Z</time>
      </trkpt>
      <trkpt lat="46.10331" lon="6.26516">
        <ele>648</ele>
        <time>2024-07-23T16:13:12Z</time>
      </trkpt>
      <trkpt lat="46.10349" lon="6.26481">
        <ele>653</ele>
        <time>2024-07-23T16:13:17Z</time>
      </trkpt>
      <trkpt lat="46.10368" lon="6.26468">
        <ele>653</ele>
        <time>2024-07-23T16:13:21Z</time>
      </trkpt>
      <trkpt lat="46.10396" lon="6.26454">
        <ele>652</ele>
        <time>2024-07-23T16:13:26Z</time>
      </trkpt>
      <trkpt lat="46.10411" lon="6.26441">
        <ele>651</ele>
        <time>2024-07-23T16:13:30Z</time>
      </trkpt>
      <trkpt lat="46.10425" lon="6.26421">
        <ele>652</ele>
        <time>2024-07-23T16:13:33Z</time>
      </trkpt>
      <trkpt lat="46.10419" lon="6.26415">
        <ele>653</ele>
        <time>2024-07-23T16:13:34Z</time>
      </trkpt>
      <trkpt lat="46.10413" lon="6.26413">
        <ele>655</ele>
        <time>2024-07-23T16:13:35Z</time>
      </trkpt>
      <trkpt lat="46.10189" lon="6.26412">
        <ele>693</ele>
        <time>2024-07-23T16:14:15Z</time>
      </trkpt>
      <trkpt lat="46.1017" lon="6.26415">
        <ele>697</ele>
        <time>2024-07-23T16:14:19Z</time>
      </trkpt>
      <trkpt lat="46.10135" lon="6.2644">
        <ele>694</ele>
        <time>2024-07-23T16:14:26Z</time>
      </trkpt>
      <trkpt lat="46.10109" lon="6.26469">
        <ele>690</ele>
        <time>2024-07-23T16:14:32Z</time>
      </trkpt>
      <trkpt lat="46.10057" lon="6.26481">
        <ele>693</ele>
        <time>2024-07-23T16:14:41Z</time>
      </trkpt>
      <trkpt lat="46.09992" lon="6.2647">
        <ele>698</ele>
        <time>2024-07-23T16:14:53Z</time>
      </trkpt>
      <trkpt lat="46.09932" lon="6.26448">
        <ele>700</ele>
        <time>2024-07-23T16:15:04Z</time>
      </trkpt>
      <trkpt lat="46.09869" lon="6.2641">
        <ele>701</ele>
        <time>2024-07-23T16:15:16Z</time>
      </trkpt>
      <trkpt lat="46.098" lon="6.2636">
        <ele>705</ele>
        <time>2024-07-23T16:15:29Z</time>
      </trkpt>
      <trkpt lat="46.09724" lon="6.26284">
        <ele>715</ele>
        <time>2024-07-23T16:15:46Z</time>
      </trkpt>
      <trkpt lat="46.09675" lon="6.26242">
        <ele>716</ele>
        <time>2024-07-23T16:15:56Z</time>
      </trkpt>
      <trkpt lat="46.09657" lon="6.2623">
        <ele>719</ele>
        <time>2024-07-23T16:16:00Z</time>
      </trkpt>
      <trkpt lat="46.09565" lon="6.26198">
        <ele>731</ele>
        <time>2024-07-23T16:16:16Z</time>
      </trkpt>
      <trkpt lat="46.09551" lon="6.26185">
        <ele>732</ele>
        <time>2024-07-23T16:16:19Z</time>
      </trkpt>
      <trkpt lat="46.09542" lon="6.26168">
        <ele>733</ele>
        <time>2024-07-23T16:16:22Z</time>
      </trkpt>
      <trkpt lat="46.09531" lon="6.26127">
        <ele>738</ele>
        <time>2024-07-23T16:16:27Z</time>
      </trkpt>
      <trkpt lat="46.09532" lon="6.26112">
        <ele>740</ele>
        <time>2024-07-23T16:16:29Z</time>
      </trkpt>
      <trkpt lat="46.09537" lon="6.26105">
        <ele>740</ele>
        <time>2024-07-23T16:16:31Z</time>
      </trkpt>
      <trkpt lat="46.09544" lon="6.26103">
        <ele>740</ele>
        <time>2024-07-23T16:16:32Z</time>
      </trkpt>
      <trkpt lat="46.09563" lon="6.26105">
        <ele>740</ele>
        <time>2024-07-23T16:16:35Z</time>
      </trkpt>
      <trkpt lat="46.09591" lon="6.26113">
        <ele>738</ele>
        <time>2024-07-23T16:16:40Z</time>
      </trkpt>
      <trkpt lat="46.09606" lon="6.26111">
        <ele>738</ele>
        <time>2024-07-23T16:16:43Z</time>
      </trkpt>
      <trkpt lat="46.09643" lon="6.26088">
        <ele>742</ele>
        <time>2024-07-23T16:16:50Z</time>
      </trkpt>
      <trkpt lat="46.09664" lon="6.2607">
        <ele>746</ele>
        <time>2024-07-23T16:16:54Z</time>
      </trkpt>
      <trkpt lat="46.09714" lon="6.26052">
        <ele>749</ele>
        <time>2024-07-23T16:17:04Z</time>
      </trkpt>
      <trkpt lat="46.09752" lon="6.26044">
        <ele>751</ele>
        <time>2024-07-23T16:17:10Z</time>
      </trkpt>
      <trkpt lat="46.0978" lon="6.26016">
        <ele>754</ele>
        <time>2024-07-23T16:17:17Z</time>
      </trkpt>
      <trkpt lat="46.09819" lon="6.25956">
        <ele>760</ele>
        <time>2024-07-23T16:17:27Z</time>
      </trkpt>
      <trkpt lat="46.09835" lon="6.25899">
        <ele>767</ele>
        <time>2024-07-23T16:17:34Z</time>
      </trkpt>
      <trkpt lat="46.09832" lon="6.25884">
        <ele>769</ele>
        <time>2024-07-23T16:17:36Z</time>
      </trkpt>
      <trkpt lat="46.09824" lon="6.25876">
        <ele>771</ele>
        <time>2024-07-23T16:17:38Z</time>
      </trkpt>
      <trkpt lat="46.09811" lon="6.25875">
        <ele>772</ele>
        <time>2024-07-23T16:17:40Z</time>
      </trkpt>
      <trkpt lat="46.09762" lon="6.25898">
        <ele>774</ele>
        <time>2024-07-23T16:17:49Z</time>
      </trkpt>
      <trkpt lat="46.09741" lon="6.25903">
        <ele>774</ele>
        <time>2024-07-23T16:17:53Z</time>
      </trkpt>
      <trkpt lat="46.09725" lon="6.25897">
        <ele>775</ele>
        <time>2024-07-23T16:17:56Z</time>
      </trkpt>
      <trkpt lat="46.09711" lon="6.25879">
        <ele>777</ele>
        <time>2024-07-23T16:17:59Z</time>
      </trkpt>
      <trkpt lat="46.09638" lon="6.25742">
        <ele>792</ele>
        <time>2024-07-23T16:18:21Z</time>
      </trkpt>
      <trkpt lat="46.09603" lon="6.25666">
        <ele>801</ele>
        <time>2024-07-23T16:18:32Z</time>
      </trkpt>
      <trkpt lat="46.09564" lon="6.25549">
        <ele>811</ele>
        <time>2024-07-23T16:18:48Z</time>
      </trkpt>
      <trkpt lat="46.09552" lon="6.2552">
        <ele>814</ele>
        <time>2024-07-23T16:18:52Z</time>
      </trkpt>
      <trkpt lat="46.09529" lon="6.25476">
        <ele>817</ele>
        <time>2024-07-23T16:18:59Z</time>
      </trkpt>
      <trkpt lat="46.09485" lon="6.25413">
        <ele>822</ele>
        <time>2024-07-23T16:19:10Z</time>
      </trkpt>
      <trkpt lat="46.09443" lon="6.2536">
        <ele>826</ele>
        <time>2024-07-23T16:19:20Z</time>
      </trkpt>
      <trkpt lat="46.09413" lon="6.25316">
        <ele>830</ele>
        <time>2024-07-23T16:19:28Z</time>
      </trkpt>
      <trkpt lat="46.09353" lon="6.25245">
        <ele>836</ele>
        <time>2024-07-23T16:19:41Z</time>
      </trkpt>
      <trkpt lat="46.09282" lon="6.25143">
        <ele>844</ele>
        <time>2024-07-23T16:19:59Z</time>
      </trkpt>
      <trkpt lat="46.09172" lon="6.25064">
        <ele>853</ele>
        <time>2024-07-23T16:20:21Z</time>
      </trkpt>
      <trkpt lat="46.09148" lon="6.25042">
        <ele>855</ele>
        <time>2024-07-23T16:20:26Z</time>
      </trkpt>
      <trkpt lat="46.0913" lon="6.25019">
        <ele>858</ele>
        <time>2024-07-23T16:20:30Z</time>
      </trkpt>
      <trkpt lat="46.09104" lon="6.24978">
        <ele>859</ele>
        <time>2024-07-23T16:20:37Z</time>
      </trkpt>
      <trkpt lat="46.09071" lon="6.24868">
        <ele>860</ele>
        <time>2024-07-23T16:20:52Z</time>
      </trkpt>
      <trkpt lat="46.09025" lon="6.24783">
        <ele>865</ele>
        <time>2024-07-23T16:21:05Z</time>
      </trkpt>
      <trkpt lat="46.08994" lon="6.24716">
        <ele>871</ele>
        <time>2024-07-23T16:21:15Z</time>
      </trkpt>
      <trkpt lat="46.08974" lon="6.2469">
        <ele>873</ele>
        <time>2024-07-23T16:21:20Z</time>
      </trkpt>
      <trkpt lat="46.08897" lon="6.24654">
        <ele>878</ele>
        <time>2024-07-23T16:21:35Z</time>
      </trkpt>
      <trkpt lat="46.08845" lon="6.24626">
        <ele>882</ele>
        <time>2024-07-23T16:21:44Z</time>
      </trkpt>
      <trkpt lat="46.08826" lon="6.24604">
        <ele>882</ele>
        <time>2024-07-23T16:21:49Z</time>
      </trkpt>
      <trkpt lat="46.08773" lon="6.24514">
        <ele>881</ele>
        <time>2024-07-23T16:22:03Z</time>
      </trkpt>
      <trkpt lat="46.08728" lon="6.2446">
        <ele>882</ele>
        <time>2024-07-23T16:22:14Z</time>
      </trkpt>
      <trkpt lat="46.08693" lon="6.24438">
        <ele>882</ele>
        <time>2024-07-23T16:22:21Z</time>
      </trkpt>
      <trkpt lat="46.08653" lon="6.24432">
        <ele>882</ele>
        <time>2024-07-23T16:22:28Z</time>
      </trkpt>
      <trkpt lat="46.08559" lon="6.24397">
        <ele>883</ele>
        <time>2024-07-23T16:22:45Z</time>
      </trkpt>
      <trkpt lat="46.08534" lon="6.2439">
        <ele>884</ele>
        <time>2024-07-23T16:22:49Z</time>
      </trkpt>
      <trkpt lat="46.08488" lon="6.24371">
        <ele>885</ele>
        <time>2024-07-23T16:22:58Z</time>
      </trkpt>
      <trkpt lat="46.08452" lon="6.24352">
        <ele>884</ele>
        <time>2024-07-23T16:23:05Z</time>
      </trkpt>
      <trkpt lat="46.08429" lon="6.24344">
        <ele>884</ele>
        <time>2024-07-23T16:23:09Z</time>
      </trkpt>
      <trkpt lat="46.08381" lon="6.24345">
        <ele>886</ele>
        <time>2024-07-23T16:23:18Z</time>
      </trkpt>
      <trkpt lat="46.08238" lon="6.24335">
        <ele>893</ele>
        <time>2024-07-23T16:23:43Z</time>
      </trkpt>
      <trkpt lat="46.08187" lon="6.24319">
        <ele>896</ele>
        <time>2024-07-23T16:23:52Z</time>
      </trkpt>
      <trkpt lat="46.08085" lon="6.24299">
        <ele>897</ele>
        <time>2024-07-23T16:24:11Z</time>
      </trkpt>
      <trkpt lat="46.08037" lon="6.24303">
        <ele>900</ele>
        <time>2024-07-23T16:24:19Z</time>
      </trkpt>
      <trkpt lat="46.0795" lon="6.24316">
        <ele>905</ele>
        <time>2024-07-23T16:24:35Z</time>
      </trkpt>
      <trkpt lat="46.07823" lon="6.24344">
        <ele>907</ele>
        <time>2024-07-23T16:24:58Z</time>
      </trkpt>
      <trkpt lat="46.07812" lon="6.24351">
        <ele>906</ele>
        <time>2024-07-23T16:25:00Z</time>
      </trkpt>
      <trkpt lat="46.07801" lon="6.24354">
        <ele>906</ele>
        <time>2024-07-23T16:25:02Z</time>
      </trkpt>
      <trkpt lat="46.0779" lon="6.24354">
        <ele>906</ele>
        <time>2024-07-23T16:25:04Z</time>
      </trkpt>
      <trkpt lat="46.07724" lon="6.2434">
        <ele>910</ele>
        <time>2024-07-23T16:25:16Z</time>
      </trkpt>
      <trkpt lat="46.07684" lon="6.24324">
        <ele>917</ele>
        <time>2024-07-23T16:25:23Z</time>
      </trkpt>
      <trkpt lat="46.07677" lon="6.24318">
        <ele>919</ele>
        <time>2024-07-23T16:25:24Z</time>
      </trkpt>
      <trkpt lat="46.07664" lon="6.24291">
        <ele>922</ele>
        <time>2024-07-23T16:25:28Z</time>
      </trkpt>
      <trkpt lat="46.07662" lon="6.24077">
        <ele>932</ele>
        <time>2024-07-23T16:25:55Z</time>
      </trkpt>
      <trkpt lat="46.0766" lon="6.24052">
        <ele>931</ele>
        <time>2024-07-23T16:25:58Z</time>
      </trkpt>
      <trkpt lat="46.07656" lon="6.24041">
        <ele>930</ele>
        <time>2024-07-23T16:26:00Z</time>
      </trkpt>
      <trkpt lat="46.07634" lon="6.24012">
        <ele>929</ele>
        <time>2024-07-23T16:26:05Z</time>
      </trkpt>
      <trkpt lat="46.07624" lon="6.24003">
        <ele>928</ele>
        <time>2024-07-23T16:26:07Z</time>
      </trkpt>
      <trkpt lat="46.07612" lon="6.23999">
        <ele>928</ele>
        <time>2024-07-23T16:26:09Z</time>
      </trkpt>
      <trkpt lat="46.07528" lon="6.23991">
        <ele>930</ele>
        <time>2024-07-23T16:26:24Z</time>
      </trkpt>
      <trkpt lat="46.07362" lon="6.23984">
        <ele>941</ele>
        <time>2024-07-23T16:26:54Z</time>
      </trkpt>
      <trkpt lat="46.07346" lon="6.23988">
        <ele>943</ele>
        <time>2024-07-23T16:26:57Z</time>
      </trkpt>
      <trkpt lat="46.07334" lon="6.23998">
        <ele>944</ele>
        <time>2024-07-23T16:26:59Z</time>
      </trkpt>
      <trkpt lat="46.07326" lon="6.24009">
        <ele>944</ele>
        <time>2024-07-23T16:27:01Z</time>
      </trkpt>
      <trkpt lat="46.07317" lon="6.24016">
        <ele>944</ele>
        <time>2024-07-23T16:27:03Z</time>
      </trkpt>
      <trkpt lat="46.0731" lon="6.24016">
        <ele>944</ele>
        <time>2024-07-23T16:27:04Z</time>
      </trkpt>
      <trkpt lat="46.07259" lon="6.24011">
        <ele>944</ele>
        <time>2024-07-23T16:27:13Z</time>
      </trkpt>
      <trkpt lat="46.07199" lon="6.23993">
        <ele>946</ele>
        <time>2024-07-23T16:27:24Z</time>
      </trkpt>
      <trkpt lat="46.07146" lon="6.23964">
        <ele>947</ele>
        <time>2024-07-23T16:27:34Z</time>
      </trkpt>
      <trkpt lat="46.07141" lon="6.23971">
        <ele>948</ele>
        <time>2024-07-23T16:27:35Z</time>
      </trkpt>
      <trkpt lat="46.07146" lon="6.23964">
        <ele>947</ele>
        <time>2024-07-23T16:27:37Z</time>
      </trkpt>
      <trkpt lat="46.07144" lon="6.23956">
        <ele>947</ele>
        <time>2024-07-23T16:27:38Z</time>
      </trkpt>
      <trkpt lat="46.0714" lon="6.23952">
        <ele>947</ele>
        <time>2024-07-23T16:27:39Z</time>
      </trkpt>
      <trkpt lat="46.07143" lon="6.23829">
        <ele>944</ele>
        <time>2024-07-23T16:27:54Z</time>
      </trkpt>
      <trkpt lat="46.07128" lon="6.23788">
        <ele>944</ele>
        <time>2024-07-23T16:27:59Z</time>
      </trkpt>
      <trkpt lat="46.07117" lon="6.23772">
        <ele>944</ele>
        <time>2024-07-23T16:28:02Z</time>
      </trkpt>
      <trkpt lat="46.07068" lon="6.23728">
        <ele>943</ele>
        <time>2024-07-23T16:28:12Z</time>
      </trkpt>
      <trkpt lat="46.07062" lon="6.23714">
        <ele>943</ele>
        <time>2024-07-23T16:28:15Z</time>
      </trkpt>
      <trkpt lat="46.07057" lon="6.23692">
        <ele>943</ele>
        <time>2024-07-23T16:28:17Z</time>
      </trkpt>
      <trkpt lat="46.07049" lon="6.23628">
        <ele>943</ele>
        <time>2024-07-23T16:28:25Z</time>
      </trkpt>
      <trkpt lat="46.07047" lon="6.23605">
        <ele>943</ele>
        <time>2024-07-23T16:28:28Z</time>
      </trkpt>
      <trkpt lat="46.07061" lon="6.23495">
        <ele>945</ele>
        <time>2024-07-23T16:28:42Z</time>
      </trkpt>
      <trkpt lat="46.07066" lon="6.23382">
        <ele>942</ele>
        <time>2024-07-23T16:28:56Z</time>
      </trkpt>
      <trkpt lat="46.07082" lon="6.23261">
        <ele>945</ele>
        <time>2024-07-23T16:29:11Z</time>
      </trkpt>
      <trkpt lat="46.07092" lon="6.23047">
        <ele>933</ele>
        <time>2024-07-23T16:29:38Z</time>
      </trkpt>
      <trkpt lat="46.07064" lon="6.22924">
        <ele>922</ele>
        <time>2024-07-23T16:29:54Z</time>
      </trkpt>
      <trkpt lat="46.07041" lon="6.22836">
        <ele>917</ele>
        <time>2024-07-23T16:30:05Z</time>
      </trkpt>
      <trkpt lat="46.07034" lon="6.22818">
        <ele>917</ele>
        <time>2024-07-23T16:30:08Z</time>
      </trkpt>
      <trkpt lat="46.07073" lon="6.22772">
        <ele>915</ele>
        <time>2024-07-23T16:30:17Z</time>
      </trkpt>
      <trkpt lat="46.07139" lon="6.22706">
        <ele>904</ele>
        <time>2024-07-23T16:30:31Z</time>
      </trkpt>
      <trkpt lat="46.07169" lon="6.22662">
        <ele>899</ele>
        <time>2024-07-23T16:30:39Z</time>
      </trkpt>
      <trkpt lat="46.07253" lon="6.22739">
        <ele>898</ele>
        <time>2024-07-23T16:30:56Z</time>
      </trkpt>
      <trkpt lat="46.07402" lon="6.22903">
        <ele>891</ele>
        <time>2024-07-23T16:31:30Z</time>
      </trkpt>
      <trkpt lat="46.07412" lon="6.22909">
        <ele>891</ele>
        <time>2024-07-23T16:31:32Z</time>
      </trkpt>
      <trkpt lat="46.07423" lon="6.2291">
        <ele>890</ele>
        <time>2024-07-23T16:31:34Z</time>
      </trkpt>
      <trkpt lat="46.07461" lon="6.22903">
        <ele>886</ele>
        <time>2024-07-23T16:31:41Z</time>
      </trkpt>
      <trkpt lat="46.07484" lon="6.22903">
        <ele>884</ele>
        <time>2024-07-23T16:31:45Z</time>
      </trkpt>
      <trkpt lat="46.0752" lon="6.22911">
        <ele>881</ele>
        <time>2024-07-23T16:31:51Z</time>
      </trkpt>
      <trkpt lat="46.07534" lon="6.22922">
        <ele>880</ele>
        <time>2024-07-23T16:31:54Z</time>
      </trkpt>
      <trkpt lat="46.0755" lon="6.22943">
        <ele>878</ele>
        <time>2024-07-23T16:31:58Z</time>
      </trkpt>
      <trkpt lat="46.07591" lon="6.23022">
        <ele>880</ele>
        <time>2024-07-23T16:32:10Z</time>
      </trkpt>
      <trkpt lat="46.07606" lon="6.23045">
        <ele>881</ele>
        <time>2024-07-23T16:32:14Z</time>
      </trkpt>
      <trkpt lat="46.07651" lon="6.23103">
        <ele>881</ele>
        <time>2024-07-23T16:32:25Z</time>
      </trkpt>
      <trkpt lat="46.07659" lon="6.23108">
        <ele>880</ele>
        <time>2024-07-23T16:32:26Z</time>
      </trkpt>
      <trkpt lat="46.07668" lon="6.23107">
        <ele>879</ele>
        <time>2024-07-23T16:32:28Z</time>
      </trkpt>
      <trkpt lat="46.07674" lon="6.23096">
        <ele>878</ele>
        <time>2024-07-23T16:32:29Z</time>
      </trkpt>
      <trkpt lat="46.07673" lon="6.23081">
        <ele>876</ele>
        <time>2024-07-23T16:32:31Z</time>
      </trkpt>
      <trkpt lat="46.07658" lon="6.23028">
        <ele>872</ele>
        <time>2024-07-23T16:32:38Z</time>
      </trkpt>
      <trkpt lat="46.07654" lon="6.22977">
        <ele>867</ele>
        <time>2024-07-23T16:32:45Z</time>
      </trkpt>
      <trkpt lat="46.07641" lon="6.2294">
        <ele>866</ele>
        <time>2024-07-23T16:32:50Z</time>
      </trkpt>
      <trkpt lat="46.07639" lon="6.22926">
        <ele>865</ele>
        <time>2024-07-23T16:32:52Z</time>
      </trkpt>
      <trkpt lat="46.07645" lon="6.22912">
        <ele>863</ele>
        <time>2024-07-23T16:32:54Z</time>
      </trkpt>
      <trkpt lat="46.07655" lon="6.22911">
        <ele>861</ele>
        <time>2024-07-23T16:32:55Z</time>
      </trkpt>
      <trkpt lat="46.07668" lon="6.2292">
        <ele>860</ele>
        <time>2024-07-23T16:32:58Z</time>
      </trkpt>
      <trkpt lat="46.0769" lon="6.22946">
        <ele>862</ele>
        <time>2024-07-23T16:33:03Z</time>
      </trkpt>
      <trkpt lat="46.07717" lon="6.22956">
        <ele>862</ele>
        <time>2024-07-23T16:33:08Z</time>
      </trkpt>
      <trkpt lat="46.07736" lon="6.22981">
        <ele>864</ele>
        <time>2024-07-23T16:33:13Z</time>
      </trkpt>
      <trkpt lat="46.07761" lon="6.2299">
        <ele>863</ele>
        <time>2024-07-23T16:33:17Z</time>
      </trkpt>
      <trkpt lat="46.07797" lon="6.22986">
        <ele>858</ele>
        <time>2024-07-23T16:33:24Z</time>
      </trkpt>
      <trkpt lat="46.07838" lon="6.22977">
        <ele>852</ele>
        <time>2024-07-23T16:33:31Z</time>
      </trkpt>
      <trkpt lat="46.07887" lon="6.22993">
        <ele>849</ele>
        <time>2024-07-23T16:33:40Z</time>
      </trkpt>
      <trkpt lat="46.07899" lon="6.23003">
        <ele>849</ele>
        <time>2024-07-23T16:33:42Z</time>
      </trkpt>
      <trkpt lat="46.0789" lon="6.23007">
        <ele>850</ele>
        <time>2024-07-23T16:33:44Z</time>
      </trkpt>
      <trkpt lat="46.07899" lon="6.23003">
        <ele>849</ele>
        <time>2024-07-23T16:33:46Z</time>
      </trkpt>
      <trkpt lat="46.07912" lon="6.23007">
        <ele>848</ele>
        <time>2024-07-23T16:33:48Z</time>
      </trkpt>
      <trkpt lat="46.07961" lon="6.2305">
        <ele>848</ele>
        <time>2024-07-23T16:33:58Z</time>
      </trkpt>
      <trkpt lat="46.08025" lon="6.23053">
        <ele>845</ele>
        <time>2024-07-23T16:34:10Z</time>
      </trkpt>
      <trkpt lat="46.0807" lon="6.2306">
        <ele>844</ele>
        <time>2024-07-23T16:34:18Z</time>
      </trkpt>
      <trkpt lat="46.08086" lon="6.23054">
        <ele>842</ele>
        <time>2024-07-23T16:34:21Z</time>
      </trkpt>
      <trkpt lat="46.08107" lon="6.23041">
        <ele>838</ele>
        <time>2024-07-23T16:34:25Z</time>
      </trkpt>
      <trkpt lat="46.08132" lon="6.23033">
        <ele>835</ele>
        <time>2024-07-23T16:34:29Z</time>
      </trkpt>
      <trkpt lat="46.08159" lon="6.23038">
        <ele>834</ele>
        <time>2024-07-23T16:34:34Z</time>
      </trkpt>
      <trkpt lat="46.08184" lon="6.23051">
        <ele>832</ele>
        <time>2024-07-23T16:34:39Z</time>
      </trkpt>
      <trkpt lat="46.08208" lon="6.2308">
        <ele>832</ele>
        <time>2024-07-23T16:34:44Z</time>
      </trkpt>
      <trkpt lat="46.08225" lon="6.23106">
        <ele>832</ele>
        <time>2024-07-23T16:34:49Z</time>
      </trkpt>
      <trkpt lat="46.08246" lon="6.23129">
        <ele>832</ele>
        <time>2024-07-23T16:34:54Z</time>
      </trkpt>
      <trkpt lat="46.08272" lon="6.23138">
        <ele>831</ele>
        <time>2024-07-23T16:34:58Z</time>
      </trkpt>
      <trkpt lat="46.08359" lon="6.2314">
        <ele>824</ele>
        <time>2024-07-23T16:35:14Z</time>
      </trkpt>
      <trkpt lat="46.08381" lon="6.23134">
        <ele>822</ele>
        <time>2024-07-23T16:35:18Z</time>
      </trkpt>
      <trkpt lat="46.08461" lon="6.23058">
        <ele>813</ele>
        <time>2024-07-23T16:35:35Z</time>
      </trkpt>
      <trkpt lat="46.08508" lon="6.23035">
        <ele>810</ele>
        <time>2024-07-23T16:35:44Z</time>
      </trkpt>
      <trkpt lat="46.08513" lon="6.23028">
        <ele>809</ele>
        <time>2024-07-23T16:35:45Z</time>
      </trkpt>
      <trkpt lat="46.08515" lon="6.23018">
        <ele>808</ele>
        <time>2024-07-23T16:35:46Z</time>
      </trkpt>
      <trkpt lat="46.08509" lon="6.23007">
        <ele>807</ele>
        <time>2024-07-23T16:35:48Z</time>
      </trkpt>
      <trkpt lat="46.08498" lon="6.23001">
        <ele>806</ele>
        <time>2024-07-23T16:35:50Z</time>
      </trkpt>
      <trkpt lat="46.08472" lon="6.23007">
        <ele>808</ele>
        <time>2024-07-23T16:35:55Z</time>
      </trkpt>
      <trkpt lat="46.0845" lon="6.22993">
        <ele>808</ele>
        <time>2024-07-23T16:35:59Z</time>
      </trkpt>
      <trkpt lat="46.08425" lon="6.22966">
        <ele>808</ele>
        <time>2024-07-23T16:36:05Z</time>
      </trkpt>
      <trkpt lat="46.08407" lon="6.22964">
        <ele>808</ele>
        <time>2024-07-23T16:36:08Z</time>
      </trkpt>
      <trkpt lat="46.08386" lon="6.2297">
        <ele>810</ele>
        <time>2024-07-23T16:36:12Z</time>
      </trkpt>
      <trkpt lat="46.08362" lon="6.22948">
        <ele>810</ele>
        <time>2024-07-23T16:36:17Z</time>
      </trkpt>
      <trkpt lat="46.0834" lon="6.22914">
        <ele>809</ele>
        <time>2024-07-23T16:36:22Z</time>
      </trkpt>
      <trkpt lat="46.08332" lon="6.22882">
        <ele>807</ele>
        <time>2024-07-23T16:36:27Z</time>
      </trkpt>
      <trkpt lat="46.08337" lon="6.2284">
        <ele>805</ele>
        <time>2024-07-23T16:36:32Z</time>
      </trkpt>
      <trkpt lat="46.08345" lon="6.22807">
        <ele>804</ele>
        <time>2024-07-23T16:36:36Z</time>
      </trkpt>
      <trkpt lat="46.0839" lon="6.22692">
        <ele>805</ele>
        <time>2024-07-23T16:36:52Z</time>
      </trkpt>
      <trkpt lat="46.08394" lon="6.22674">
        <ele>805</ele>
        <time>2024-07-23T16:36:55Z</time>
      </trkpt>
      <trkpt lat="46.08392" lon="6.22638">
        <ele>806</ele>
        <time>2024-07-23T16:36:59Z</time>
      </trkpt>
      <trkpt lat="46.08377" lon="6.22578">
        <ele>806</ele>
        <time>2024-07-23T16:37:07Z</time>
      </trkpt>
      <trkpt lat="46.08375" lon="6.22539">
        <ele>806</ele>
        <time>2024-07-23T16:37:12Z</time>
      </trkpt>
      <trkpt lat="46.08324" lon="6.22499">
        <ele>809</ele>
        <time>2024-07-23T16:37:22Z</time>
      </trkpt>
      <trkpt lat="46.0828" lon="6.22475">
        <ele>815</ele>
        <time>2024-07-23T16:37:31Z</time>
      </trkpt>
      <trkpt lat="46.08239" lon="6.22462">
        <ele>819</ele>
        <time>2024-07-23T16:37:38Z</time>
      </trkpt>
      <trkpt lat="46.08214" lon="6.22435">
        <ele>823</ele>
        <time>2024-07-23T16:37:44Z</time>
      </trkpt>
      <trkpt lat="46.08195" lon="6.22402">
        <ele>826</ele>
        <time>2024-07-23T16:37:49Z</time>
      </trkpt>
      <trkpt lat="46.08082" lon="6.22319">
        <ele>842</ele>
        <time>2024-07-23T16:38:12Z</time>
      </trkpt>
      <trkpt lat="46.08003" lon="6.22246">
        <ele>851</ele>
        <time>2024-07-23T16:38:28Z</time>
      </trkpt>
      <trkpt lat="46.07958" lon="6.22211">
        <ele>854</ele>
        <time>2024-07-23T16:38:37Z</time>
      </trkpt>
      <trkpt lat="46.07932" lon="6.22176">
        <ele>856</ele>
        <time>2024-07-23T16:38:44Z</time>
      </trkpt>
      <trkpt lat="46.07902" lon="6.22113">
        <ele>859</ele>
        <time>2024-07-23T16:38:53Z</time>
      </trkpt>
      <trkpt lat="46.07802" lon="6.21975">
        <ele>872</ele>
        <time>2024-07-23T16:39:18Z</time>
      </trkpt>
      <trkpt lat="46.07716" lon="6.21882">
        <ele>881</ele>
        <time>2024-07-23T16:39:37Z</time>
      </trkpt>
      <trkpt lat="46.07682" lon="6.21822">
        <ele>885</ele>
        <time>2024-07-23T16:39:46Z</time>
      </trkpt>
      <trkpt lat="46.07657" lon="6.21761">
        <ele>887</ele>
        <time>2024-07-23T16:39:55Z</time>
      </trkpt>
      <trkpt lat="46.07666" lon="6.21711">
        <ele>888</ele>
        <time>2024-07-23T16:40:02Z</time>
      </trkpt>
      <trkpt lat="46.07683" lon="6.21641">
        <ele>889</ele>
        <time>2024-07-23T16:40:11Z</time>
      </trkpt>
      <trkpt lat="46.07688" lon="6.21577">
        <ele>890</ele>
        <time>2024-07-23T16:40:19Z</time>
      </trkpt>
      <trkpt lat="46.07659" lon="6.21383">
        <ele>895</ele>
        <time>2024-07-23T16:40:43Z</time>
      </trkpt>
      <trkpt lat="46.07659" lon="6.21359">
        <ele>896</ele>
        <time>2024-07-23T16:40:46Z</time>
      </trkpt>
      <trkpt lat="46.07663" lon="6.21335">
        <ele>897</ele>
        <time>2024-07-23T16:40:49Z</time>
      </trkpt>
      <trkpt lat="46.07699" lon="6.21225">
        <ele>902</ele>
        <time>2024-07-23T16:41:04Z</time>
      </trkpt>
      <trkpt lat="46.07703" lon="6.21203">
        <ele>903</ele>
        <time>2024-07-23T16:41:07Z</time>
      </trkpt>
      <trkpt lat="46.07702" lon="6.21181">
        <ele>903</ele>
        <time>2024-07-23T16:41:10Z</time>
      </trkpt>
      <trkpt lat="46.0768" lon="6.21059">
        <ele>908</ele>
        <time>2024-07-23T16:41:25Z</time>
      </trkpt>
      <trkpt lat="46.07681" lon="6.21047">
        <ele>908</ele>
        <time>2024-07-23T16:41:27Z</time>
      </trkpt>
      <trkpt lat="46.07626" lon="6.21059">
        <ele>912</ele>
        <time>2024-07-23T16:41:37Z</time>
      </trkpt>
      <trkpt lat="46.07551" lon="6.2106">
        <ele>916</ele>
        <time>2024-07-23T16:41:50Z</time>
      </trkpt>
      <trkpt lat="46.07464" lon="6.21066">
        <ele>919</ele>
        <time>2024-07-23T16:42:05Z</time>
      </trkpt>
      <trkpt lat="46.07422" lon="6.21056">
        <ele>921</ele>
        <time>2024-07-23T16:42:13Z</time>
      </trkpt>
      <trkpt lat="46.07381" lon="6.21023">
        <ele>922</ele>
        <time>2024-07-23T16:42:21Z</time>
      </trkpt>
      <trkpt lat="46.07336" lon="6.20994">
        <ele>924</ele>
        <time>2024-07-23T16:42:30Z</time>
      </trkpt>
      <trkpt lat="46.07263" lon="6.2094">
        <ele>931</ele>
        <time>2024-07-23T16:42:45Z</time>
      </trkpt>
      <trkpt lat="46.07212" lon="6.2092">
        <ele>932</ele>
        <time>2024-07-23T16:42:54Z</time>
      </trkpt>
      <trkpt lat="46.07179" lon="6.209">
        <ele>932</ele>
        <time>2024-07-23T16:43:01Z</time>
      </trkpt>
      <trkpt lat="46.07148" lon="6.20877">
        <ele>932</ele>
        <time>2024-07-23T16:43:07Z</time>
      </trkpt>
      <trkpt lat="46.07084" lon="6.20814">
        <ele>931</ele>
        <time>2024-07-23T16:43:21Z</time>
      </trkpt>
      <trkpt lat="46.0704" lon="6.20783">
        <ele>931</ele>
        <time>2024-07-23T16:43:29Z</time>
      </trkpt>
      <trkpt lat="46.07018" lon="6.20774">
        <ele>931</ele>
        <time>2024-07-23T16:43:33Z</time>
      </trkpt>
      <trkpt lat="46.07008" lon="6.20773">
        <ele>931</ele>
        <time>2024-07-23T16:43:35Z</time>
      </trkpt>
      <trkpt lat="46.0699" lon="6.20773">
        <ele>931</ele>
        <time>2024-07-23T16:43:38Z</time>
      </trkpt>
      <trkpt lat="46.06964" lon="6.20777">
        <ele>931</ele>
        <time>2024-07-23T16:43:43Z</time>
      </trkpt>
      <trkpt lat="46.06917" lon="6.20797">
        <ele>930</ele>
        <time>2024-07-23T16:43:52Z</time>
      </trkpt>
      <trkpt lat="46.06833" lon="6.20921">
        <ele>929</ele>
        <time>2024-07-23T16:44:13Z</time>
      </trkpt>
      <trkpt lat="46.06811" lon="6.20947">
        <ele>929</ele>
        <time>2024-07-23T16:44:18Z</time>
      </trkpt>
      <trkpt lat="46.06772" lon="6.20975">
        <ele>929</ele>
        <time>2024-07-23T16:44:26Z</time>
      </trkpt>
      <trkpt lat="46.06684" lon="6.21014">
        <ele>924</ele>
        <time>2024-07-23T16:44:42Z</time>
      </trkpt>
      <trkpt lat="46.06663" lon="6.21039">
        <ele>923</ele>
        <time>2024-07-23T16:44:47Z</time>
      </trkpt>
      <trkpt lat="46.06652" lon="6.21066">
        <ele>923</ele>
        <time>2024-07-23T16:44:51Z</time>
      </trkpt>
      <trkpt lat="46.06646" lon="6.21107">
        <ele>923</ele>
        <time>2024-07-23T16:44:56Z</time>
      </trkpt>
      <trkpt lat="46.06652" lon="6.21169">
        <ele>923</ele>
        <time>2024-07-23T16:45:04Z</time>
      </trkpt>
      <trkpt lat="46.0665" lon="6.21201">
        <ele>924</ele>
        <time>2024-07-23T16:45:08Z</time>
      </trkpt>
      <trkpt lat="46.06641" lon="6.21224">
        <ele>923</ele>
        <time>2024-07-23T16:45:11Z</time>
      </trkpt>
      <trkpt lat="46.06619" lon="6.21244">
        <ele>922</ele>
        <time>2024-07-23T16:45:16Z</time>
      </trkpt>
      <trkpt lat="46.06555" lon="6.2124">
        <ele>920</ele>
        <time>2024-07-23T16:45:27Z</time>
      </trkpt>
      <trkpt lat="46.06526" lon="6.21249">
        <ele>919</ele>
        <time>2024-07-23T16:45:32Z</time>
      </trkpt>
      <trkpt lat="46.06507" lon="6.21258">
        <ele>919</ele>
        <time>2024-07-23T16:45:36Z</time>
      </trkpt>
      <trkpt lat="46.06267" lon="6.21081">
        <ele>920</ele>
        <time>2024-07-23T16:46:24Z</time>
      </trkpt>
      <trkpt lat="46.06235" lon="6.21052">
        <ele>921</ele>
        <time>2024-07-23T16:46:31Z</time>
      </trkpt>
      <trkpt lat="46.06212" lon="6.21016">
        <ele>922</ele>
        <time>2024-07-23T16:46:37Z</time>
      </trkpt>
      <trkpt lat="46.06129" lon="6.20804">
        <ele>925</ele>
        <time>2024-07-23T16:47:07Z</time>
      </trkpt>
      <trkpt lat="46.06111" lon="6.20767">
        <ele>926</ele>
        <time>2024-07-23T16:47:12Z</time>
      </trkpt>
      <trkpt lat="46.06085" lon="6.20739">
        <ele>927</ele>
        <time>2024-07-23T16:47:18Z</time>
      </trkpt>
      <trkpt lat="46.06068" lon="6.20727">
        <ele>928</ele>
        <time>2024-07-23T16:47:21Z</time>
      </trkpt>
      <trkpt lat="46.05997" lon="6.20739">
        <ele>926</ele>
        <time>2024-07-23T16:47:34Z</time>
      </trkpt>
      <trkpt lat="46.05874" lon="6.20788">
        <ele>923</ele>
        <time>2024-07-23T16:47:57Z</time>
      </trkpt>
      <trkpt lat="46.05797" lon="6.208">
        <ele>921</ele>
        <time>2024-07-23T16:48:11Z</time>
      </trkpt>
      <trkpt lat="46.05718" lon="6.20842">
        <ele>919</ele>
        <time>2024-07-23T16:48:26Z</time>
      </trkpt>
      <trkpt lat="46.05665" lon="6.20844">
        <ele>919</ele>
        <time>2024-07-23T16:48:35Z</time>
      </trkpt>
      <trkpt lat="46.05641" lon="6.20851">
        <ele>917</ele>
        <time>2024-07-23T16:48:39Z</time>
      </trkpt>
      <trkpt lat="46.05618" lon="6.20869">
        <ele>915</ele>
        <time>2024-07-23T16:48:44Z</time>
      </trkpt>
      <trkpt lat="46.05559" lon="6.20935">
        <ele>906</ele>
        <time>2024-07-23T16:48:57Z</time>
      </trkpt>
      <trkpt lat="46.05519" lon="6.20946">
        <ele>902</ele>
        <time>2024-07-23T16:49:05Z</time>
      </trkpt>
      <trkpt lat="46.05407" lon="6.209">
        <ele>892</ele>
        <time>2024-07-23T16:49:25Z</time>
      </trkpt>
      <trkpt lat="46.05375" lon="6.20897">
        <ele>891</ele>
        <time>2024-07-23T16:49:31Z</time>
      </trkpt>
      <trkpt lat="46.05341" lon="6.20935">
        <ele>889</ele>
        <time>2024-07-23T16:49:39Z</time>
      </trkpt>
      <trkpt lat="46.05335" lon="6.209">
        <ele>889</ele>
        <time>2024-07-23T16:49:43Z</time>
      </trkpt>
      <trkpt lat="46.05291" lon="6.20839">
        <ele>890</ele>
        <time>2024-07-23T16:49:54Z</time>
      </trkpt>
      <trkpt lat="46.05226" lon="6.20677">
        <ele>891</ele>
        <time>2024-07-23T16:50:17Z</time>
      </trkpt>
      <trkpt lat="46.05157" lon="6.20473">
        <ele>897</ele>
        <time>2024-07-23T16:50:45Z</time>
      </trkpt>
      <trkpt lat="46.05123" lon="6.20163">
        <ele>900</ele>
        <time>2024-07-23T16:51:24Z</time>
      </trkpt>
      <trkpt lat="46.05131" lon="6.20102">
        <ele>899</ele>
        <time>2024-07-23T16:51:32Z</time>
      </trkpt>
      <trkpt lat="46.05142" lon="6.20054">
        <ele>899</ele>
        <time>2024-07-23T16:51:38Z</time>
      </trkpt>
      <trkpt lat="46.05144" lon="6.20022">
        <ele>898</ele>
        <time>2024-07-23T16:51:42Z</time>
      </trkpt>
      <trkpt lat="46.05136" lon="6.1996">
        <ele>896</ele>
        <time>2024-07-23T16:51:50Z</time>
      </trkpt>
      <trkpt lat="46.0512" lon="6.19901">
        <ele>894</ele>
        <time>2024-07-23T16:51:57Z</time>
      </trkpt>
      <trkpt lat="46.0506" lon="6.19751">
        <ele>893</ele>
        <time>2024-07-23T16:52:19Z</time>
      </trkpt>
      <trkpt lat="46.05045" lon="6.19672">
        <ele>891</ele>
        <time>2024-07-23T16:52:29Z</time>
      </trkpt>
      <trkpt lat="46.05036" lon="6.1961">
        <ele>888</ele>
        <time>2024-07-23T16:52:37Z</time>
      </trkpt>
      <trkpt lat="46.05007" lon="6.19527">
        <ele>882</ele>
        <time>2024-07-23T16:52:48Z</time>
      </trkpt>
      <trkpt lat="46.04979" lon="6.19477">
        <ele>880</ele>
        <time>2024-07-23T16:52:56Z</time>
      </trkpt>
      <trkpt lat="46.0487" lon="6.1933">
        <ele>874</ele>
        <time>2024-07-23T16:53:23Z</time>
      </trkpt>
      <trkpt lat="46.04855" lon="6.19314">
        <ele>873</ele>
        <time>2024-07-23T16:53:26Z</time>
      </trkpt>
      <trkpt lat="46.04843" lon="6.19305">
        <ele>873</ele>
        <time>2024-07-23T16:53:28Z</time>
      </trkpt>
      <trkpt lat="46.04829" lon="6.19306">
        <ele>872</ele>
        <time>2024-07-23T16:53:31Z</time>
      </trkpt>
      <trkpt lat="46.04822" lon="6.19311">
        <ele>872</ele>
        <time>2024-07-23T16:53:32Z</time>
      </trkpt>
      <trkpt lat="46.04814" lon="6.19325">
        <ele>872</ele>
        <time>2024-07-23T16:53:35Z</time>
      </trkpt>
      <trkpt lat="46.04765" lon="6.19438">
        <ele>874</ele>
        <time>2024-07-23T16:53:51Z</time>
      </trkpt>
      <trkpt lat="46.04758" lon="6.1945">
        <ele>874</ele>
        <time>2024-07-23T16:53:53Z</time>
      </trkpt>
      <trkpt lat="46.04748" lon="6.1946">
        <ele>874</ele>
        <time>2024-07-23T16:53:55Z</time>
      </trkpt>
      <trkpt lat="46.04733" lon="6.19461">
        <ele>871</ele>
        <time>2024-07-23T16:53:58Z</time>
      </trkpt>
      <trkpt lat="46.04721" lon="6.19453">
        <ele>869</ele>
        <time>2024-07-23T16:54:00Z</time>
      </trkpt>
      <trkpt lat="46.04691" lon="6.19415">
        <ele>862</ele>
        <time>2024-07-23T16:54:07Z</time>
      </trkpt>
      <trkpt lat="46.04678" lon="6.19384">
        <ele>861</ele>
        <time>2024-07-23T16:54:12Z</time>
      </trkpt>
      <trkpt lat="46.04672" lon="6.19351">
        <ele>860</ele>
        <time>2024-07-23T16:54:16Z</time>
      </trkpt>
      <trkpt lat="46.04671" lon="6.19302">
        <ele>861</ele>
        <time>2024-07-23T16:54:22Z</time>
      </trkpt>
      <trkpt lat="46.04667" lon="6.19258">
        <ele>860</ele>
        <time>2024-07-23T16:54:27Z</time>
      </trkpt>
      <trkpt lat="46.04627" lon="6.19023">
        <ele>851</ele>
        <time>2024-07-23T16:54:57Z</time>
      </trkpt>
      <trkpt lat="46.04626" lon="6.18997">
        <ele>850</ele>
        <time>2024-07-23T16:55:01Z</time>
      </trkpt>
      <trkpt lat="46.04642" lon="6.18907">
        <ele>847</ele>
        <time>2024-07-23T16:55:12Z</time>
      </trkpt>
      <trkpt lat="46.04642" lon="6.18889">
        <ele>847</ele>
        <time>2024-07-23T16:55:14Z</time>
      </trkpt>
      <trkpt lat="46.04638" lon="6.18873">
        <ele>847</ele>
        <time>2024-07-23T16:55:16Z</time>
      </trkpt>
      <trkpt lat="46.04604" lon="6.18802">
        <ele>843</ele>
        <time>2024-07-23T16:55:27Z</time>
      </trkpt>
      <trkpt lat="46.04586" lon="6.18754">
        <ele>840</ele>
        <time>2024-07-23T16:55:34Z</time>
      </trkpt>
      <trkpt lat="46.04548" lon="6.18517">
        <ele>838</ele>
        <time>2024-07-23T16:56:04Z</time>
      </trkpt>
      <trkpt lat="46.04549" lon="6.18486">
        <ele>836</ele>
        <time>2024-07-23T16:56:08Z</time>
      </trkpt>
      <trkpt lat="46.04552" lon="6.18472">
        <ele>835</ele>
        <time>2024-07-23T16:56:09Z</time>
      </trkpt>
      <trkpt lat="46.04558" lon="6.18457">
        <ele>833</ele>
        <time>2024-07-23T16:56:12Z</time>
      </trkpt>
      <trkpt lat="46.04569" lon="6.18445">
        <ele>832</ele>
        <time>2024-07-23T16:56:14Z</time>
      </trkpt>
      <trkpt lat="46.04579" lon="6.18438">
        <ele>831</ele>
        <time>2024-07-23T16:56:16Z</time>
      </trkpt>
      <trkpt lat="46.04626" lon="6.18418">
        <ele>829</ele>
        <time>2024-07-23T16:56:25Z</time>
      </trkpt>
      <trkpt lat="46.04634" lon="6.18407">
        <ele>828</ele>
        <time>2024-07-23T16:56:27Z</time>
      </trkpt>
      <trkpt lat="46.04639" lon="6.18394">
        <ele>827</ele>
        <time>2024-07-23T16:56:29Z</time>
      </trkpt>
      <trkpt lat="46.04647" lon="6.18349">
        <ele>823</ele>
        <time>2024-07-23T16:56:34Z</time>
      </trkpt>
      <trkpt lat="46.04661" lon="6.1833">
        <ele>822</ele>
        <time>2024-07-23T16:56:38Z</time>
      </trkpt>
      <trkpt lat="46.04675" lon="6.18329">
        <ele>822</ele>
        <time>2024-07-23T16:56:40Z</time>
      </trkpt>
      <trkpt lat="46.04687" lon="6.18334">
        <ele>822</ele>
        <time>2024-07-23T16:56:42Z</time>
      </trkpt>
      <trkpt lat="46.0468" lon="6.18321">
        <ele>822</ele>
        <time>2024-07-23T16:56:44Z</time>
      </trkpt>
      <trkpt lat="46.04676" lon="6.18303">
        <ele>822</ele>
        <time>2024-07-23T16:56:47Z</time>
      </trkpt>
      <trkpt lat="46.04689" lon="6.18286">
        <ele>822</ele>
        <time>2024-07-23T16:56:50Z</time>
      </trkpt>
      <trkpt lat="46.0471" lon="6.18272">
        <ele>821</ele>
        <time>2024-07-23T16:56:54Z</time>
      </trkpt>
      <trkpt lat="46.04759" lon="6.18259">
        <ele>818</ele>
        <time>2024-07-23T16:57:03Z</time>
      </trkpt>
      <trkpt lat="46.04771" lon="6.18248">
        <ele>818</ele>
        <time>2024-07-23T16:57:05Z</time>
      </trkpt>
      <trkpt lat="46.04831" lon="6.18141">
        <ele>816</ele>
        <time>2024-07-23T16:57:22Z</time>
      </trkpt>
      <trkpt lat="46.0484" lon="6.18132">
        <ele>816</ele>
        <time>2024-07-23T16:57:24Z</time>
      </trkpt>
      <trkpt lat="46.04856" lon="6.18122">
        <ele>816</ele>
        <time>2024-07-23T16:57:27Z</time>
      </trkpt>
      <trkpt lat="46.04904" lon="6.18105">
        <ele>815</ele>
        <time>2024-07-23T16:57:36Z</time>
      </trkpt>
      <trkpt lat="46.04914" lon="6.18099">
        <ele>815</ele>
        <time>2024-07-23T16:57:38Z</time>
      </trkpt>
      <trkpt lat="46.04921" lon="6.18089">
        <ele>815</ele>
        <time>2024-07-23T16:57:40Z</time>
      </trkpt>
      <trkpt lat="46.04925" lon="6.18078">
        <ele>814</ele>
        <time>2024-07-23T16:57:41Z</time>
      </trkpt>
      <trkpt lat="46.04926" lon="6.18066">
        <ele>814</ele>
        <time>2024-07-23T16:57:43Z</time>
      </trkpt>
      <trkpt lat="46.04923" lon="6.18049">
        <ele>813</ele>
        <time>2024-07-23T16:57:45Z</time>
      </trkpt>
      <trkpt lat="46.04914" lon="6.18033">
        <ele>813</ele>
        <time>2024-07-23T16:57:48Z</time>
      </trkpt>
      <trkpt lat="46.04879" lon="6.17995">
        <ele>813</ele>
        <time>2024-07-23T16:57:55Z</time>
      </trkpt>
      <trkpt lat="46.04872" lon="6.17978">
        <ele>813</ele>
        <time>2024-07-23T16:57:58Z</time>
      </trkpt>
      <trkpt lat="46.0487" lon="6.17959">
        <ele>813</ele>
        <time>2024-07-23T16:58:00Z</time>
      </trkpt>
      <trkpt lat="46.04872" lon="6.17946">
        <ele>813</ele>
        <time>2024-07-23T16:58:02Z</time>
      </trkpt>
      <trkpt lat="46.04904" lon="6.17863">
        <ele>811</ele>
        <time>2024-07-23T16:58:14Z</time>
      </trkpt>
      <trkpt lat="46.04914" lon="6.17828">
        <ele>810</ele>
        <time>2024-07-23T16:58:18Z</time>
      </trkpt>
      <trkpt lat="46.04928" lon="6.17758">
        <ele>810</ele>
        <time>2024-07-23T16:58:27Z</time>
      </trkpt>
      <trkpt lat="46.04938" lon="6.17741">
        <ele>810</ele>
        <time>2024-07-23T16:58:30Z</time>
      </trkpt>
      <trkpt lat="46.04964" lon="6.17716">
        <ele>811</ele>
        <time>2024-07-23T16:58:36Z</time>
      </trkpt>
      <trkpt lat="46.04989" lon="6.17687">
        <ele>811</ele>
        <time>2024-07-23T16:58:41Z</time>
      </trkpt>
      <trkpt lat="46.05023" lon="6.1763">
        <ele>813</ele>
        <time>2024-07-23T16:58:51Z</time>
      </trkpt>
      <trkpt lat="46.05049" lon="6.17581">
        <ele>814</ele>
        <time>2024-07-23T16:58:58Z</time>
      </trkpt>
      <trkpt lat="46.05085" lon="6.17539">
        <ele>812</ele>
        <time>2024-07-23T16:59:06Z</time>
      </trkpt>
      <trkpt lat="46.05122" lon="6.17478">
        <ele>807</ele>
        <time>2024-07-23T16:59:16Z</time>
      </trkpt>
      <trkpt lat="46.05162" lon="6.17429">
        <ele>804</ele>
        <time>2024-07-23T16:59:26Z</time>
      </trkpt>
      <trkpt lat="46.0517" lon="6.1742">
        <ele>804</ele>
        <time>2024-07-23T16:59:28Z</time>
      </trkpt>
      <trkpt lat="46.05312" lon="6.17317">
        <ele>798</ele>
        <time>2024-07-23T16:59:56Z</time>
      </trkpt>
      <trkpt lat="46.05332" lon="6.173">
        <ele>797</ele>
        <time>2024-07-23T17:00:00Z</time>
      </trkpt>
      <trkpt lat="46.05342" lon="6.17272">
        <ele>796</ele>
        <time>2024-07-23T17:00:04Z</time>
      </trkpt>
      <trkpt lat="46.05345" lon="6.17236">
        <ele>796</ele>
        <time>2024-07-23T17:00:08Z</time>
      </trkpt>
      <trkpt lat="46.05332" lon="6.17145">
        <ele>793</ele>
        <time>2024-07-23T17:00:20Z</time>
      </trkpt>
      <trkpt lat="46.05326" lon="6.17126">
        <ele>792</ele>
        <time>2024-07-23T17:00:22Z</time>
      </trkpt>
      <trkpt lat="46.05317" lon="6.17112">
        <ele>791</ele>
        <time>2024-07-23T17:00:25Z</time>
      </trkpt>
      <trkpt lat="46.05301" lon="6.17096">
        <ele>790</ele>
        <time>2024-07-23T17:00:28Z</time>
      </trkpt>
      <trkpt lat="46.05227" lon="6.17057">
        <ele>786</ele>
        <time>2024-07-23T17:00:42Z</time>
      </trkpt>
      <trkpt lat="46.05138" lon="6.17005">
        <ele>781</ele>
        <time>2024-07-23T17:00:59Z</time>
      </trkpt>
      <trkpt lat="46.05107" lon="6.16981">
        <ele>781</ele>
        <time>2024-07-23T17:01:06Z</time>
      </trkpt>
      <trkpt lat="46.05091" lon="6.16942">
        <ele>779</ele>
        <time>2024-07-23T17:01:11Z</time>
      </trkpt>
      <trkpt lat="46.05064" lon="6.1684">
        <ele>774</ele>
        <time>2024-07-23T17:01:25Z</time>
      </trkpt>
      <trkpt lat="46.05067" lon="6.16816">
        <ele>773</ele>
        <time>2024-07-23T17:01:28Z</time>
      </trkpt>
      <trkpt lat="46.05079" lon="6.16797">
        <ele>771</ele>
        <time>2024-07-23T17:01:31Z</time>
      </trkpt>
      <trkpt lat="46.05131" lon="6.16767">
        <ele>766</ele>
        <time>2024-07-23T17:01:41Z</time>
      </trkpt>
      <trkpt lat="46.05172" lon="6.16709">
        <ele>760</ele>
        <time>2024-07-23T17:01:51Z</time>
      </trkpt>
      <trkpt lat="46.05218" lon="6.16586">
        <ele>756</ele>
        <time>2024-07-23T17:02:08Z</time>
      </trkpt>
      <trkpt lat="46.05212" lon="6.16534">
        <ele>754</ele>
        <time>2024-07-23T17:02:15Z</time>
      </trkpt>
      <trkpt lat="46.05173" lon="6.16423">
        <ele>750</ele>
        <time>2024-07-23T17:02:30Z</time>
      </trkpt>
      <trkpt lat="46.05078" lon="6.16235">
        <ele>738</ele>
        <time>2024-07-23T17:02:59Z</time>
      </trkpt>
      <trkpt lat="46.05059" lon="6.16213">
        <ele>736</ele>
        <time>2024-07-23T17:03:03Z</time>
      </trkpt>
      <trkpt lat="46.04976" lon="6.16151">
        <ele>733</ele>
        <time>2024-07-23T17:03:20Z</time>
      </trkpt>
      <trkpt lat="46.04962" lon="6.16135">
        <ele>733</ele>
        <time>2024-07-23T17:03:23Z</time>
      </trkpt>
      <trkpt lat="46.04957" lon="6.16122">
        <ele>733</ele>
        <time>2024-07-23T17:03:25Z</time>
      </trkpt>
      <trkpt lat="46.04955" lon="6.16108">
        <ele>732</ele>
        <time>2024-07-23T17:03:27Z</time>
      </trkpt>
      <trkpt lat="46.04974" lon="6.15996">
        <ele>723</ele>
        <time>2024-07-23T17:03:41Z</time>
      </trkpt>
      <trkpt lat="46.04972" lon="6.15972">
        <ele>721</ele>
        <time>2024-07-23T17:03:44Z</time>
      </trkpt>
      <trkpt lat="46.04956" lon="6.1594">
        <ele>720</ele>
        <time>2024-07-23T17:03:49Z</time>
      </trkpt>
      <trkpt lat="46.04891" lon="6.15863">
        <ele>719</ele>
        <time>2024-07-23T17:04:04Z</time>
      </trkpt>
      <trkpt lat="46.04868" lon="6.15828">
        <ele>717</ele>
        <time>2024-07-23T17:04:10Z</time>
      </trkpt>
      <trkpt lat="46.04866" lon="6.15795">
        <ele>715</ele>
        <time>2024-07-23T17:04:14Z</time>
      </trkpt>
      <trkpt lat="46.04885" lon="6.15767">
        <ele>712</ele>
        <time>2024-07-23T17:04:19Z</time>
      </trkpt>
      <trkpt lat="46.0492" lon="6.15768">
        <ele>711</ele>
        <time>2024-07-23T17:04:25Z</time>
      </trkpt>
      <trkpt lat="46.04958" lon="6.15781">
        <ele>709</ele>
        <time>2024-07-23T17:04:32Z</time>
      </trkpt>
      <trkpt lat="46.05098" lon="6.15794">
        <ele>703</ele>
        <time>2024-07-23T17:04:57Z</time>
      </trkpt>
      <trkpt lat="46.05117" lon="6.15786">
        <ele>703</ele>
        <time>2024-07-23T17:05:00Z</time>
      </trkpt>
      <trkpt lat="46.05131" lon="6.15785">
        <ele>703</ele>
        <time>2024-07-23T17:05:03Z</time>
      </trkpt>
      <trkpt lat="46.05159" lon="6.15778">
        <ele>703</ele>
        <time>2024-07-23T17:05:08Z</time>
      </trkpt>
      <trkpt lat="46.05182" lon="6.15755">
        <ele>701</ele>
        <time>2024-07-23T17:05:13Z</time>
      </trkpt>
      <trkpt lat="46.05192" lon="6.15665">
        <ele>697</ele>
        <time>2024-07-23T17:05:24Z</time>
      </trkpt>
      <trkpt lat="46.05177" lon="6.15574">
        <ele>696</ele>
        <time>2024-07-23T17:05:36Z</time>
      </trkpt>
      <trkpt lat="46.05147" lon="6.15526">
        <ele>694</ele>
        <time>2024-07-23T17:05:44Z</time>
      </trkpt>
      <trkpt lat="46.05156" lon="6.15459">
        <ele>689</ele>
        <time>2024-07-23T17:05:52Z</time>
      </trkpt>
      <trkpt lat="46.05165" lon="6.15443">
        <ele>686</ele>
        <time>2024-07-23T17:05:55Z</time>
      </trkpt>
      <trkpt lat="46.05181" lon="6.15432">
        <ele>686</ele>
        <time>2024-07-23T17:05:58Z</time>
      </trkpt>
      <trkpt lat="46.05225" lon="6.15421">
        <ele>685</ele>
        <time>2024-07-23T17:06:06Z</time>
      </trkpt>
      <trkpt lat="46.05242" lon="6.15412">
        <ele>685</ele>
        <time>2024-07-23T17:06:09Z</time>
      </trkpt>
      <trkpt lat="46.05253" lon="6.15394">
        <ele>684</ele>
        <time>2024-07-23T17:06:12Z</time>
      </trkpt>
      <trkpt lat="46.05257" lon="6.15376">
        <ele>683</ele>
        <time>2024-07-23T17:06:14Z</time>
      </trkpt>
      <trkpt lat="46.05258" lon="6.15359">
        <ele>682</ele>
        <time>2024-07-23T17:06:16Z</time>
      </trkpt>
      <trkpt lat="46.05253" lon="6.15334">
        <ele>680</ele>
        <time>2024-07-23T17:06:19Z</time>
      </trkpt>
      <trkpt lat="46.05185" lon="6.15168">
        <ele>684</ele>
        <time>2024-07-23T17:06:43Z</time>
      </trkpt>
      <trkpt lat="46.05143" lon="6.15094">
        <ele>689</ele>
        <time>2024-07-23T17:06:55Z</time>
      </trkpt>
      <trkpt lat="46.05117" lon="6.15068">
        <ele>691</ele>
        <time>2024-07-23T17:07:01Z</time>
      </trkpt>
      <trkpt lat="46.05078" lon="6.15042">
        <ele>692</ele>
        <time>2024-07-23T17:07:08Z</time>
      </trkpt>
      <trkpt lat="46.0504" lon="6.15034">
        <ele>692</ele>
        <time>2024-07-23T17:07:15Z</time>
      </trkpt>
      <trkpt lat="46.05004" lon="6.15004">
        <ele>694</ele>
        <time>2024-07-23T17:07:23Z</time>
      </trkpt>
      <trkpt lat="46.04974" lon="6.14915">
        <ele>696</ele>
        <time>2024-07-23T17:07:35Z</time>
      </trkpt>
      <trkpt lat="46.0493" lon="6.14834">
        <ele>700</ele>
        <time>2024-07-23T17:07:48Z</time>
      </trkpt>
      <trkpt lat="46.04853" lon="6.14748">
        <ele>704</ele>
        <time>2024-07-23T17:08:05Z</time>
      </trkpt>
      <trkpt lat="46.04806" lon="6.14664">
        <ele>707</ele>
        <time>2024-07-23T17:08:18Z</time>
      </trkpt>
      <trkpt lat="46.04788" lon="6.14623">
        <ele>706</ele>
        <time>2024-07-23T17:08:24Z</time>
      </trkpt>
      <trkpt lat="46.04795" lon="6.14571">
        <ele>710</ele>
        <time>2024-07-23T17:08:31Z</time>
      </trkpt>
      <trkpt lat="46.04818" lon="6.14531">
        <ele>713</ele>
        <time>2024-07-23T17:08:37Z</time>
      </trkpt>
      <trkpt lat="46.04824" lon="6.14478">
        <ele>713</ele>
        <time>2024-07-23T17:08:44Z</time>
      </trkpt>
      <trkpt lat="46.04827" lon="6.14403">
        <ele>714</ele>
        <time>2024-07-23T17:08:53Z</time>
      </trkpt>
      <trkpt lat="46.04843" lon="6.1428">
        <ele>717</ele>
        <time>2024-07-23T17:09:08Z</time>
      </trkpt>
      <trkpt lat="46.04858" lon="6.14209">
        <ele>718</ele>
        <time>2024-07-23T17:09:18Z</time>
      </trkpt>
      <trkpt lat="46.04881" lon="6.14155">
        <ele>722</ele>
        <time>2024-07-23T17:09:25Z</time>
      </trkpt>
      <trkpt lat="46.04888" lon="6.14126">
        <ele>722</ele>
        <time>2024-07-23T17:09:29Z</time>
      </trkpt>
      <trkpt lat="46.04889" lon="6.14089">
        <ele>719</ele>
        <time>2024-07-23T17:09:34Z</time>
      </trkpt>
      <trkpt lat="46.0487" lon="6.13995">
        <ele>718</ele>
        <time>2024-07-23T17:09:46Z</time>
      </trkpt>
      <trkpt lat="46.04871" lon="6.13959">
        <ele>717</ele>
        <time>2024-07-23T17:09:50Z</time>
      </trkpt>
      <trkpt lat="46.04878" lon="6.13922">
        <ele>717</ele>
        <time>2024-07-23T17:09:55Z</time>
      </trkpt>
      <trkpt lat="46.04899" lon="6.13894">
        <ele>718</ele>
        <time>2024-07-23T17:10:00Z</time>
      </trkpt>
      <trkpt lat="46.04936" lon="6.13856">
        <ele>721</ele>
        <time>2024-07-23T17:10:08Z</time>
      </trkpt>
      <trkpt lat="46.04976" lon="6.13833">
        <ele>724</ele>
        <time>2024-07-23T17:10:16Z</time>
      </trkpt>
      <trkpt lat="46.05007" lon="6.1383">
        <ele>727</ele>
        <time>2024-07-23T17:10:21Z</time>
      </trkpt>
      <trkpt lat="46.05036" lon="6.13837">
        <ele>728</ele>
        <time>2024-07-23T17:10:27Z</time>
      </trkpt>
      <trkpt lat="46.0508" lon="6.13869">
        <ele>737</ele>
        <time>2024-07-23T17:10:35Z</time>
      </trkpt>
      <trkpt lat="46.05103" lon="6.13905">
        <ele>745</ele>
        <time>2024-07-23T17:10:42Z</time>
      </trkpt>
      <trkpt lat="46.05123" lon="6.13924">
        <ele>747</ele>
        <time>2024-07-23T17:10:46Z</time>
      </trkpt>
      <trkpt lat="46.05145" lon="6.13933">
        <ele>746</ele>
        <time>2024-07-23T17:10:50Z</time>
      </trkpt>
      <trkpt lat="46.05163" lon="6.13928">
        <ele>743</ele>
        <time>2024-07-23T17:10:53Z</time>
      </trkpt>
      <trkpt lat="46.05171" lon="6.13901">
        <ele>740</ele>
        <time>2024-07-23T17:10:57Z</time>
      </trkpt>
      <trkpt lat="46.05153" lon="6.13679">
        <ele>738</ele>
        <time>2024-07-23T17:11:24Z</time>
      </trkpt>
      <trkpt lat="46.0514" lon="6.13611">
        <ele>738</ele>
        <time>2024-07-23T17:11:33Z</time>
      </trkpt>
      <trkpt lat="46.05138" lon="6.13561">
        <ele>738</ele>
        <time>2024-07-23T17:11:39Z</time>
      </trkpt>
      <trkpt lat="46.05144" lon="6.13523">
        <ele>738</ele>
        <time>2024-07-23T17:11:44Z</time>
      </trkpt>
      <trkpt lat="46.05165" lon="6.1349">
        <ele>740</ele>
        <time>2024-07-23T17:11:50Z</time>
      </trkpt>
      <trkpt lat="46.05309" lon="6.13339">
        <ele>755</ele>
        <time>2024-07-23T17:12:21Z</time>
      </trkpt>
      <trkpt lat="46.05318" lon="6.13317">
        <ele>757</ele>
        <time>2024-07-23T17:12:24Z</time>
      </trkpt>
      <trkpt lat="46.05319" lon="6.13288">
        <ele>760</ele>
        <time>2024-07-23T17:12:28Z</time>
      </trkpt>
      <trkpt lat="46.05309" lon="6.13259">
        <ele>761</ele>
        <time>2024-07-23T17:12:32Z</time>
      </trkpt>
      <trkpt lat="46.05277" lon="6.13206">
        <ele>768</ele>
        <time>2024-07-23T17:12:41Z</time>
      </trkpt>
      <trkpt lat="46.05253" lon="6.13173">
        <ele>772</ele>
        <time>2024-07-23T17:12:47Z</time>
      </trkpt>
      <trkpt lat="46.05236" lon="6.13167">
        <ele>773</ele>
        <time>2024-07-23T17:12:50Z</time>
      </trkpt>
      <trkpt lat="46.05219" lon="6.13176">
        <ele>771</ele>
        <time>2024-07-23T17:12:53Z</time>
      </trkpt>
      <trkpt lat="46.052" lon="6.132">
        <ele>767</ele>
        <time>2024-07-23T17:12:57Z</time>
      </trkpt>
      <trkpt lat="46.05184" lon="6.13207">
        <ele>766</ele>
        <time>2024-07-23T17:13:00Z</time>
      </trkpt>
      <trkpt lat="46.0516" lon="6.13197">
        <ele>767</ele>
        <time>2024-07-23T17:13:05Z</time>
      </trkpt>
      <trkpt lat="46.05136" lon="6.13182">
        <ele>768</ele>
        <time>2024-07-23T17:13:09Z</time>
      </trkpt>
      <trkpt lat="46.05091" lon="6.13128">
        <ele>773</ele>
        <time>2024-07-23T17:13:20Z</time>
      </trkpt>
      <trkpt lat="46.05059" lon="6.13078">
        <ele>781</ele>
        <time>2024-07-23T17:13:28Z</time>
      </trkpt>
      <trkpt lat="46.05035" lon="6.12993">
        <ele>792</ele>
        <time>2024-07-23T17:13:40Z</time>
      </trkpt>
      <trkpt lat="46.05019" lon="6.12987">
        <ele>793</ele>
        <time>2024-07-23T17:13:43Z</time>
      </trkpt>
      <trkpt lat="46.05002" lon="6.12994">
        <ele>792</ele>
        <time>2024-07-23T17:13:46Z</time>
      </trkpt>
      <trkpt lat="46.04995" lon="6.13015">
        <ele>790</ele>
        <time>2024-07-23T17:13:49Z</time>
      </trkpt>
      <trkpt lat="46.04996" lon="6.13064">
        <ele>785</ele>
        <time>2024-07-23T17:13:55Z</time>
      </trkpt>
      <trkpt lat="46.04984" lon="6.13096">
        <ele>783</ele>
        <time>2024-07-23T17:13:59Z</time>
      </trkpt>
      <trkpt lat="46.04966" lon="6.13106">
        <ele>784</ele>
        <time>2024-07-23T17:14:03Z</time>
      </trkpt>
      <trkpt lat="46.04921" lon="6.13099">
        <ele>788</ele>
        <time>2024-07-23T17:14:11Z</time>
      </trkpt>
      <trkpt lat="46.04834" lon="6.13072">
        <ele>794</ele>
        <time>2024-07-23T17:14:26Z</time>
      </trkpt>
      <trkpt lat="46.04764" lon="6.13064">
        <ele>800</ele>
        <time>2024-07-23T17:14:39Z</time>
      </trkpt>
      <trkpt lat="46.04684" lon="6.13">
        <ele>798</ele>
        <time>2024-07-23T17:14:55Z</time>
      </trkpt>
      <trkpt lat="46.04542" lon="6.12858">
        <ele>790</ele>
        <time>2024-07-23T17:15:26Z</time>
      </trkpt>
      <trkpt lat="46.045" lon="6.12825">
        <ele>789</ele>
        <time>2024-07-23T17:15:35Z</time>
      </trkpt>
      <trkpt lat="46.04422" lon="6.12757">
        <ele>787</ele>
        <time>2024-07-23T17:15:51Z</time>
      </trkpt>
      <trkpt lat="46.04306" lon="6.12602">
        <ele>790</ele>
        <time>2024-07-23T17:16:19Z</time>
      </trkpt>
      <trkpt lat="46.04223" lon="6.12514">
        <ele>789</ele>
        <time>2024-07-23T17:16:37Z</time>
      </trkpt>
      <trkpt lat="46.04114" lon="6.12381">
        <ele>787</ele>
        <time>2024-07-23T17:17:03Z</time>
      </trkpt>
      <trkpt lat="46.04104" lon="6.12359">
        <ele>786</ele>
        <time>2024-07-23T17:17:06Z</time>
      </trkpt>
      <trkpt lat="46.04098" lon="6.12325">
        <ele>786</ele>
        <time>2024-07-23T17:17:10Z</time>
      </trkpt>
      <trkpt lat="46.04084" lon="6.12184">
        <ele>789</ele>
        <time>2024-07-23T17:17:28Z</time>
      </trkpt>
      <trkpt lat="46.04072" lon="6.12151">
        <ele>791</ele>
        <time>2024-07-23T17:17:32Z</time>
      </trkpt>
      <trkpt lat="46.04054" lon="6.1213">
        <ele>792</ele>
        <time>2024-07-23T17:17:37Z</time>
      </trkpt>
      <trkpt lat="46.03994" lon="6.12111">
        <ele>785</ele>
        <time>2024-07-23T17:17:47Z</time>
      </trkpt>
      <trkpt lat="46.03941" lon="6.1209">
        <ele>786</ele>
        <time>2024-07-23T17:17:57Z</time>
      </trkpt>
      <trkpt lat="46.03878" lon="6.12051">
        <ele>786</ele>
        <time>2024-07-23T17:18:09Z</time>
      </trkpt>
      <trkpt lat="46.03829" lon="6.12004">
        <ele>783</ele>
        <time>2024-07-23T17:18:20Z</time>
      </trkpt>
      <trkpt lat="46.0379" lon="6.11954">
        <ele>784</ele>
        <time>2024-07-23T17:18:29Z</time>
      </trkpt>
      <trkpt lat="46.03704" lon="6.11763">
        <ele>786</ele>
        <time>2024-07-23T17:18:57Z</time>
      </trkpt>
      <trkpt lat="46.03624" lon="6.11489">
        <ele>789</ele>
        <time>2024-07-23T17:19:34Z</time>
      </trkpt>
      <trkpt lat="46.0357" lon="6.11265">
        <ele>781</ele>
        <time>2024-07-23T17:20:03Z</time>
      </trkpt>
      <trkpt lat="46.03518" lon="6.11084">
        <ele>778</ele>
        <time>2024-07-23T17:20:28Z</time>
      </trkpt>
      <trkpt lat="46.03561" lon="6.11068">
        <ele>780</ele>
        <time>2024-07-23T17:20:35Z</time>
      </trkpt>
      <trkpt lat="46.03583" lon="6.11039">
        <ele>782</ele>
        <time>2024-07-23T17:20:41Z</time>
      </trkpt>
      <trkpt lat="46.03583" lon="6.10991">
        <ele>784</ele>
        <time>2024-07-23T17:20:47Z</time>
      </trkpt>
      <trkpt lat="46.03599" lon="6.10938">
        <ele>787</ele>
        <time>2024-07-23T17:20:54Z</time>
      </trkpt>
      <trkpt lat="46.03653" lon="6.10831">
        <ele>790</ele>
        <time>2024-07-23T17:21:10Z</time>
      </trkpt>
      <trkpt lat="46.037" lon="6.10759">
        <ele>790</ele>
        <time>2024-07-23T17:21:22Z</time>
      </trkpt>
      <trkpt lat="46.03777" lon="6.10674">
        <ele>792</ele>
        <time>2024-07-23T17:21:40Z</time>
      </trkpt>
      <trkpt lat="46.03815" lon="6.10619">
        <ele>795</ele>
        <time>2024-07-23T17:21:49Z</time>
      </trkpt>
      <trkpt lat="46.03851" lon="6.10576">
        <ele>799</ele>
        <time>2024-07-23T17:21:58Z</time>
      </trkpt>
      <trkpt lat="46.03868" lon="6.10541">
        <ele>798</ele>
        <time>2024-07-23T17:22:03Z</time>
      </trkpt>
      <trkpt lat="46.03875" lon="6.10513">
        <ele>797</ele>
        <time>2024-07-23T17:22:06Z</time>
      </trkpt>
      <trkpt lat="46.03878" lon="6.10494">
        <ele>796</ele>
        <time>2024-07-23T17:22:09Z</time>
      </trkpt>
      <trkpt lat="46.0388" lon="6.10431">
        <ele>790</ele>
        <time>2024-07-23T17:22:17Z</time>
      </trkpt>
      <trkpt lat="46.03885" lon="6.1042">
        <ele>791</ele>
        <time>2024-07-23T17:22:18Z</time>
      </trkpt>
      <trkpt lat="46.03903" lon="6.1041">
        <ele>796</ele>
        <time>2024-07-23T17:22:22Z</time>
      </trkpt>
      <trkpt lat="46.03921" lon="6.10419">
        <ele>802</ele>
        <time>2024-07-23T17:22:25Z</time>
      </trkpt>
      <trkpt lat="46.03955" lon="6.10452">
        <ele>812</ele>
        <time>2024-07-23T17:22:32Z</time>
      </trkpt>
      <trkpt lat="46.03961" lon="6.10453">
        <ele>813</ele>
        <time>2024-07-23T17:22:33Z</time>
      </trkpt>
      <trkpt lat="46.03977" lon="6.10446">
        <ele>816</ele>
        <time>2024-07-23T17:22:36Z</time>
      </trkpt>
      <trkpt lat="46.04037" lon="6.104">
        <ele>818</ele>
        <time>2024-07-23T17:22:49Z</time>
      </trkpt>
      <trkpt lat="46.04052" lon="6.10395">
        <ele>818</ele>
        <time>2024-07-23T17:22:51Z</time>
      </trkpt>
      <trkpt lat="46.04068" lon="6.10394">
        <ele>820</ele>
        <time>2024-07-23T17:22:54Z</time>
      </trkpt>
      <trkpt lat="46.04165" lon="6.10408">
        <ele>825</ele>
        <time>2024-07-23T17:23:11Z</time>
      </trkpt>
      <trkpt lat="46.04217" lon="6.10423">
        <ele>830</ele>
        <time>2024-07-23T17:23:21Z</time>
      </trkpt>
      <trkpt lat="46.04246" lon="6.10427">
        <ele>831</ele>
        <time>2024-07-23T17:23:26Z</time>
      </trkpt>
      <trkpt lat="46.04296" lon="6.10419">
        <ele>831</ele>
        <time>2024-07-23T17:23:35Z</time>
      </trkpt>
      <trkpt lat="46.04306" lon="6.10433">
        <ele>834</ele>
        <time>2024-07-23T17:23:38Z</time>
      </trkpt>
      <trkpt lat="46.0431" lon="6.1045">
        <ele>838</ele>
        <time>2024-07-23T17:23:40Z</time>
      </trkpt>
      <trkpt lat="46.04302" lon="6.10476">
        <ele>844</ele>
        <time>2024-07-23T17:23:43Z</time>
      </trkpt>
      <trkpt lat="46.04253" lon="6.10475">
        <ele>842</ele>
        <time>2024-07-23T17:23:52Z</time>
      </trkpt>
      <trkpt lat="46.04234" lon="6.10477">
        <ele>842</ele>
        <time>2024-07-23T17:23:55Z</time>
      </trkpt>
      <trkpt lat="46.0422" lon="6.10487">
        <ele>843</ele>
        <time>2024-07-23T17:23:58Z</time>
      </trkpt>
      <trkpt lat="46.0419" lon="6.10523">
        <ele>847</ele>
        <time>2024-07-23T17:24:05Z</time>
      </trkpt>
      <trkpt lat="46.04178" lon="6.10534">
        <ele>847</ele>
        <time>2024-07-23T17:24:08Z</time>
      </trkpt>
      <trkpt lat="46.04151" lon="6.10548">
        <ele>846</ele>
        <time>2024-07-23T17:24:13Z</time>
      </trkpt>
      <trkpt lat="46.04142" lon="6.10555">
        <ele>846</ele>
        <time>2024-07-23T17:24:15Z</time>
      </trkpt>
      <trkpt lat="46.04137" lon="6.10563">
        <ele>846</ele>
        <time>2024-07-23T17:24:16Z</time>
      </trkpt>
      <trkpt lat="46.04133" lon="6.10585">
        <ele>847</ele>
        <time>2024-07-23T17:24:19Z</time>
      </trkpt>
      <trkpt lat="46.04135" lon="6.10599">
        <ele>847</ele>
        <time>2024-07-23T17:24:20Z</time>
      </trkpt>
      <trkpt lat="46.04142" lon="6.10618">
        <ele>848</ele>
        <time>2024-07-23T17:24:23Z</time>
      </trkpt>
      <trkpt lat="46.04185" lon="6.10697">
        <ele>854</ele>
        <time>2024-07-23T17:24:36Z</time>
      </trkpt>
      <trkpt lat="46.0419" lon="6.10715">
        <ele>855</ele>
        <time>2024-07-23T17:24:38Z</time>
      </trkpt>
      <trkpt lat="46.04192" lon="6.1078">
        <ele>856</ele>
        <time>2024-07-23T17:24:46Z</time>
      </trkpt>
      <trkpt lat="46.04196" lon="6.1079">
        <ele>857</ele>
        <time>2024-07-23T17:24:47Z</time>
      </trkpt>
      <trkpt lat="46.04205" lon="6.10798">
        <ele>858</ele>
        <time>2024-07-23T17:24:49Z</time>
      </trkpt>
      <trkpt lat="46.04217" lon="6.10801">
        <ele>859</ele>
        <time>2024-07-23T17:24:51Z</time>
      </trkpt>
      <trkpt lat="46.04234" lon="6.10789">
        <ele>861</ele>
        <time>2024-07-23T17:24:55Z</time>
      </trkpt>
      <trkpt lat="46.04273" lon="6.10744">
        <ele>864</ele>
        <time>2024-07-23T17:25:04Z</time>
      </trkpt>
      <trkpt lat="46.04287" lon="6.10737">
        <ele>865</ele>
        <time>2024-07-23T17:25:06Z</time>
      </trkpt>
      <trkpt lat="46.04299" lon="6.1074">
        <ele>866</ele>
        <time>2024-07-23T17:25:08Z</time>
      </trkpt>
      <trkpt lat="46.0438" lon="6.10775">
        <ele>871</ele>
        <time>2024-07-23T17:25:24Z</time>
      </trkpt>
      <trkpt lat="46.0449" lon="6.10799">
        <ele>874</ele>
        <time>2024-07-23T17:25:43Z</time>
      </trkpt>
      <trkpt lat="46.04502" lon="6.10807">
        <ele>874</ele>
        <time>2024-07-23T17:25:46Z</time>
      </trkpt>
      <trkpt lat="46.04522" lon="6.10844">
        <ele>875</ele>
        <time>2024-07-23T17:25:51Z</time>
      </trkpt>
      <trkpt lat="46.04535" lon="6.10861">
        <ele>876</ele>
        <time>2024-07-23T17:25:55Z</time>
      </trkpt>
      <trkpt lat="46.04546" lon="6.10871">
        <ele>876</ele>
        <time>2024-07-23T17:25:57Z</time>
      </trkpt>
      <trkpt lat="46.04557" lon="6.10876">
        <ele>877</ele>
        <time>2024-07-23T17:25:59Z</time>
      </trkpt>
      <trkpt lat="46.04594" lon="6.10883">
        <ele>879</ele>
        <time>2024-07-23T17:26:06Z</time>
      </trkpt>
      <trkpt lat="46.04605" lon="6.10895">
        <ele>880</ele>
        <time>2024-07-23T17:26:08Z</time>
      </trkpt>
      <trkpt lat="46.04652" lon="6.10985">
        <ele>882</ele>
        <time>2024-07-23T17:26:22Z</time>
      </trkpt>
      <trkpt lat="46.04655" lon="6.10999">
        <ele>881</ele>
        <time>2024-07-23T17:26:24Z</time>
      </trkpt>
      <trkpt lat="46.04655" lon="6.11015">
        <ele>883</ele>
        <time>2024-07-23T17:26:26Z</time>
      </trkpt>
      <trkpt lat="46.04648" lon="6.11045">
        <ele>884</ele>
        <time>2024-07-23T17:26:30Z</time>
      </trkpt>
      <trkpt lat="46.04648" lon="6.11058">
        <ele>885</ele>
        <time>2024-07-23T17:26:31Z</time>
      </trkpt>
      <trkpt lat="46.04659" lon="6.11104">
        <ele>891</ele>
        <time>2024-07-23T17:26:37Z</time>
      </trkpt>
      <trkpt lat="46.04659" lon="6.11116">
        <ele>892</ele>
        <time>2024-07-23T17:26:39Z</time>
      </trkpt>
      <trkpt lat="46.04656" lon="6.11131">
        <ele>894</ele>
        <time>2024-07-23T17:26:41Z</time>
      </trkpt>
      <trkpt lat="46.04629" lon="6.11184">
        <ele>893</ele>
        <time>2024-07-23T17:26:49Z</time>
      </trkpt>
      <trkpt lat="46.04619" lon="6.11223">
        <ele>894</ele>
        <time>2024-07-23T17:26:54Z</time>
      </trkpt>
      <trkpt lat="46.04615" lon="6.11263">
        <ele>895</ele>
        <time>2024-07-23T17:26:59Z</time>
      </trkpt>
      <trkpt lat="46.04635" lon="6.11348">
        <ele>902</ele>
        <time>2024-07-23T17:27:10Z</time>
      </trkpt>
      <trkpt lat="46.04629" lon="6.11417">
        <ele>903</ele>
        <time>2024-07-23T17:27:19Z</time>
      </trkpt>
      <trkpt lat="46.04635" lon="6.11455">
        <ele>905</ele>
        <time>2024-07-23T17:27:23Z</time>
      </trkpt>
      <trkpt lat="46.04648" lon="6.11461">
        <ele>907</ele>
        <time>2024-07-23T17:27:26Z</time>
      </trkpt>
      <trkpt lat="46.04666" lon="6.11455">
        <ele>911</ele>
        <time>2024-07-23T17:27:29Z</time>
      </trkpt>
      <trkpt lat="46.04674" lon="6.11444">
        <ele>913</ele>
        <time>2024-07-23T17:27:31Z</time>
      </trkpt>
      <trkpt lat="46.04675" lon="6.1142">
        <ele>912</ele>
        <time>2024-07-23T17:27:34Z</time>
      </trkpt>
      <trkpt lat="46.04656" lon="6.11323">
        <ele>907</ele>
        <time>2024-07-23T17:27:47Z</time>
      </trkpt>
      <trkpt lat="46.0466" lon="6.11284">
        <ele>907</ele>
        <time>2024-07-23T17:27:51Z</time>
      </trkpt>
      <trkpt lat="46.0467" lon="6.11256">
        <ele>909</ele>
        <time>2024-07-23T17:27:55Z</time>
      </trkpt>
      <trkpt lat="46.04688" lon="6.11245">
        <ele>912</ele>
        <time>2024-07-23T17:27:59Z</time>
      </trkpt>
      <trkpt lat="46.0471" lon="6.11214">
        <ele>914</ele>
        <time>2024-07-23T17:28:04Z</time>
      </trkpt>
      <trkpt lat="46.04718" lon="6.11187">
        <ele>913</ele>
        <time>2024-07-23T17:28:08Z</time>
      </trkpt>
      <trkpt lat="46.04735" lon="6.11159">
        <ele>914</ele>
        <time>2024-07-23T17:28:12Z</time>
      </trkpt>
      <trkpt lat="46.0475" lon="6.11153">
        <ele>917</ele>
        <time>2024-07-23T17:28:15Z</time>
      </trkpt>
      <trkpt lat="46.04784" lon="6.1112">
        <ele>921</ele>
        <time>2024-07-23T17:28:23Z</time>
      </trkpt>
      <trkpt lat="46.048" lon="6.11084">
        <ele>921</ele>
        <time>2024-07-23T17:28:28Z</time>
      </trkpt>
      <trkpt lat="46.04825" lon="6.1104">
        <ele>924</ele>
        <time>2024-07-23T17:28:35Z</time>
      </trkpt>
      <trkpt lat="46.04866" lon="6.10997">
        <ele>929</ele>
        <time>2024-07-23T17:28:44Z</time>
      </trkpt>
      <trkpt lat="46.04885" lon="6.10968">
        <ele>930</ele>
        <time>2024-07-23T17:28:49Z</time>
      </trkpt>
      <trkpt lat="46.0491" lon="6.10938">
        <ele>931</ele>
        <time>2024-07-23T17:28:55Z</time>
      </trkpt>
      <trkpt lat="46.04938" lon="6.1094">
        <ele>935</ele>
        <time>2024-07-23T17:29:00Z</time>
      </trkpt>
      <trkpt lat="46.05025" lon="6.10997">
        <ele>947</ele>
        <time>2024-07-23T17:29:17Z</time>
      </trkpt>
      <trkpt lat="46.05043" lon="6.10989">
        <ele>948</ele>
        <time>2024-07-23T17:29:20Z</time>
      </trkpt>
      <trkpt lat="46.05052" lon="6.10964">
        <ele>948</ele>
        <time>2024-07-23T17:29:23Z</time>
      </trkpt>
      <trkpt lat="46.05051" lon="6.10943">
        <ele>948</ele>
        <time>2024-07-23T17:29:26Z</time>
      </trkpt>
      <trkpt lat="46.05022" lon="6.10909">
        <ele>943</ele>
        <time>2024-07-23T17:29:33Z</time>
      </trkpt>
      <trkpt lat="46.05015" lon="6.10892">
        <ele>943</ele>
        <time>2024-07-23T17:29:35Z</time>
      </trkpt>
      <trkpt lat="46.0502" lon="6.10851">
        <ele>944</ele>
        <time>2024-07-23T17:29:40Z</time>
      </trkpt>
      <trkpt lat="46.05027" lon="6.10827">
        <ele>946</ele>
        <time>2024-07-23T17:29:43Z</time>
      </trkpt>
      <trkpt lat="46.05038" lon="6.10815">
        <ele>947</ele>
        <time>2024-07-23T17:29:46Z</time>
      </trkpt>
      <trkpt lat="46.05102" lon="6.10792">
        <ele>954</ele>
        <time>2024-07-23T17:29:58Z</time>
      </trkpt>
      <trkpt lat="46.05109" lon="6.10779">
        <ele>955</ele>
        <time>2024-07-23T17:30:00Z</time>
      </trkpt>
      <trkpt lat="46.05114" lon="6.10763">
        <ele>955</ele>
        <time>2024-07-23T17:30:02Z</time>
      </trkpt>
      <trkpt lat="46.05108" lon="6.10686">
        <ele>957</ele>
        <time>2024-07-23T17:30:11Z</time>
      </trkpt>
      <trkpt lat="46.05151" lon="6.10668">
        <ele>965</ele>
        <time>2024-07-23T17:30:19Z</time>
      </trkpt>
      <trkpt lat="46.05227" lon="6.10631">
        <ele>982</ele>
        <time>2024-07-23T17:30:34Z</time>
      </trkpt>
      <trkpt lat="46.05259" lon="6.10641">
        <ele>987</ele>
        <time>2024-07-23T17:30:39Z</time>
      </trkpt>
      <trkpt lat="46.05328" lon="6.10692">
        <ele>995</ele>
        <time>2024-07-23T17:30:53Z</time>
      </trkpt>
      <trkpt lat="46.0533" lon="6.10708">
        <ele>995</ele>
        <time>2024-07-23T17:30:55Z</time>
      </trkpt>
      <trkpt lat="46.05328" lon="6.10778">
        <ele>995</ele>
        <time>2024-07-23T17:31:04Z</time>
      </trkpt>
      <trkpt lat="46.0533" lon="6.10834">
        <ele>996</ele>
        <time>2024-07-23T17:31:11Z</time>
      </trkpt>
      <trkpt lat="46.05342" lon="6.10856">
        <ele>997</ele>
        <time>2024-07-23T17:31:14Z</time>
      </trkpt>
      <trkpt lat="46.05372" lon="6.10856">
        <ele>1000</ele>
        <time>2024-07-23T17:31:20Z</time>
      </trkpt>
      <trkpt lat="46.05414" lon="6.10834">
        <ele>1006</ele>
        <time>2024-07-23T17:31:28Z</time>
      </trkpt>
      <trkpt lat="46.0547" lon="6.10814">
        <ele>1011</ele>
        <time>2024-07-23T17:31:38Z</time>
      </trkpt>
      <trkpt lat="46.05491" lon="6.10822">
        <ele>1011</ele>
        <time>2024-07-23T17:31:42Z</time>
      </trkpt>
      <trkpt lat="46.05511" lon="6.10845">
        <ele>1014</ele>
        <time>2024-07-23T17:31:46Z</time>
      </trkpt>
      <trkpt lat="46.0553" lon="6.10961">
        <ele>1016</ele>
        <time>2024-07-23T17:32:01Z</time>
      </trkpt>
      <trkpt lat="46.05539" lon="6.10985">
        <ele>1018</ele>
        <time>2024-07-23T17:32:04Z</time>
      </trkpt>
      <trkpt lat="46.05553" lon="6.10994">
        <ele>1021</ele>
        <time>2024-07-23T17:32:07Z</time>
      </trkpt>
      <trkpt lat="46.05572" lon="6.10991">
        <ele>1025</ele>
        <time>2024-07-23T17:32:10Z</time>
      </trkpt>
      <trkpt lat="46.05582" lon="6.1097">
        <ele>1027</ele>
        <time>2024-07-23T17:32:14Z</time>
      </trkpt>
      <trkpt lat="46.05581" lon="6.10946">
        <ele>1027</ele>
        <time>2024-07-23T17:32:17Z</time>
      </trkpt>
      <trkpt lat="46.05583" lon="6.10927">
        <ele>1027</ele>
        <time>2024-07-23T17:32:19Z</time>
      </trkpt>
      <trkpt lat="46.05598" lon="6.1091">
        <ele>1030</ele>
        <time>2024-07-23T17:32:22Z</time>
      </trkpt>
      <trkpt lat="46.05615" lon="6.10903">
        <ele>1033</ele>
        <time>2024-07-23T17:32:26Z</time>
      </trkpt>
      <trkpt lat="46.05628" lon="6.10917">
        <ele>1033</ele>
        <time>2024-07-23T17:32:28Z</time>
      </trkpt>
      <trkpt lat="46.05648" lon="6.10924">
        <ele>1036</ele>
        <time>2024-07-23T17:32:32Z</time>
      </trkpt>
      <trkpt lat="46.05667" lon="6.1092">
        <ele>1039</ele>
        <time>2024-07-23T17:32:35Z</time>
      </trkpt>
      <trkpt lat="46.05673" lon="6.10899">
        <ele>1042</ele>
        <time>2024-07-23T17:32:38Z</time>
      </trkpt>
      <trkpt lat="46.05675" lon="6.10869">
        <ele>1045</ele>
        <time>2024-07-23T17:32:42Z</time>
      </trkpt>
      <trkpt lat="46.0569" lon="6.1085">
        <ele>1049</ele>
        <time>2024-07-23T17:32:46Z</time>
      </trkpt>
      <trkpt lat="46.05709" lon="6.10848">
        <ele>1052</ele>
        <time>2024-07-23T17:32:49Z</time>
      </trkpt>
      <trkpt lat="46.05719" lon="6.10872">
        <ele>1051</ele>
        <time>2024-07-23T17:32:52Z</time>
      </trkpt>
      <trkpt lat="46.05718" lon="6.10948">
        <ele>1047</ele>
        <time>2024-07-23T17:33:02Z</time>
      </trkpt>
      <trkpt lat="46.05722" lon="6.10971">
        <ele>1048</ele>
        <time>2024-07-23T17:33:05Z</time>
      </trkpt>
      <trkpt lat="46.05734" lon="6.10989">
        <ele>1050</ele>
        <time>2024-07-23T17:33:08Z</time>
      </trkpt>
      <trkpt lat="46.05749" lon="6.10989">
        <ele>1053</ele>
        <time>2024-07-23T17:33:10Z</time>
      </trkpt>
      <trkpt lat="46.05762" lon="6.10978">
        <ele>1056</ele>
        <time>2024-07-23T17:33:13Z</time>
      </trkpt>
      <trkpt lat="46.05765" lon="6.10961">
        <ele>1057</ele>
        <time>2024-07-23T17:33:15Z</time>
      </trkpt>
      <trkpt lat="46.05765" lon="6.10868">
        <ele>1060</ele>
        <time>2024-07-23T17:33:27Z</time>
      </trkpt>
      <trkpt lat="46.05757" lon="6.10837">
        <ele>1060</ele>
        <time>2024-07-23T17:33:31Z</time>
      </trkpt>
      <trkpt lat="46.0574" lon="6.10796">
        <ele>1061</ele>
        <time>2024-07-23T17:33:37Z</time>
      </trkpt>
      <trkpt lat="46.05737" lon="6.10725">
        <ele>1065</ele>
        <time>2024-07-23T17:33:46Z</time>
      </trkpt>
      <trkpt lat="46.05731" lon="6.10691">
        <ele>1066</ele>
        <time>2024-07-23T17:33:50Z</time>
      </trkpt>
      <trkpt lat="46.05712" lon="6.1065">
        <ele>1064</ele>
        <time>2024-07-23T17:33:56Z</time>
      </trkpt>
      <trkpt lat="46.0571" lon="6.10626">
        <ele>1064</ele>
        <time>2024-07-23T17:33:59Z</time>
      </trkpt>
      <trkpt lat="46.05721" lon="6.10608">
        <ele>1067</ele>
        <time>2024-07-23T17:34:02Z</time>
      </trkpt>
      <trkpt lat="46.05735" lon="6.10601">
        <ele>1070</ele>
        <time>2024-07-23T17:34:05Z</time>
      </trkpt>
      <trkpt lat="46.05753" lon="6.10611">
        <ele>1073</ele>
        <time>2024-07-23T17:34:08Z</time>
      </trkpt>
      <trkpt lat="46.05789" lon="6.10665">
        <ele>1078</ele>
        <time>2024-07-23T17:34:17Z</time>
      </trkpt>
      <trkpt lat="46.05805" lon="6.10704">
        <ele>1079</ele>
        <time>2024-07-23T17:34:23Z</time>
      </trkpt>
      <trkpt lat="46.05813" lon="6.10742">
        <ele>1079</ele>
        <time>2024-07-23T17:34:28Z</time>
      </trkpt>
      <trkpt lat="46.05816" lon="6.10785">
        <ele>1078</ele>
        <time>2024-07-23T17:34:33Z</time>
      </trkpt>
      <trkpt lat="46.05829" lon="6.10822">
        <ele>1079</ele>
        <time>2024-07-23T17:34:38Z</time>
      </trkpt>
      <trkpt lat="46.05861" lon="6.10893">
        <ele>1084</ele>
        <time>2024-07-23T17:34:49Z</time>
      </trkpt>
      <trkpt lat="46.05878" lon="6.10942">
        <ele>1087</ele>
        <time>2024-07-23T17:34:55Z</time>
      </trkpt>
      <trkpt lat="46.05893" lon="6.1097">
        <ele>1090</ele>
        <time>2024-07-23T17:35:00Z</time>
      </trkpt>
      <trkpt lat="46.05909" lon="6.10977">
        <ele>1093</ele>
        <time>2024-07-23T17:35:03Z</time>
      </trkpt>
      <trkpt lat="46.0592" lon="6.10969">
        <ele>1096</ele>
        <time>2024-07-23T17:35:05Z</time>
      </trkpt>
      <trkpt lat="46.05924" lon="6.10951">
        <ele>1097</ele>
        <time>2024-07-23T17:35:07Z</time>
      </trkpt>
      <trkpt lat="46.05922" lon="6.1091">
        <ele>1098</ele>
        <time>2024-07-23T17:35:12Z</time>
      </trkpt>
      <trkpt lat="46.05905" lon="6.10841">
        <ele>1097</ele>
        <time>2024-07-23T17:35:21Z</time>
      </trkpt>
      <trkpt lat="46.05906" lon="6.10768">
        <ele>1100</ele>
        <time>2024-07-23T17:35:30Z</time>
      </trkpt>
      <trkpt lat="46.05915" lon="6.10685">
        <ele>1106</ele>
        <time>2024-07-23T17:35:41Z</time>
      </trkpt>
      <trkpt lat="46.05911" lon="6.10648">
        <ele>1106</ele>
        <time>2024-07-23T17:35:45Z</time>
      </trkpt>
      <trkpt lat="46.05899" lon="6.10614">
        <ele>1104</ele>
        <time>2024-07-23T17:35:50Z</time>
      </trkpt>
      <trkpt lat="46.05898" lon="6.10585">
        <ele>1105</ele>
        <time>2024-07-23T17:35:54Z</time>
      </trkpt>
      <trkpt lat="46.05914" lon="6.10562">
        <ele>1109</ele>
        <time>2024-07-23T17:35:58Z</time>
      </trkpt>
      <trkpt lat="46.05935" lon="6.10558">
        <ele>1111</ele>
        <time>2024-07-23T17:36:01Z</time>
      </trkpt>
      <trkpt lat="46.05953" lon="6.10575">
        <ele>1112</ele>
        <time>2024-07-23T17:36:05Z</time>
      </trkpt>
      <trkpt lat="46.05961" lon="6.10649">
        <ele>1114</ele>
        <time>2024-07-23T17:36:15Z</time>
      </trkpt>
      <trkpt lat="46.05971" lon="6.10675">
        <ele>1116</ele>
        <time>2024-07-23T17:36:18Z</time>
      </trkpt>
      <trkpt lat="46.06077" lon="6.10764">
        <ele>1126</ele>
        <time>2024-07-23T17:36:40Z</time>
      </trkpt>
      <trkpt lat="46.06149" lon="6.10799">
        <ele>1129</ele>
        <time>2024-07-23T17:36:54Z</time>
      </trkpt>
      <trkpt lat="46.06161" lon="6.10828">
        <ele>1130</ele>
        <time>2024-07-23T17:36:58Z</time>
      </trkpt>
      <trkpt lat="46.06215" lon="6.10917">
        <ele>1137</ele>
        <time>2024-07-23T17:37:12Z</time>
      </trkpt>
      <trkpt lat="46.06248" lon="6.10948">
        <ele>1140</ele>
        <time>2024-07-23T17:37:19Z</time>
      </trkpt>
      <trkpt lat="46.06271" lon="6.11002">
        <ele>1141</ele>
        <time>2024-07-23T17:37:27Z</time>
      </trkpt>
      <trkpt lat="46.06294" lon="6.1107">
        <ele>1142</ele>
        <time>2024-07-23T17:37:37Z</time>
      </trkpt>
      <trkpt lat="46.06329" lon="6.11089">
        <ele>1145</ele>
        <time>2024-07-23T17:37:43Z</time>
      </trkpt>
      <trkpt lat="46.06371" lon="6.11124">
        <ele>1149</ele>
        <time>2024-07-23T17:37:52Z</time>
      </trkpt>
      <trkpt lat="46.0639" lon="6.11132">
        <ele>1150</ele>
        <time>2024-07-23T17:37:55Z</time>
      </trkpt>
      <trkpt lat="46.06407" lon="6.11148">
        <ele>1152</ele>
        <time>2024-07-23T17:37:59Z</time>
      </trkpt>
      <trkpt lat="46.06413" lon="6.11185">
        <ele>1153</ele>
        <time>2024-07-23T17:38:04Z</time>
      </trkpt>
      <trkpt lat="46.06409" lon="6.11212">
        <ele>1154</ele>
        <time>2024-07-23T17:38:07Z</time>
      </trkpt>
      <trkpt lat="46.06412" lon="6.11235">
        <ele>1156</ele>
        <time>2024-07-23T17:38:10Z</time>
      </trkpt>
      <trkpt lat="46.06447" lon="6.11336">
        <ele>1167</ele>
        <time>2024-07-23T17:38:24Z</time>
      </trkpt>
      <trkpt lat="46.06501" lon="6.1156">
        <ele>1169</ele>
        <time>2024-07-23T17:38:53Z</time>
      </trkpt>
      <trkpt lat="46.06531" lon="6.11634">
        <ele>1173</ele>
        <time>2024-07-23T17:39:04Z</time>
      </trkpt>
      <trkpt lat="46.06558" lon="6.1171">
        <ele>1177</ele>
        <time>2024-07-23T17:39:14Z</time>
      </trkpt>
      <trkpt lat="46.06577" lon="6.11748">
        <ele>1182</ele>
        <time>2024-07-23T17:39:20Z</time>
      </trkpt>
      <trkpt lat="46.06586" lon="6.11761">
        <ele>1182</ele>
        <time>2024-07-23T17:39:22Z</time>
      </trkpt>
      <trkpt lat="46.06606" lon="6.11767">
        <ele>1183</ele>
        <time>2024-07-23T17:39:26Z</time>
      </trkpt>
      <trkpt lat="46.06653" lon="6.11737">
        <ele>1188</ele>
        <time>2024-07-23T17:39:35Z</time>
      </trkpt>
      <trkpt lat="46.06771" lon="6.11702">
        <ele>1197</ele>
        <time>2024-07-23T17:39:57Z</time>
      </trkpt>
      <trkpt lat="46.06802" lon="6.11685">
        <ele>1199</ele>
        <time>2024-07-23T17:40:02Z</time>
      </trkpt>
      <trkpt lat="46.06839" lon="6.11672">
        <ele>1201</ele>
        <time>2024-07-23T17:40:09Z</time>
      </trkpt>
      <trkpt lat="46.06903" lon="6.11683">
        <ele>1208</ele>
        <time>2024-07-23T17:40:21Z</time>
      </trkpt>
      <trkpt lat="46.06917" lon="6.11692">
        <ele>1209</ele>
        <time>2024-07-23T17:40:23Z</time>
      </trkpt>
      <trkpt lat="46.06924" lon="6.11709">
        <ele>1209</ele>
        <time>2024-07-23T17:40:26Z</time>
      </trkpt>
      <trkpt lat="46.06934" lon="6.11765">
        <ele>1210</ele>
        <time>2024-07-23T17:40:33Z</time>
      </trkpt>
      <trkpt lat="46.06925" lon="6.11795">
        <ele>1210</ele>
        <time>2024-07-23T17:40:37Z</time>
      </trkpt>
      <trkpt lat="46.06888" lon="6.11829">
        <ele>1209</ele>
        <time>2024-07-23T17:40:45Z</time>
      </trkpt>
      <trkpt lat="46.06868" lon="6.11863">
        <ele>1209</ele>
        <time>2024-07-23T17:40:50Z</time>
      </trkpt>
      <trkpt lat="46.06868" lon="6.12003">
        <ele>1215</ele>
        <time>2024-07-23T17:41:08Z</time>
      </trkpt>
      <trkpt lat="46.06817" lon="6.12161">
        <ele>1221</ele>
        <time>2024-07-23T17:41:29Z</time>
      </trkpt>
      <trkpt lat="46.06809" lon="6.12203">
        <ele>1221</ele>
        <time>2024-07-23T17:41:34Z</time>
      </trkpt>
      <trkpt lat="46.06813" lon="6.12232">
        <ele>1222</ele>
        <time>2024-07-23T17:41:38Z</time>
      </trkpt>
      <trkpt lat="46.06821" lon="6.12252">
        <ele>1224</ele>
        <time>2024-07-23T17:41:41Z</time>
      </trkpt>
      <trkpt lat="46.06839" lon="6.12261">
        <ele>1224</ele>
        <time>2024-07-23T17:41:44Z</time>
      </trkpt>
      <trkpt lat="46.06924" lon="6.12233">
        <ele>1229</ele>
        <time>2024-07-23T17:42:00Z</time>
      </trkpt>
      <trkpt lat="46.0704" lon="6.12209">
        <ele>1236</ele>
        <time>2024-07-23T17:42:21Z</time>
      </trkpt>
      <trkpt lat="46.0707" lon="6.12224">
        <ele>1238</ele>
        <time>2024-07-23T17:42:26Z</time>
      </trkpt>
      <trkpt lat="46.07108" lon="6.12265">
        <ele>1239</ele>
        <time>2024-07-23T17:42:35Z</time>
      </trkpt>
      <trkpt lat="46.07146" lon="6.1229">
        <ele>1243</ele>
        <time>2024-07-23T17:42:42Z</time>
      </trkpt>
      <trkpt lat="46.07174" lon="6.12327">
        <ele>1245</ele>
        <time>2024-07-23T17:42:49Z</time>
      </trkpt>
      <trkpt lat="46.07193" lon="6.12345">
        <ele>1246</ele>
        <time>2024-07-23T17:42:53Z</time>
      </trkpt>
      <trkpt lat="46.0724" lon="6.12368">
        <ele>1252</ele>
        <time>2024-07-23T17:43:02Z</time>
      </trkpt>
      <trkpt lat="46.07304" lon="6.12386">
        <ele>1265</ele>
        <time>2024-07-23T17:43:14Z</time>
      </trkpt>
      <trkpt lat="46.07371" lon="6.12444">
        <ele>1271</ele>
        <time>2024-07-23T17:43:27Z</time>
      </trkpt>
      <trkpt lat="46.07394" lon="6.1248">
        <ele>1270</ele>
        <time>2024-07-23T17:43:33Z</time>
      </trkpt>
      <trkpt lat="46.07379" lon="6.12571">
        <ele>1260</ele>
        <time>2024-07-23T17:43:45Z</time>
      </trkpt>
      <trkpt lat="46.07387" lon="6.12606">
        <ele>1260</ele>
        <time>2024-07-23T17:43:50Z</time>
      </trkpt>
      <trkpt lat="46.07404" lon="6.1262">
        <ele>1263</ele>
        <time>2024-07-23T17:43:53Z</time>
      </trkpt>
      <trkpt lat="46.07448" lon="6.12614">
        <ele>1272</ele>
        <time>2024-07-23T17:44:01Z</time>
      </trkpt>
      <trkpt lat="46.07488" lon="6.1262">
        <ele>1279</ele>
        <time>2024-07-23T17:44:08Z</time>
      </trkpt>
      <trkpt lat="46.07521" lon="6.12633">
        <ele>1285</ele>
        <time>2024-07-23T17:44:14Z</time>
      </trkpt>
      <trkpt lat="46.07535" lon="6.12654">
        <ele>1284</ele>
        <time>2024-07-23T17:44:18Z</time>
      </trkpt>
      <trkpt lat="46.0756" lon="6.12733">
        <ele>1279</ele>
        <time>2024-07-23T17:44:28Z</time>
      </trkpt>
      <trkpt lat="46.07595" lon="6.12805">
        <ele>1279</ele>
        <time>2024-07-23T17:44:39Z</time>
      </trkpt>
      <trkpt lat="46.07642" lon="6.1286">
        <ele>1284</ele>
        <time>2024-07-23T17:44:50Z</time>
      </trkpt>
      <trkpt lat="46.07687" lon="6.12888">
        <ele>1287</ele>
        <time>2024-07-23T17:44:59Z</time>
      </trkpt>
      <trkpt lat="46.07717" lon="6.1289">
        <ele>1290</ele>
        <time>2024-07-23T17:45:04Z</time>
      </trkpt>
      <trkpt lat="46.0776" lon="6.12856">
        <ele>1299</ele>
        <time>2024-07-23T17:45:13Z</time>
      </trkpt>
      <trkpt lat="46.078" lon="6.12802">
        <ele>1301</ele>
        <time>2024-07-23T17:45:23Z</time>
      </trkpt>
      <trkpt lat="46.07847" lon="6.12706">
        <ele>1305</ele>
        <time>2024-07-23T17:45:37Z</time>
      </trkpt>
      <trkpt lat="46.07869" lon="6.12683">
        <ele>1307</ele>
        <time>2024-07-23T17:45:42Z</time>
      </trkpt>
      <trkpt lat="46.07897" lon="6.12659">
        <ele>1307</ele>
        <time>2024-07-23T17:45:48Z</time>
      </trkpt>
      <trkpt lat="46.07922" lon="6.1264">
        <ele>1306</ele>
        <time>2024-07-23T17:45:53Z</time>
      </trkpt>
      <trkpt lat="46.07974" lon="6.12607">
        <ele>1307</ele>
        <time>2024-07-23T17:46:03Z</time>
      </trkpt>
      <trkpt lat="46.08018" lon="6.12574">
        <ele>1306</ele>
        <time>2024-07-23T17:46:12Z</time>
      </trkpt>
      <trkpt lat="46.08037" lon="6.12541">
        <ele>1303</ele>
        <time>2024-07-23T17:46:17Z</time>
      </trkpt>
      <trkpt lat="46.0805" lon="6.12502">
        <ele>1300</ele>
        <time>2024-07-23T17:46:22Z</time>
      </trkpt>
      <trkpt lat="46.08062" lon="6.1248">
        <ele>1300</ele>
        <time>2024-07-23T17:46:26Z</time>
      </trkpt>
      <trkpt lat="46.08074" lon="6.12477">
        <ele>1301</ele>
        <time>2024-07-23T17:46:28Z</time>
      </trkpt>
      <trkpt lat="46.08104" lon="6.1249">
        <ele>1303</ele>
        <time>2024-07-23T17:46:34Z</time>
      </trkpt>
      <trkpt lat="46.08138" lon="6.12521">
        <ele>1304</ele>
        <time>2024-07-23T17:46:41Z</time>
      </trkpt>
      <trkpt lat="46.08162" lon="6.12539">
        <ele>1304</ele>
        <time>2024-07-23T17:46:46Z</time>
      </trkpt>
      <trkpt lat="46.08176" lon="6.12567">
        <ele>1304</ele>
        <time>2024-07-23T17:46:50Z</time>
      </trkpt>
      <trkpt lat="46.08198" lon="6.12644">
        <ele>1307</ele>
        <time>2024-07-23T17:47:00Z</time>
      </trkpt>
      <trkpt lat="46.08218" lon="6.12668">
        <ele>1309</ele>
        <time>2024-07-23T17:47:05Z</time>
      </trkpt>
      <trkpt lat="46.08252" lon="6.12689">
        <ele>1312</ele>
        <time>2024-07-23T17:47:11Z</time>
      </trkpt>
      <trkpt lat="46.0829" lon="6.12732">
        <ele>1316</ele>
        <time>2024-07-23T17:47:20Z</time>
      </trkpt>
      <trkpt lat="46.08349" lon="6.12781">
        <ele>1319</ele>
        <time>2024-07-23T17:47:32Z</time>
      </trkpt>
      <trkpt lat="46.08367" lon="6.12806">
        <ele>1321</ele>
        <time>2024-07-23T17:47:36Z</time>
      </trkpt>
      <trkpt lat="46.08415" lon="6.12887">
        <ele>1324</ele>
        <time>2024-07-23T17:47:50Z</time>
      </trkpt>
      <trkpt lat="46.08436" lon="6.12928">
        <ele>1324</ele>
        <time>2024-07-23T17:47:56Z</time>
      </trkpt>
      <trkpt lat="46.08456" lon="6.1299">
        <ele>1325</ele>
        <time>2024-07-23T17:48:04Z</time>
      </trkpt>
      <trkpt lat="46.08494" lon="6.13077">
        <ele>1326</ele>
        <time>2024-07-23T17:48:17Z</time>
      </trkpt>
      <trkpt lat="46.08534" lon="6.13133">
        <ele>1324</ele>
        <time>2024-07-23T17:48:27Z</time>
      </trkpt>
      <trkpt lat="46.08554" lon="6.13145">
        <ele>1324</ele>
        <time>2024-07-23T17:48:31Z</time>
      </trkpt>
      <trkpt lat="46.08583" lon="6.13151">
        <ele>1325</ele>
        <time>2024-07-23T17:48:36Z</time>
      </trkpt>
      <trkpt lat="46.08606" lon="6.1316">
        <ele>1324</ele>
        <time>2024-07-23T17:48:40Z</time>
      </trkpt>
      <trkpt lat="46.08749" lon="6.13257">
        <ele>1325</ele>
        <time>2024-07-23T17:49:08Z</time>
      </trkpt>
      <trkpt lat="46.08805" lon="6.1329">
        <ele>1326</ele>
        <time>2024-07-23T17:49:19Z</time>
      </trkpt>
      <trkpt lat="46.08824" lon="6.1332">
        <ele>1330</ele>
        <time>2024-07-23T17:49:24Z</time>
      </trkpt>
      <trkpt lat="46.0884" lon="6.13371">
        <ele>1334</ele>
        <time>2024-07-23T17:49:31Z</time>
      </trkpt>
      <trkpt lat="46.08849" lon="6.13389">
        <ele>1334</ele>
        <time>2024-07-23T17:49:34Z</time>
      </trkpt>
      <trkpt lat="46.08884" lon="6.13433">
        <ele>1333</ele>
        <time>2024-07-23T17:49:42Z</time>
      </trkpt>
      <trkpt lat="46.08891" lon="6.13449">
        <ele>1333</ele>
        <time>2024-07-23T17:49:44Z</time>
      </trkpt>
      <trkpt lat="46.08932" lon="6.13619">
        <ele>1346</ele>
        <time>2024-07-23T17:50:07Z</time>
      </trkpt>
      <trkpt lat="46.08936" lon="6.13639">
        <ele>1347</ele>
        <time>2024-07-23T17:50:09Z</time>
      </trkpt>
      <trkpt lat="46.08938" lon="6.13678">
        <ele>1348</ele>
        <time>2024-07-23T17:50:14Z</time>
      </trkpt>
      <trkpt lat="46.08942" lon="6.13696">
        <ele>1347</ele>
        <time>2024-07-23T17:50:16Z</time>
      </trkpt>
      <trkpt lat="46.08959" lon="6.13726">
        <ele>1346</ele>
        <time>2024-07-23T17:50:21Z</time>
      </trkpt>
      <trkpt lat="46.08971" lon="6.13741">
        <ele>1347</ele>
        <time>2024-07-23T17:50:24Z</time>
      </trkpt>
      <trkpt lat="46.09026" lon="6.13786">
        <ele>1347</ele>
        <time>2024-07-23T17:50:35Z</time>
      </trkpt>
      <trkpt lat="46.09037" lon="6.138">
        <ele>1347</ele>
        <time>2024-07-23T17:50:38Z</time>
      </trkpt>
      <trkpt lat="46.09087" lon="6.13938">
        <ele>1343</ele>
        <time>2024-07-23T17:50:57Z</time>
      </trkpt>
      <trkpt lat="46.09099" lon="6.13947">
        <ele>1343</ele>
        <time>2024-07-23T17:50:59Z</time>
      </trkpt>
      <trkpt lat="46.09114" lon="6.13952">
        <ele>1343</ele>
        <time>2024-07-23T17:51:02Z</time>
      </trkpt>
      <trkpt lat="46.09176" lon="6.13958">
        <ele>1345</ele>
        <time>2024-07-23T17:51:13Z</time>
      </trkpt>
      <trkpt lat="46.09184" lon="6.13961">
        <ele>1344</ele>
        <time>2024-07-23T17:51:15Z</time>
      </trkpt>
      <trkpt lat="46.09199" lon="6.13973">
        <ele>1343</ele>
        <time>2024-07-23T17:51:18Z</time>
      </trkpt>
      <trkpt lat="46.09205" lon="6.13981">
        <ele>1343</ele>
        <time>2024-07-23T17:51:19Z</time>
      </trkpt>
      <trkpt lat="46.0922" lon="6.14014">
        <ele>1343</ele>
        <time>2024-07-23T17:51:24Z</time>
      </trkpt>
      <trkpt lat="46.09238" lon="6.1409">
        <ele>1349</ele>
        <time>2024-07-23T17:51:34Z</time>
      </trkpt>
      <trkpt lat="46.09258" lon="6.14177">
        <ele>1351</ele>
        <time>2024-07-23T17:51:45Z</time>
      </trkpt>
      <trkpt lat="46.09253" lon="6.14175">
        <ele>1350</ele>
        <time>2024-07-23T17:51:46Z</time>
      </trkpt>
      <trkpt lat="46.09254" lon="6.14194">
        <ele>1350</ele>
        <time>2024-07-23T17:51:49Z</time>
      </trkpt>
      <trkpt lat="46.09283" lon="6.14259">
        <ele>1348</ele>
        <time>2024-07-23T17:51:58Z</time>
      </trkpt>
      <trkpt lat="46.09331" lon="6.14313">
        <ele>1342</ele>
        <time>2024-07-23T17:52:09Z</time>
      </trkpt>
      <trkpt lat="46.09359" lon="6.14366">
        <ele>1338</ele>
        <time>2024-07-23T17:52:17Z</time>
      </trkpt>
      <trkpt lat="46.09391" lon="6.14396">
        <ele>1337</ele>
        <time>2024-07-23T17:52:24Z</time>
      </trkpt>
      <trkpt lat="46.09427" lon="6.1442">
        <ele>1337</ele>
        <time>2024-07-23T17:52:31Z</time>
      </trkpt>
      <trkpt lat="46.09455" lon="6.14462">
        <ele>1335</ele>
        <time>2024-07-23T17:52:38Z</time>
      </trkpt>
      <trkpt lat="46.09513" lon="6.14592">
        <ele>1327</ele>
        <time>2024-07-23T17:52:57Z</time>
      </trkpt>
      <trkpt lat="46.09519" lon="6.14589">
        <ele>1328</ele>
        <time>2024-07-23T17:52:58Z</time>
      </trkpt>
      <trkpt lat="46.0953" lon="6.14647">
        <ele>1325</ele>
        <time>2024-07-23T17:53:06Z</time>
      </trkpt>
      <trkpt lat="46.09538" lon="6.1467">
        <ele>1324</ele>
        <time>2024-07-23T17:53:09Z</time>
      </trkpt>
      <trkpt lat="46.09562" lon="6.14693">
        <ele>1325</ele>
        <time>2024-07-23T17:53:14Z</time>
      </trkpt>
      <trkpt lat="46.09577" lon="6.14699">
        <ele>1326</ele>
        <time>2024-07-23T17:53:17Z</time>
      </trkpt>
      <trkpt lat="46.09603" lon="6.14691">
        <ele>1326</ele>
        <time>2024-07-23T17:53:22Z</time>
      </trkpt>
      <trkpt lat="46.09655" lon="6.14684">
        <ele>1325</ele>
        <time>2024-07-23T17:53:31Z</time>
      </trkpt>
      <trkpt lat="46.09665" lon="6.14679">
        <ele>1325</ele>
        <time>2024-07-23T17:53:33Z</time>
      </trkpt>
      <trkpt lat="46.09737" lon="6.1462">
        <ele>1325</ele>
        <time>2024-07-23T17:53:47Z</time>
      </trkpt>
      <trkpt lat="46.09746" lon="6.14615">
        <ele>1324</ele>
        <time>2024-07-23T17:53:49Z</time>
      </trkpt>
      <trkpt lat="46.09762" lon="6.14617">
        <ele>1323</ele>
        <time>2024-07-23T17:53:52Z</time>
      </trkpt>
      <trkpt lat="46.09779" lon="6.14627">
        <ele>1322</ele>
        <time>2024-07-23T17:53:55Z</time>
      </trkpt>
      <trkpt lat="46.09795" lon="6.14643">
        <ele>1321</ele>
        <time>2024-07-23T17:53:59Z</time>
      </trkpt>
      <trkpt lat="46.09841" lon="6.14703">
        <ele>1318</ele>
        <time>2024-07-23T17:54:10Z</time>
      </trkpt>
      <trkpt lat="46.09851" lon="6.14719">
        <ele>1317</ele>
        <time>2024-07-23T17:54:12Z</time>
      </trkpt>
      <trkpt lat="46.09886" lon="6.14795">
        <ele>1312</ele>
        <time>2024-07-23T17:54:24Z</time>
      </trkpt>
      <trkpt lat="46.09893" lon="6.14808">
        <ele>1312</ele>
        <time>2024-07-23T17:54:26Z</time>
      </trkpt>
      <trkpt lat="46.09901" lon="6.14817">
        <ele>1311</ele>
        <time>2024-07-23T17:54:28Z</time>
      </trkpt>
      <trkpt lat="46.09981" lon="6.14877">
        <ele>1308</ele>
        <time>2024-07-23T17:54:44Z</time>
      </trkpt>
      <trkpt lat="46.09996" lon="6.1488">
        <ele>1308</ele>
        <time>2024-07-23T17:54:46Z</time>
      </trkpt>
      <trkpt lat="46.10024" lon="6.14865">
        <ele>1306</ele>
        <time>2024-07-23T17:54:52Z</time>
      </trkpt>
      <trkpt lat="46.1004" lon="6.14861">
        <ele>1305</ele>
        <time>2024-07-23T17:54:55Z</time>
      </trkpt>
      <trkpt lat="46.10048" lon="6.14861">
        <ele>1305</ele>
        <time>2024-07-23T17:54:56Z</time>
      </trkpt>
      <trkpt lat="46.10062" lon="6.14871">
        <ele>1304</ele>
        <time>2024-07-23T17:54:59Z</time>
      </trkpt>
      <trkpt lat="46.10115" lon="6.14947">
        <ele>1302</ele>
        <time>2024-07-23T17:55:12Z</time>
      </trkpt>
      <trkpt lat="46.10175" lon="6.15048">
        <ele>1299</ele>
        <time>2024-07-23T17:55:28Z</time>
      </trkpt>
      <trkpt lat="46.10197" lon="6.15079">
        <ele>1298</ele>
        <time>2024-07-23T17:55:34Z</time>
      </trkpt>
      <trkpt lat="46.1026" lon="6.15157">
        <ele>1292</ele>
        <time>2024-07-23T17:55:49Z</time>
      </trkpt>
      <trkpt lat="46.10407" lon="6.15285">
        <ele>1285</ele>
        <time>2024-07-23T17:56:19Z</time>
      </trkpt>
      <trkpt lat="46.10443" lon="6.15305">
        <ele>1285</ele>
        <time>2024-07-23T17:56:26Z</time>
      </trkpt>
      <trkpt lat="46.10499" lon="6.15328">
        <ele>1288</ele>
        <time>2024-07-23T17:56:36Z</time>
      </trkpt>
      <trkpt lat="46.10522" lon="6.15326">
        <ele>1288</ele>
        <time>2024-07-23T17:56:41Z</time>
      </trkpt>
      <trkpt lat="46.10549" lon="6.15318">
        <ele>1287</ele>
        <time>2024-07-23T17:56:45Z</time>
      </trkpt>
      <trkpt lat="46.10562" lon="6.15318">
        <ele>1287</ele>
        <time>2024-07-23T17:56:48Z</time>
      </trkpt>
      <trkpt lat="46.1063" lon="6.15331">
        <ele>1287</ele>
        <time>2024-07-23T17:57:00Z</time>
      </trkpt>
      <trkpt lat="46.10661" lon="6.15344">
        <ele>1288</ele>
        <time>2024-07-23T17:57:06Z</time>
      </trkpt>
      <trkpt lat="46.10733" lon="6.15382">
        <ele>1286</ele>
        <time>2024-07-23T17:57:19Z</time>
      </trkpt>
      <trkpt lat="46.1079" lon="6.15416">
        <ele>1283</ele>
        <time>2024-07-23T17:57:30Z</time>
      </trkpt>
      <trkpt lat="46.10831" lon="6.15448">
        <ele>1282</ele>
        <time>2024-07-23T17:57:39Z</time>
      </trkpt>
      <trkpt lat="46.1098" lon="6.15553">
        <ele>1270</ele>
        <time>2024-07-23T17:58:08Z</time>
      </trkpt>
      <trkpt lat="46.11071" lon="6.15625">
        <ele>1267</ele>
        <time>2024-07-23T17:58:27Z</time>
      </trkpt>
      <trkpt lat="46.11146" lon="6.15692">
        <ele>1263</ele>
        <time>2024-07-23T17:58:42Z</time>
      </trkpt>
      <trkpt lat="46.11186" lon="6.15731">
        <ele>1259</ele>
        <time>2024-07-23T17:58:51Z</time>
      </trkpt>
      <trkpt lat="46.11247" lon="6.15797">
        <ele>1256</ele>
        <time>2024-07-23T17:59:04Z</time>
      </trkpt>
      <trkpt lat="46.11274" lon="6.1582">
        <ele>1254</ele>
        <time>2024-07-23T17:59:10Z</time>
      </trkpt>
      <trkpt lat="46.11345" lon="6.1589">
        <ele>1247</ele>
        <time>2024-07-23T17:59:25Z</time>
      </trkpt>
      <trkpt lat="46.11403" lon="6.15932">
        <ele>1243</ele>
        <time>2024-07-23T17:59:37Z</time>
      </trkpt>
      <trkpt lat="46.11456" lon="6.15986">
        <ele>1242</ele>
        <time>2024-07-23T17:59:48Z</time>
      </trkpt>
      <trkpt lat="46.11481" lon="6.1602">
        <ele>1241</ele>
        <time>2024-07-23T17:59:55Z</time>
      </trkpt>
      <trkpt lat="46.11528" lon="6.16124">
        <ele>1238</ele>
        <time>2024-07-23T18:00:10Z</time>
      </trkpt>
      <trkpt lat="46.11538" lon="6.16157">
        <ele>1238</ele>
        <time>2024-07-23T18:00:14Z</time>
      </trkpt>
      <trkpt lat="46.11547" lon="6.16174">
        <ele>1238</ele>
        <time>2024-07-23T18:00:17Z</time>
      </trkpt>
      <trkpt lat="46.11556" lon="6.16185">
        <ele>1238</ele>
        <time>2024-07-23T18:00:19Z</time>
      </trkpt>
      <trkpt lat="46.1157" lon="6.16197">
        <ele>1238</ele>
        <time>2024-07-23T18:00:22Z</time>
      </trkpt>
      <trkpt lat="46.116" lon="6.16216">
        <ele>1235</ele>
        <time>2024-07-23T18:00:28Z</time>
      </trkpt>
      <trkpt lat="46.1165" lon="6.16233">
        <ele>1228</ele>
        <time>2024-07-23T18:00:37Z</time>
      </trkpt>
      <trkpt lat="46.11673" lon="6.16246">
        <ele>1226</ele>
        <time>2024-07-23T18:00:41Z</time>
      </trkpt>
      <trkpt lat="46.11785" lon="6.16317">
        <ele>1218</ele>
        <time>2024-07-23T18:01:03Z</time>
      </trkpt>
      <trkpt lat="46.11811" lon="6.16343">
        <ele>1217</ele>
        <time>2024-07-23T18:01:09Z</time>
      </trkpt>
      <trkpt lat="46.1184" lon="6.16384">
        <ele>1214</ele>
        <time>2024-07-23T18:01:16Z</time>
      </trkpt>
      <trkpt lat="46.11882" lon="6.1646">
        <ele>1211</ele>
        <time>2024-07-23T18:01:28Z</time>
      </trkpt>
      <trkpt lat="46.11912" lon="6.16533">
        <ele>1208</ele>
        <time>2024-07-23T18:01:38Z</time>
      </trkpt>
      <trkpt lat="46.11924" lon="6.16573">
        <ele>1205</ele>
        <time>2024-07-23T18:01:44Z</time>
      </trkpt>
      <trkpt lat="46.11927" lon="6.16593">
        <ele>1204</ele>
        <time>2024-07-23T18:01:46Z</time>
      </trkpt>
      <trkpt lat="46.11933" lon="6.16709">
        <ele>1195</ele>
        <time>2024-07-23T18:02:01Z</time>
      </trkpt>
      <trkpt lat="46.1192" lon="6.16803">
        <ele>1189</ele>
        <time>2024-07-23T18:02:12Z</time>
      </trkpt>
      <trkpt lat="46.11919" lon="6.16829">
        <ele>1187</ele>
        <time>2024-07-23T18:02:16Z</time>
      </trkpt>
      <trkpt lat="46.11924" lon="6.16908">
        <ele>1182</ele>
        <time>2024-07-23T18:02:25Z</time>
      </trkpt>
      <trkpt lat="46.11933" lon="6.16965">
        <ele>1177</ele>
        <time>2024-07-23T18:02:33Z</time>
      </trkpt>
      <trkpt lat="46.11928" lon="6.1702">
        <ele>1176</ele>
        <time>2024-07-23T18:02:39Z</time>
      </trkpt>
      <trkpt lat="46.11939" lon="6.17068">
        <ele>1173</ele>
        <time>2024-07-23T18:02:46Z</time>
      </trkpt>
      <trkpt lat="46.11944" lon="6.17153">
        <ele>1172</ele>
        <time>2024-07-23T18:02:56Z</time>
      </trkpt>
      <trkpt lat="46.11954" lon="6.17173">
        <ele>1172</ele>
        <time>2024-07-23T18:02:59Z</time>
      </trkpt>
      <trkpt lat="46.11964" lon="6.17182">
        <ele>1172</ele>
        <time>2024-07-23T18:03:01Z</time>
      </trkpt>
      <trkpt lat="46.11957" lon="6.17258">
        <ele>1168</ele>
        <time>2024-07-23T18:03:11Z</time>
      </trkpt>
      <trkpt lat="46.11974" lon="6.17403">
        <ele>1160</ele>
        <time>2024-07-23T18:03:29Z</time>
      </trkpt>
      <trkpt lat="46.11986" lon="6.1747">
        <ele>1156</ele>
        <time>2024-07-23T18:03:37Z</time>
      </trkpt>
      <trkpt lat="46.11995" lon="6.17497">
        <ele>1155</ele>
        <time>2024-07-23T18:03:41Z</time>
      </trkpt>
      <trkpt lat="46.12006" lon="6.17512">
        <ele>1156</ele>
        <time>2024-07-23T18:03:44Z</time>
      </trkpt>
      <trkpt lat="46.12016" lon="6.17516">
        <ele>1157</ele>
        <time>2024-07-23T18:03:46Z</time>
      </trkpt>
      <trkpt lat="46.12032" lon="6.17514">
        <ele>1160</ele>
        <time>2024-07-23T18:03:49Z</time>
      </trkpt>
      <trkpt lat="46.12036" lon="6.17516">
        <ele>1160</ele>
        <time>2024-07-23T18:03:49Z</time>
      </trkpt>
      <trkpt lat="46.12041" lon="6.1753">
        <ele>1160</ele>
        <time>2024-07-23T18:03:51Z</time>
      </trkpt>
      <trkpt lat="46.12036" lon="6.17542">
        <ele>1158</ele>
        <time>2024-07-23T18:03:53Z</time>
      </trkpt>
      <trkpt lat="46.12027" lon="6.17544">
        <ele>1156</ele>
        <time>2024-07-23T18:03:55Z</time>
      </trkpt>
      <trkpt lat="46.12015" lon="6.17542">
        <ele>1154</ele>
        <time>2024-07-23T18:03:57Z</time>
      </trkpt>
      <trkpt lat="46.12008" lon="6.17535">
        <ele>1154</ele>
        <time>2024-07-23T18:03:58Z</time>
      </trkpt>
      <trkpt lat="46.11924" lon="6.17486">
        <ele>1143</ele>
        <time>2024-07-23T18:04:14Z</time>
      </trkpt>
      <trkpt lat="46.11858" lon="6.17425">
        <ele>1136</ele>
        <time>2024-07-23T18:04:28Z</time>
      </trkpt>
      <trkpt lat="46.11843" lon="6.17398">
        <ele>1136</ele>
        <time>2024-07-23T18:04:33Z</time>
      </trkpt>
      <trkpt lat="46.11838" lon="6.17398">
        <ele>1135</ele>
        <time>2024-07-23T18:04:34Z</time>
      </trkpt>
      <trkpt lat="46.11831" lon="6.17405">
        <ele>1133</ele>
        <time>2024-07-23T18:04:35Z</time>
      </trkpt>
      <trkpt lat="46.1183" lon="6.17418">
        <ele>1131</ele>
        <time>2024-07-23T18:04:37Z</time>
      </trkpt>
      <trkpt lat="46.11845" lon="6.17445">
        <ele>1130</ele>
        <time>2024-07-23T18:04:41Z</time>
      </trkpt>
      <trkpt lat="46.11879" lon="6.17597">
        <ele>1120</ele>
        <time>2024-07-23T18:05:01Z</time>
      </trkpt>
      <trkpt lat="46.1189" lon="6.17631">
        <ele>1119</ele>
        <time>2024-07-23T18:05:05Z</time>
      </trkpt>
      <trkpt lat="46.11915" lon="6.17669">
        <ele>1119</ele>
        <time>2024-07-23T18:05:12Z</time>
      </trkpt>
      <trkpt lat="46.11922" lon="6.17685">
        <ele>1117</ele>
        <time>2024-07-23T18:05:14Z</time>
      </trkpt>
      <trkpt lat="46.11929" lon="6.17711">
        <ele>1112</ele>
        <time>2024-07-23T18:05:17Z</time>
      </trkpt>
      <trkpt lat="46.11937" lon="6.17725">
        <ele>1111</ele>
        <time>2024-07-23T18:05:20Z</time>
      </trkpt>
      <trkpt lat="46.11964" lon="6.17751">
        <ele>1112</ele>
        <time>2024-07-23T18:05:25Z</time>
      </trkpt>
      <trkpt lat="46.12008" lon="6.17813">
        <ele>1105</ele>
        <time>2024-07-23T18:05:36Z</time>
      </trkpt>
      <trkpt lat="46.1202" lon="6.17834">
        <ele>1100</ele>
        <time>2024-07-23T18:05:40Z</time>
      </trkpt>
      <trkpt lat="46.12043" lon="6.17899">
        <ele>1088</ele>
        <time>2024-07-23T18:05:49Z</time>
      </trkpt>
      <trkpt lat="46.12041" lon="6.17922">
        <ele>1083</ele>
        <time>2024-07-23T18:05:52Z</time>
      </trkpt>
      <trkpt lat="46.12036" lon="6.17929">
        <ele>1082</ele>
        <time>2024-07-23T18:05:53Z</time>
      </trkpt>
      <trkpt lat="46.12026" lon="6.17933">
        <ele>1081</ele>
        <time>2024-07-23T18:05:55Z</time>
      </trkpt>
      <trkpt lat="46.12019" lon="6.17929">
        <ele>1080</ele>
        <time>2024-07-23T18:05:56Z</time>
      </trkpt>
      <trkpt lat="46.12007" lon="6.17911">
        <ele>1082</ele>
        <time>2024-07-23T18:05:59Z</time>
      </trkpt>
      <trkpt lat="46.11988" lon="6.17874">
        <ele>1087</ele>
        <time>2024-07-23T18:06:05Z</time>
      </trkpt>
      <trkpt lat="46.11967" lon="6.17852">
        <ele>1086</ele>
        <time>2024-07-23T18:06:09Z</time>
      </trkpt>
      <trkpt lat="46.11953" lon="6.17843">
        <ele>1084</ele>
        <time>2024-07-23T18:06:12Z</time>
      </trkpt>
      <trkpt lat="46.11888" lon="6.17813">
        <ele>1080</ele>
        <time>2024-07-23T18:06:24Z</time>
      </trkpt>
      <trkpt lat="46.11867" lon="6.17809">
        <ele>1079</ele>
        <time>2024-07-23T18:06:28Z</time>
      </trkpt>
      <trkpt lat="46.11856" lon="6.17811">
        <ele>1077</ele>
        <time>2024-07-23T18:06:30Z</time>
      </trkpt>
      <trkpt lat="46.11829" lon="6.17826">
        <ele>1070</ele>
        <time>2024-07-23T18:06:35Z</time>
      </trkpt>
      <trkpt lat="46.11817" lon="6.17838">
        <ele>1066</ele>
        <time>2024-07-23T18:06:38Z</time>
      </trkpt>
      <trkpt lat="46.11794" lon="6.17874">
        <ele>1058</ele>
        <time>2024-07-23T18:06:44Z</time>
      </trkpt>
      <trkpt lat="46.11776" lon="6.1788">
        <ele>1055</ele>
        <time>2024-07-23T18:06:47Z</time>
      </trkpt>
      <trkpt lat="46.11748" lon="6.17876">
        <ele>1053</ele>
        <time>2024-07-23T18:06:52Z</time>
      </trkpt>
      <trkpt lat="46.11742" lon="6.17879">
        <ele>1051</ele>
        <time>2024-07-23T18:06:53Z</time>
      </trkpt>
      <trkpt lat="46.11737" lon="6.17886">
        <ele>1050</ele>
        <time>2024-07-23T18:06:55Z</time>
      </trkpt>
      <trkpt lat="46.11736" lon="6.17894">
        <ele>1049</ele>
        <time>2024-07-23T18:06:56Z</time>
      </trkpt>
      <trkpt lat="46.11738" lon="6.17901">
        <ele>1049</ele>
        <time>2024-07-23T18:06:56Z</time>
      </trkpt>
      <trkpt lat="46.11746" lon="6.17909">
        <ele>1050</ele>
        <time>2024-07-23T18:06:58Z</time>
      </trkpt>
      <trkpt lat="46.11774" lon="6.17921">
        <ele>1050</ele>
        <time>2024-07-23T18:07:03Z</time>
      </trkpt>
      <trkpt lat="46.11793" lon="6.17918">
        <ele>1051</ele>
        <time>2024-07-23T18:07:07Z</time>
      </trkpt>
      <trkpt lat="46.11823" lon="6.17905">
        <ele>1055</ele>
        <time>2024-07-23T18:07:12Z</time>
      </trkpt>
      <trkpt lat="46.11838" lon="6.17901">
        <ele>1057</ele>
        <time>2024-07-23T18:07:15Z</time>
      </trkpt>
      <trkpt lat="46.11856" lon="6.17903">
        <ele>1058</ele>
        <time>2024-07-23T18:07:18Z</time>
      </trkpt>
      <trkpt lat="46.11865" lon="6.17908">
        <ele>1059</ele>
        <time>2024-07-23T18:07:20Z</time>
      </trkpt>
      <trkpt lat="46.1188" lon="6.17932">
        <ele>1056</ele>
        <time>2024-07-23T18:07:24Z</time>
      </trkpt>
      <trkpt lat="46.11891" lon="6.17968">
        <ele>1051</ele>
        <time>2024-07-23T18:07:29Z</time>
      </trkpt>
      <trkpt lat="46.11916" lon="6.18105">
        <ele>1025</ele>
        <time>2024-07-23T18:07:46Z</time>
      </trkpt>
      <trkpt lat="46.1194" lon="6.18144">
        <ele>1020</ele>
        <time>2024-07-23T18:07:53Z</time>
      </trkpt>
      <trkpt lat="46.11967" lon="6.18169">
        <ele>1018</ele>
        <time>2024-07-23T18:07:58Z</time>
      </trkpt>
      <trkpt lat="46.11999" lon="6.18183">
        <ele>1019</ele>
        <time>2024-07-23T18:08:04Z</time>
      </trkpt>
      <trkpt lat="46.12058" lon="6.18221">
        <ele>1011</ele>
        <time>2024-07-23T18:08:16Z</time>
      </trkpt>
      <trkpt lat="46.12083" lon="6.18228">
        <ele>1011</ele>
        <time>2024-07-23T18:08:20Z</time>
      </trkpt>
      <trkpt lat="46.1212" lon="6.18226">
        <ele>1013</ele>
        <time>2024-07-23T18:08:27Z</time>
      </trkpt>
      <trkpt lat="46.12126" lon="6.18232">
        <ele>1012</ele>
        <time>2024-07-23T18:08:28Z</time>
      </trkpt>
      <trkpt lat="46.12127" lon="6.18245">
        <ele>1008</ele>
        <time>2024-07-23T18:08:30Z</time>
      </trkpt>
      <trkpt lat="46.12126" lon="6.1825">
        <ele>1007</ele>
        <time>2024-07-23T18:08:31Z</time>
      </trkpt>
      <trkpt lat="46.1212" lon="6.18257">
        <ele>1004</ele>
        <time>2024-07-23T18:08:32Z</time>
      </trkpt>
      <trkpt lat="46.12115" lon="6.18258">
        <ele>1004</ele>
        <time>2024-07-23T18:08:33Z</time>
      </trkpt>
      <trkpt lat="46.1197" lon="6.18276">
        <ele>991</ele>
        <time>2024-07-23T18:08:59Z</time>
      </trkpt>
      <trkpt lat="46.11879" lon="6.18306">
        <ele>981</ele>
        <time>2024-07-23T18:09:15Z</time>
      </trkpt>
      <trkpt lat="46.11844" lon="6.18323">
        <ele>976</ele>
        <time>2024-07-23T18:09:22Z</time>
      </trkpt>
      <trkpt lat="46.11862" lon="6.18318">
        <ele>978</ele>
        <time>2024-07-23T18:09:25Z</time>
      </trkpt>
      <trkpt lat="46.11758" lon="6.18353">
        <ele>966</ele>
        <time>2024-07-23T18:09:44Z</time>
      </trkpt>
      <trkpt lat="46.11744" lon="6.18354">
        <ele>964</ele>
        <time>2024-07-23T18:09:47Z</time>
      </trkpt>
      <trkpt lat="46.11731" lon="6.18352">
        <ele>962</ele>
        <time>2024-07-23T18:09:49Z</time>
      </trkpt>
      <trkpt lat="46.11707" lon="6.18343">
        <ele>960</ele>
        <time>2024-07-23T18:09:53Z</time>
      </trkpt>
      <trkpt lat="46.11685" lon="6.1833">
        <ele>959</ele>
        <time>2024-07-23T18:09:58Z</time>
      </trkpt>
      <trkpt lat="46.11653" lon="6.18295">
        <ele>964</ele>
        <time>2024-07-23T18:10:05Z</time>
      </trkpt>
      <trkpt lat="46.11645" lon="6.18292">
        <ele>964</ele>
        <time>2024-07-23T18:10:06Z</time>
      </trkpt>
      <trkpt lat="46.11636" lon="6.18292">
        <ele>963</ele>
        <time>2024-07-23T18:10:08Z</time>
      </trkpt>
      <trkpt lat="46.11611" lon="6.18298">
        <ele>959</ele>
        <time>2024-07-23T18:10:12Z</time>
      </trkpt>
      <trkpt lat="46.11574" lon="6.18295">
        <ele>958</ele>
        <time>2024-07-23T18:10:19Z</time>
      </trkpt>
      <trkpt lat="46.11563" lon="6.183">
        <ele>956</ele>
        <time>2024-07-23T18:10:21Z</time>
      </trkpt>
      <trkpt lat="46.11558" lon="6.18308">
        <ele>954</ele>
        <time>2024-07-23T18:10:22Z</time>
      </trkpt>
      <trkpt lat="46.11557" lon="6.18319">
        <ele>951</ele>
        <time>2024-07-23T18:10:24Z</time>
      </trkpt>
      <trkpt lat="46.11559" lon="6.18329">
        <ele>949</ele>
        <time>2024-07-23T18:10:25Z</time>
      </trkpt>
      <trkpt lat="46.11566" lon="6.1834">
        <ele>946</ele>
        <time>2024-07-23T18:10:27Z</time>
      </trkpt>
      <trkpt lat="46.11573" lon="6.18348">
        <ele>944</ele>
        <time>2024-07-23T18:10:28Z</time>
      </trkpt>
      <trkpt lat="46.11597" lon="6.1835">
        <ele>945</ele>
        <time>2024-07-23T18:10:33Z</time>
      </trkpt>
      <trkpt lat="46.11608" lon="6.18357">
        <ele>945</ele>
        <time>2024-07-23T18:10:35Z</time>
      </trkpt>
      <trkpt lat="46.11618" lon="6.18368">
        <ele>944</ele>
        <time>2024-07-23T18:10:37Z</time>
      </trkpt>
      <trkpt lat="46.11624" lon="6.1838">
        <ele>943</ele>
        <time>2024-07-23T18:10:39Z</time>
      </trkpt>
      <trkpt lat="46.11629" lon="6.18406">
        <ele>939</ele>
        <time>2024-07-23T18:10:42Z</time>
      </trkpt>
      <trkpt lat="46.1162" lon="6.18494">
        <ele>930</ele>
        <time>2024-07-23T18:10:53Z</time>
      </trkpt>
      <trkpt lat="46.11623" lon="6.18543">
        <ele>926</ele>
        <time>2024-07-23T18:10:59Z</time>
      </trkpt>
      <trkpt lat="46.1163" lon="6.18565">
        <ele>925</ele>
        <time>2024-07-23T18:11:02Z</time>
      </trkpt>
      <trkpt lat="46.11672" lon="6.18642">
        <ele>928</ele>
        <time>2024-07-23T18:11:14Z</time>
      </trkpt>
      <trkpt lat="46.11682" lon="6.18671">
        <ele>928</ele>
        <time>2024-07-23T18:11:18Z</time>
      </trkpt>
      <trkpt lat="46.11684" lon="6.1869">
        <ele>927</ele>
        <time>2024-07-23T18:11:21Z</time>
      </trkpt>
      <trkpt lat="46.11681" lon="6.18776">
        <ele>923</ele>
        <time>2024-07-23T18:11:31Z</time>
      </trkpt>
      <trkpt lat="46.11675" lon="6.18805">
        <ele>922</ele>
        <time>2024-07-23T18:11:35Z</time>
      </trkpt>
      <trkpt lat="46.11661" lon="6.18839">
        <ele>919</ele>
        <time>2024-07-23T18:11:40Z</time>
      </trkpt>
      <trkpt lat="46.11546" lon="6.19002">
        <ele>902</ele>
        <time>2024-07-23T18:12:09Z</time>
      </trkpt>
      <trkpt lat="46.11474" lon="6.1908">
        <ele>898</ele>
        <time>2024-07-23T18:12:25Z</time>
      </trkpt>
      <trkpt lat="46.11446" lon="6.19105">
        <ele>894</ele>
        <time>2024-07-23T18:12:31Z</time>
      </trkpt>
      <trkpt lat="46.11342" lon="6.19158">
        <ele>888</ele>
        <time>2024-07-23T18:12:50Z</time>
      </trkpt>
      <trkpt lat="46.11331" lon="6.19166">
        <ele>889</ele>
        <time>2024-07-23T18:12:52Z</time>
      </trkpt>
      <trkpt lat="46.11322" lon="6.19178">
        <ele>888</ele>
        <time>2024-07-23T18:12:54Z</time>
      </trkpt>
      <trkpt lat="46.11318" lon="6.19191">
        <ele>888</ele>
        <time>2024-07-23T18:12:56Z</time>
      </trkpt>
      <trkpt lat="46.11317" lon="6.19211">
        <ele>887</ele>
        <time>2024-07-23T18:12:59Z</time>
      </trkpt>
      <trkpt lat="46.1132" lon="6.19224">
        <ele>887</ele>
        <time>2024-07-23T18:13:00Z</time>
      </trkpt>
      <trkpt lat="46.11328" lon="6.19238">
        <ele>887</ele>
        <time>2024-07-23T18:13:03Z</time>
      </trkpt>
      <trkpt lat="46.11336" lon="6.19245">
        <ele>887</ele>
        <time>2024-07-23T18:13:04Z</time>
      </trkpt>
      <trkpt lat="46.11353" lon="6.19247">
        <ele>885</ele>
        <time>2024-07-23T18:13:07Z</time>
      </trkpt>
      <trkpt lat="46.11359" lon="6.19245">
        <ele>885</ele>
        <time>2024-07-23T18:13:08Z</time>
      </trkpt>
      <trkpt lat="46.11387" lon="6.19219">
        <ele>884</ele>
        <time>2024-07-23T18:13:14Z</time>
      </trkpt>
      <trkpt lat="46.11404" lon="6.19209">
        <ele>885</ele>
        <time>2024-07-23T18:13:18Z</time>
      </trkpt>
      <trkpt lat="46.11433" lon="6.19204">
        <ele>884</ele>
        <time>2024-07-23T18:13:23Z</time>
      </trkpt>
      <trkpt lat="46.11456" lon="6.19205">
        <ele>884</ele>
        <time>2024-07-23T18:13:27Z</time>
      </trkpt>
      <trkpt lat="46.11528" lon="6.19227">
        <ele>878</ele>
        <time>2024-07-23T18:13:40Z</time>
      </trkpt>
      <trkpt lat="46.11564" lon="6.19227">
        <ele>878</ele>
        <time>2024-07-23T18:13:46Z</time>
      </trkpt>
      <trkpt lat="46.11572" lon="6.19231">
        <ele>877</ele>
        <time>2024-07-23T18:13:48Z</time>
      </trkpt>
      <trkpt lat="46.11579" lon="6.19239">
        <ele>875</ele>
        <time>2024-07-23T18:13:50Z</time>
      </trkpt>
      <trkpt lat="46.11581" lon="6.19253">
        <ele>872</ele>
        <time>2024-07-23T18:13:51Z</time>
      </trkpt>
      <trkpt lat="46.11578" lon="6.19266">
        <ele>870</ele>
        <time>2024-07-23T18:13:53Z</time>
      </trkpt>
      <trkpt lat="46.11571" lon="6.19275">
        <ele>868</ele>
        <time>2024-07-23T18:13:55Z</time>
      </trkpt>
      <trkpt lat="46.11561" lon="6.19276">
        <ele>867</ele>
        <time>2024-07-23T18:13:56Z</time>
      </trkpt>
      <trkpt lat="46.11529" lon="6.19269">
        <ele>869</ele>
        <time>2024-07-23T18:14:02Z</time>
      </trkpt>
      <trkpt lat="46.11509" lon="6.19274">
        <ele>868</ele>
        <time>2024-07-23T18:14:06Z</time>
      </trkpt>
      <trkpt lat="46.11454" lon="6.19324">
        <ele>862</ele>
        <time>2024-07-23T18:14:17Z</time>
      </trkpt>
      <trkpt lat="46.11412" lon="6.19344">
        <ele>864</ele>
        <time>2024-07-23T18:14:25Z</time>
      </trkpt>
      <trkpt lat="46.11408" lon="6.19349">
        <ele>864</ele>
        <time>2024-07-23T18:14:26Z</time>
      </trkpt>
      <trkpt lat="46.11407" lon="6.19357">
        <ele>862</ele>
        <time>2024-07-23T18:14:27Z</time>
      </trkpt>
      <trkpt lat="46.11409" lon="6.19373">
        <ele>859</ele>
        <time>2024-07-23T18:14:29Z</time>
      </trkpt>
      <trkpt lat="46.11416" lon="6.19382">
        <ele>855</ele>
        <time>2024-07-23T18:14:31Z</time>
      </trkpt>
      <trkpt lat="46.11423" lon="6.19382">
        <ele>854</ele>
        <time>2024-07-23T18:14:32Z</time>
      </trkpt>
      <trkpt lat="46.1146" lon="6.19361">
        <ele>853</ele>
        <time>2024-07-23T18:14:39Z</time>
      </trkpt>
      <trkpt lat="46.11468" lon="6.19358">
        <ele>853</ele>
        <time>2024-07-23T18:14:41Z</time>
      </trkpt>
      <trkpt lat="46.11482" lon="6.19358">
        <ele>851</ele>
        <time>2024-07-23T18:14:43Z</time>
      </trkpt>
      <trkpt lat="46.115" lon="6.19363">
        <ele>848</ele>
        <time>2024-07-23T18:14:46Z</time>
      </trkpt>
      <trkpt lat="46.11565" lon="6.19395">
        <ele>841</ele>
        <time>2024-07-23T18:14:59Z</time>
      </trkpt>
      <trkpt lat="46.11587" lon="6.19408">
        <ele>839</ele>
        <time>2024-07-23T18:15:03Z</time>
      </trkpt>
      <trkpt lat="46.11603" lon="6.19423">
        <ele>838</ele>
        <time>2024-07-23T18:15:06Z</time>
      </trkpt>
      <trkpt lat="46.11676" lon="6.19523">
        <ele>825</ele>
        <time>2024-07-23T18:15:24Z</time>
      </trkpt>
      <trkpt lat="46.117" lon="6.19545">
        <ele>822</ele>
        <time>2024-07-23T18:15:29Z</time>
      </trkpt>
      <trkpt lat="46.11836" lon="6.19604">
        <ele>813</ele>
        <time>2024-07-23T18:15:54Z</time>
      </trkpt>
      <trkpt lat="46.11853" lon="6.19608">
        <ele>811</ele>
        <time>2024-07-23T18:15:58Z</time>
      </trkpt>
      <trkpt lat="46.11869" lon="6.19607">
        <ele>810</ele>
        <time>2024-07-23T18:16:00Z</time>
      </trkpt>
      <trkpt lat="46.11888" lon="6.19595">
        <ele>811</ele>
        <time>2024-07-23T18:16:04Z</time>
      </trkpt>
      <trkpt lat="46.11901" lon="6.19578">
        <ele>812</ele>
        <time>2024-07-23T18:16:07Z</time>
      </trkpt>
      <trkpt lat="46.11958" lon="6.19486">
        <ele>818</ele>
        <time>2024-07-23T18:16:22Z</time>
      </trkpt>
      <trkpt lat="46.11969" lon="6.19474">
        <ele>817</ele>
        <time>2024-07-23T18:16:25Z</time>
      </trkpt>
      <trkpt lat="46.1198" lon="6.19468">
        <ele>816</ele>
        <time>2024-07-23T18:16:27Z</time>
      </trkpt>
      <trkpt lat="46.12" lon="6.19465">
        <ele>812</ele>
        <time>2024-07-23T18:16:31Z</time>
      </trkpt>
      <trkpt lat="46.12012" lon="6.19469">
        <ele>811</ele>
        <time>2024-07-23T18:16:33Z</time>
      </trkpt>
      <trkpt lat="46.12041" lon="6.19491">
        <ele>806</ele>
        <time>2024-07-23T18:16:39Z</time>
      </trkpt>
      <trkpt lat="46.12065" lon="6.19504">
        <ele>803</ele>
        <time>2024-07-23T18:16:43Z</time>
      </trkpt>
      <trkpt lat="46.12106" lon="6.19517">
        <ele>800</ele>
        <time>2024-07-23T18:16:51Z</time>
      </trkpt>
      <trkpt lat="46.12115" lon="6.19518">
        <ele>800</ele>
        <time>2024-07-23T18:16:52Z</time>
      </trkpt>
      <trkpt lat="46.12123" lon="6.19514">
        <ele>800</ele>
        <time>2024-07-23T18:16:54Z</time>
      </trkpt>
      <trkpt lat="46.1213" lon="6.19506">
        <ele>800</ele>
        <time>2024-07-23T18:16:55Z</time>
      </trkpt>
      <trkpt lat="46.12135" lon="6.19494">
        <ele>801</ele>
        <time>2024-07-23T18:16:57Z</time>
      </trkpt>
      <trkpt lat="46.12142" lon="6.19368">
        <ele>805</ele>
        <time>2024-07-23T18:17:13Z</time>
      </trkpt>
      <trkpt lat="46.12144" lon="6.19355">
        <ele>806</ele>
        <time>2024-07-23T18:17:14Z</time>
      </trkpt>
      <trkpt lat="46.12151" lon="6.1934">
        <ele>806</ele>
        <time>2024-07-23T18:17:16Z</time>
      </trkpt>
      <trkpt lat="46.12156" lon="6.19335">
        <ele>806</ele>
        <time>2024-07-23T18:17:18Z</time>
      </trkpt>
      <trkpt lat="46.12189" lon="6.19334">
        <ele>798</ele>
        <time>2024-07-23T18:17:23Z</time>
      </trkpt>
      <trkpt lat="46.12202" lon="6.19328">
        <ele>796</ele>
        <time>2024-07-23T18:17:26Z</time>
      </trkpt>
      <trkpt lat="46.1229" lon="6.19218">
        <ele>798</ele>
        <time>2024-07-23T18:17:47Z</time>
      </trkpt>
      <trkpt lat="46.12308" lon="6.19209">
        <ele>794</ele>
        <time>2024-07-23T18:17:50Z</time>
      </trkpt>
      <trkpt lat="46.12316" lon="6.19209">
        <ele>792</ele>
        <time>2024-07-23T18:17:51Z</time>
      </trkpt>
      <trkpt lat="46.12324" lon="6.19212">
        <ele>789</ele>
        <time>2024-07-23T18:17:53Z</time>
      </trkpt>
      <trkpt lat="46.12333" lon="6.1922">
        <ele>785</ele>
        <time>2024-07-23T18:17:55Z</time>
      </trkpt>
      <trkpt lat="46.1234" lon="6.19233">
        <ele>784</ele>
        <time>2024-07-23T18:17:57Z</time>
      </trkpt>
      <trkpt lat="46.1235" lon="6.19285">
        <ele>778</ele>
        <time>2024-07-23T18:18:03Z</time>
      </trkpt>
      <trkpt lat="46.12356" lon="6.19294">
        <ele>778</ele>
        <time>2024-07-23T18:18:05Z</time>
      </trkpt>
      <trkpt lat="46.12382" lon="6.19315">
        <ele>778</ele>
        <time>2024-07-23T18:18:10Z</time>
      </trkpt>
      <trkpt lat="46.12388" lon="6.19325">
        <ele>777</ele>
        <time>2024-07-23T18:18:12Z</time>
      </trkpt>
      <trkpt lat="46.12411" lon="6.19377">
        <ele>773</ele>
        <time>2024-07-23T18:18:20Z</time>
      </trkpt>
      <trkpt lat="46.12436" lon="6.19419">
        <ele>774</ele>
        <time>2024-07-23T18:18:26Z</time>
      </trkpt>
      <trkpt lat="46.12444" lon="6.19443">
        <ele>772</ele>
        <time>2024-07-23T18:18:30Z</time>
      </trkpt>
      <trkpt lat="46.12441" lon="6.19457">
        <ele>768</ele>
        <time>2024-07-23T18:18:31Z</time>
      </trkpt>
      <trkpt lat="46.12434" lon="6.19464">
        <ele>765</ele>
        <time>2024-07-23T18:18:33Z</time>
      </trkpt>
      <trkpt lat="46.1242" lon="6.19463">
        <ele>762</ele>
        <time>2024-07-23T18:18:35Z</time>
      </trkpt>
      <trkpt lat="46.12395" lon="6.19432">
        <ele>764</ele>
        <time>2024-07-23T18:18:41Z</time>
      </trkpt>
      <trkpt lat="46.12385" lon="6.19429">
        <ele>764</ele>
        <time>2024-07-23T18:18:43Z</time>
      </trkpt>
      <trkpt lat="46.12381" lon="6.1943">
        <ele>764</ele>
        <time>2024-07-23T18:18:44Z</time>
      </trkpt>
      <trkpt lat="46.12374" lon="6.19435">
        <ele>762</ele>
        <time>2024-07-23T18:18:45Z</time>
      </trkpt>
      <trkpt lat="46.12369" lon="6.19443">
        <ele>761</ele>
        <time>2024-07-23T18:18:47Z</time>
      </trkpt>
      <trkpt lat="46.12367" lon="6.19454">
        <ele>759</ele>
        <time>2024-07-23T18:18:48Z</time>
      </trkpt>
      <trkpt lat="46.1237" lon="6.19472">
        <ele>757</ele>
        <time>2024-07-23T18:18:50Z</time>
      </trkpt>
      <trkpt lat="46.12376" lon="6.1948">
        <ele>756</ele>
        <time>2024-07-23T18:18:52Z</time>
      </trkpt>
      <trkpt lat="46.1239" lon="6.1949">
        <ele>755</ele>
        <time>2024-07-23T18:18:55Z</time>
      </trkpt>
      <trkpt lat="46.12434" lon="6.19512">
        <ele>756</ele>
        <time>2024-07-23T18:19:03Z</time>
      </trkpt>
      <trkpt lat="46.12466" lon="6.19542">
        <ele>759</ele>
        <time>2024-07-23T18:19:10Z</time>
      </trkpt>
      <trkpt lat="46.12478" lon="6.19563">
        <ele>757</ele>
        <time>2024-07-23T18:19:13Z</time>
      </trkpt>
      <trkpt lat="46.12495" lon="6.19624">
        <ele>747</ele>
        <time>2024-07-23T18:19:21Z</time>
      </trkpt>
      <trkpt lat="46.12511" lon="6.1966">
        <ele>743</ele>
        <time>2024-07-23T18:19:26Z</time>
      </trkpt>
      <trkpt lat="46.12551" lon="6.19715">
        <ele>739</ele>
        <time>2024-07-23T18:19:36Z</time>
      </trkpt>
      <trkpt lat="46.12573" lon="6.19738">
        <ele>737</ele>
        <time>2024-07-23T18:19:41Z</time>
      </trkpt>
      <trkpt lat="46.12602" lon="6.19759">
        <ele>737</ele>
        <time>2024-07-23T18:19:47Z</time>
      </trkpt>
      <trkpt lat="46.12616" lon="6.19773">
        <ele>737</ele>
        <time>2024-07-23T18:19:50Z</time>
      </trkpt>
      <trkpt lat="46.12622" lon="6.19784">
        <ele>736</ele>
        <time>2024-07-23T18:19:52Z</time>
      </trkpt>
      <trkpt lat="46.12625" lon="6.1981">
        <ele>732</ele>
        <time>2024-07-23T18:19:55Z</time>
      </trkpt>
      <trkpt lat="46.12603" lon="6.19945">
        <ele>718</ele>
        <time>2024-07-23T18:20:12Z</time>
      </trkpt>
      <trkpt lat="46.12592" lon="6.19954">
        <ele>716</ele>
        <time>2024-07-23T18:20:14Z</time>
      </trkpt>
      <trkpt lat="46.12582" lon="6.19954">
        <ele>715</ele>
        <time>2024-07-23T18:20:16Z</time>
      </trkpt>
      <trkpt lat="46.12567" lon="6.19949">
        <ele>712</ele>
        <time>2024-07-23T18:20:19Z</time>
      </trkpt>
      <trkpt lat="46.12557" lon="6.19956">
        <ele>710</ele>
        <time>2024-07-23T18:20:21Z</time>
      </trkpt>
      <trkpt lat="46.1254" lon="6.20023">
        <ele>704</ele>
        <time>2024-07-23T18:20:29Z</time>
      </trkpt>
      <trkpt lat="46.12538" lon="6.20041">
        <ele>702</ele>
        <time>2024-07-23T18:20:32Z</time>
      </trkpt>
      <trkpt lat="46.12541" lon="6.20062">
        <ele>701</ele>
        <time>2024-07-23T18:20:34Z</time>
      </trkpt>
      <trkpt lat="46.12548" lon="6.2008">
        <ele>700</ele>
        <time>2024-07-23T18:20:37Z</time>
      </trkpt>
      <trkpt lat="46.12591" lon="6.20158">
        <ele>701</ele>
        <time>2024-07-23T18:20:49Z</time>
      </trkpt>
      <trkpt lat="46.12604" lon="6.2017">
        <ele>700</ele>
        <time>2024-07-23T18:20:52Z</time>
      </trkpt>
      <trkpt lat="46.12636" lon="6.20187">
        <ele>697</ele>
        <time>2024-07-23T18:20:58Z</time>
      </trkpt>
      <trkpt lat="46.12644" lon="6.20198">
        <ele>696</ele>
        <time>2024-07-23T18:21:00Z</time>
      </trkpt>
      <trkpt lat="46.12646" lon="6.20207">
        <ele>694</ele>
        <time>2024-07-23T18:21:01Z</time>
      </trkpt>
      <trkpt lat="46.12644" lon="6.20223">
        <ele>691</ele>
        <time>2024-07-23T18:21:03Z</time>
      </trkpt>
      <trkpt lat="46.12632" lon="6.20239">
        <ele>689</ele>
        <time>2024-07-23T18:21:06Z</time>
      </trkpt>
      <trkpt lat="46.12587" lon="6.20264">
        <ele>685</ele>
        <time>2024-07-23T18:21:15Z</time>
      </trkpt>
      <trkpt lat="46.12571" lon="6.20266">
        <ele>683</ele>
        <time>2024-07-23T18:21:17Z</time>
      </trkpt>
      <trkpt lat="46.12556" lon="6.20261">
        <ele>681</ele>
        <time>2024-07-23T18:21:20Z</time>
      </trkpt>
      <trkpt lat="46.12539" lon="6.20247">
        <ele>681</ele>
        <time>2024-07-23T18:21:24Z</time>
      </trkpt>
      <trkpt lat="46.12525" lon="6.2023">
        <ele>681</ele>
        <time>2024-07-23T18:21:27Z</time>
      </trkpt>
      <trkpt lat="46.12476" lon="6.20163">
        <ele>681</ele>
        <time>2024-07-23T18:21:39Z</time>
      </trkpt>
      <trkpt lat="46.12469" lon="6.20148">
        <ele>680</ele>
        <time>2024-07-23T18:21:41Z</time>
      </trkpt>
      <trkpt lat="46.1245" lon="6.2009">
        <ele>681</ele>
        <time>2024-07-23T18:21:49Z</time>
      </trkpt>
      <trkpt lat="46.12437" lon="6.2007">
        <ele>679</ele>
        <time>2024-07-23T18:21:52Z</time>
      </trkpt>
      <trkpt lat="46.12423" lon="6.20058">
        <ele>677</ele>
        <time>2024-07-23T18:21:55Z</time>
      </trkpt>
      <trkpt lat="46.12411" lon="6.20054">
        <ele>676</ele>
        <time>2024-07-23T18:21:58Z</time>
      </trkpt>
      <trkpt lat="46.12398" lon="6.20059">
        <ele>675</ele>
        <time>2024-07-23T18:22:00Z</time>
      </trkpt>
      <trkpt lat="46.1239" lon="6.20071">
        <ele>674</ele>
        <time>2024-07-23T18:22:02Z</time>
      </trkpt>
      <trkpt lat="46.12381" lon="6.20093">
        <ele>672</ele>
        <time>2024-07-23T18:22:05Z</time>
      </trkpt>
      <trkpt lat="46.12375" lon="6.20117">
        <ele>671</ele>
        <time>2024-07-23T18:22:08Z</time>
      </trkpt>
      <trkpt lat="46.1238" lon="6.20139">
        <ele>669</ele>
        <time>2024-07-23T18:22:11Z</time>
      </trkpt>
      <trkpt lat="46.12398" lon="6.20163">
        <ele>668</ele>
        <time>2024-07-23T18:22:15Z</time>
      </trkpt>
      <trkpt lat="46.12403" lon="6.20178">
        <ele>667</ele>
        <time>2024-07-23T18:22:18Z</time>
      </trkpt>
      <trkpt lat="46.12404" lon="6.20201">
        <ele>665</ele>
        <time>2024-07-23T18:22:20Z</time>
      </trkpt>
      <trkpt lat="46.12398" lon="6.2026">
        <ele>660</ele>
        <time>2024-07-23T18:22:28Z</time>
      </trkpt>
      <trkpt lat="46.12391" lon="6.20283">
        <ele>658</ele>
        <time>2024-07-23T18:22:31Z</time>
      </trkpt>
      <trkpt lat="46.12348" lon="6.20354">
        <ele>655</ele>
        <time>2024-07-23T18:22:42Z</time>
      </trkpt>
      <trkpt lat="46.12326" lon="6.20403">
        <ele>653</ele>
        <time>2024-07-23T18:22:50Z</time>
      </trkpt>
      <trkpt lat="46.12308" lon="6.20514">
        <ele>647</ele>
        <time>2024-07-23T18:23:04Z</time>
      </trkpt>
      <trkpt lat="46.12308" lon="6.20554">
        <ele>646</ele>
        <time>2024-07-23T18:23:09Z</time>
      </trkpt>
      <trkpt lat="46.12314" lon="6.20588">
        <ele>644</ele>
        <time>2024-07-23T18:23:13Z</time>
      </trkpt>
      <trkpt lat="46.12344" lon="6.20578">
        <ele>643</ele>
        <time>2024-07-23T18:23:18Z</time>
      </trkpt>
      <trkpt lat="46.12363" lon="6.20568">
        <ele>641</ele>
        <time>2024-07-23T18:23:22Z</time>
      </trkpt>
      <trkpt lat="46.12376" lon="6.20567">
        <ele>640</ele>
        <time>2024-07-23T18:23:24Z</time>
      </trkpt>
      <trkpt lat="46.12398" lon="6.20551">
        <ele>639</ele>
        <time>2024-07-23T18:23:29Z</time>
      </trkpt>
      <trkpt lat="46.1242" lon="6.20539">
        <ele>638</ele>
        <time>2024-07-23T18:23:33Z</time>
      </trkpt>
      <trkpt lat="46.12424" lon="6.20558">
        <ele>637</ele>
        <time>2024-07-23T18:23:35Z</time>
      </trkpt>
      <trkpt lat="46.12423" lon="6.20562">
        <ele>636</ele>
        <time>2024-07-23T18:23:36Z</time>
      </trkpt>
      <trkpt lat="46.12408" lon="6.20572">
        <ele>637</ele>
        <time>2024-07-23T18:23:39Z</time>
      </trkpt>
      <trkpt lat="46.12403" lon="6.2058">
        <ele>637</ele>
        <time>2024-07-23T18:23:40Z</time>
      </trkpt>
      <trkpt lat="46.12402" lon="6.20658">
        <ele>630</ele>
        <time>2024-07-23T18:23:50Z</time>
      </trkpt>
      <trkpt lat="46.1241" lon="6.20681">
        <ele>627</ele>
        <time>2024-07-23T18:23:53Z</time>
      </trkpt>
      <trkpt lat="46.12434" lon="6.20708">
        <ele>624</ele>
        <time>2024-07-23T18:23:58Z</time>
      </trkpt>
      <trkpt lat="46.12438" lon="6.20725">
        <ele>623</ele>
        <time>2024-07-23T18:24:01Z</time>
      </trkpt>
      <trkpt lat="46.12432" lon="6.20737">
        <ele>622</ele>
        <time>2024-07-23T18:24:02Z</time>
      </trkpt>
      <trkpt lat="46.12399" lon="6.20754">
        <ele>621</ele>
        <time>2024-07-23T18:24:09Z</time>
      </trkpt>
      <trkpt lat="46.12392" lon="6.2076">
        <ele>621</ele>
        <time>2024-07-23T18:24:10Z</time>
      </trkpt>
      <trkpt lat="46.12389" lon="6.2077">
        <ele>621</ele>
        <time>2024-07-23T18:24:11Z</time>
      </trkpt>
      <trkpt lat="46.1239" lon="6.20781">
        <ele>621</ele>
        <time>2024-07-23T18:24:13Z</time>
      </trkpt>
      <trkpt lat="46.12395" lon="6.20786">
        <ele>621</ele>
        <time>2024-07-23T18:24:14Z</time>
      </trkpt>
      <trkpt lat="46.12403" lon="6.20788">
        <ele>620</ele>
        <time>2024-07-23T18:24:15Z</time>
      </trkpt>
      <trkpt lat="46.12461" lon="6.20791">
        <ele>620</ele>
        <time>2024-07-23T18:24:26Z</time>
      </trkpt>
      <trkpt lat="46.12476" lon="6.20796">
        <ele>620</ele>
        <time>2024-07-23T18:24:28Z</time>
      </trkpt>
      <trkpt lat="46.12498" lon="6.20813">
        <ele>618</ele>
        <time>2024-07-23T18:24:33Z</time>
      </trkpt>
      <trkpt lat="46.12608" lon="6.20955">
        <ele>614</ele>
        <time>2024-07-23T18:24:59Z</time>
      </trkpt>
      <trkpt lat="46.12631" lon="6.20973">
        <ele>613</ele>
        <time>2024-07-23T18:25:04Z</time>
      </trkpt>
      <trkpt lat="46.1268" lon="6.21005">
        <ele>610</ele>
        <time>2024-07-23T18:25:13Z</time>
      </trkpt>
      <trkpt lat="46.12699" lon="6.21024">
        <ele>613</ele>
        <time>2024-07-23T18:25:17Z</time>
      </trkpt>
      <trkpt lat="46.12723" lon="6.21073">
        <ele>621</ele>
        <time>2024-07-23T18:25:25Z</time>
      </trkpt>
      <trkpt lat="46.12743" lon="6.21102">
        <ele>623</ele>
        <time>2024-07-23T18:25:30Z</time>
      </trkpt>
      <trkpt lat="46.12763" lon="6.21124">
        <ele>622</ele>
        <time>2024-07-23T18:25:34Z</time>
      </trkpt>
      <trkpt lat="46.12778" lon="6.21147">
        <ele>622</ele>
        <time>2024-07-23T18:25:38Z</time>
      </trkpt>
      <trkpt lat="46.12791" lon="6.2119">
        <ele>624</ele>
        <time>2024-07-23T18:25:44Z</time>
      </trkpt>
      <trkpt lat="46.128" lon="6.2121">
        <ele>625</ele>
        <time>2024-07-23T18:25:47Z</time>
      </trkpt>
      <trkpt lat="46.12863" lon="6.21296">
        <ele>628</ele>
        <time>2024-07-23T18:26:02Z</time>
      </trkpt>
      <trkpt lat="46.12907" lon="6.21342">
        <ele>624</ele>
        <time>2024-07-23T18:26:12Z</time>
      </trkpt>
      <trkpt lat="46.12925" lon="6.21365">
        <ele>623</ele>
        <time>2024-07-23T18:26:16Z</time>
      </trkpt>
      <trkpt lat="46.12981" lon="6.21459">
        <ele>624</ele>
        <time>2024-07-23T18:26:32Z</time>
      </trkpt>
      <trkpt lat="46.13014" lon="6.21533">
        <ele>626</ele>
        <time>2024-07-23T18:26:43Z</time>
      </trkpt>
      <trkpt lat="46.1304" lon="6.21602">
        <ele>631</ele>
        <time>2024-07-23T18:26:52Z</time>
      </trkpt>
      <trkpt lat="46.13055" lon="6.21634">
        <ele>633</ele>
        <time>2024-07-23T18:26:57Z</time>
      </trkpt>
      <trkpt lat="46.13063" lon="6.21646">
        <ele>634</ele>
        <time>2024-07-23T18:26:59Z</time>
      </trkpt>
      <trkpt lat="46.13086" lon="6.21671">
        <ele>632</ele>
        <time>2024-07-23T18:27:04Z</time>
      </trkpt>
      <trkpt lat="46.13202" lon="6.21769">
        <ele>615</ele>
        <time>2024-07-23T18:27:28Z</time>
      </trkpt>
      <trkpt lat="46.13225" lon="6.21807">
        <ele>612</ele>
        <time>2024-07-23T18:27:34Z</time>
      </trkpt>
      <trkpt lat="46.1326" lon="6.21887">
        <ele>608</ele>
        <time>2024-07-23T18:27:46Z</time>
      </trkpt>
      <trkpt lat="46.1327" lon="6.21905">
        <ele>608</ele>
        <time>2024-07-23T18:27:49Z</time>
      </trkpt>
      <trkpt lat="46.13279" lon="6.21918">
        <ele>608</ele>
        <time>2024-07-23T18:27:51Z</time>
      </trkpt>
      <trkpt lat="46.13366" lon="6.22015">
        <ele>601</ele>
        <time>2024-07-23T18:28:11Z</time>
      </trkpt>
      <trkpt lat="46.13416" lon="6.22088">
        <ele>601</ele>
        <time>2024-07-23T18:28:23Z</time>
      </trkpt>
      <trkpt lat="46.13528" lon="6.22196">
        <ele>600</ele>
        <time>2024-07-23T18:28:47Z</time>
      </trkpt>
      <trkpt lat="46.13618" lon="6.22257">
        <ele>594</ele>
        <time>2024-07-23T18:29:05Z</time>
      </trkpt>
      <trkpt lat="46.13642" lon="6.22278">
        <ele>594</ele>
        <time>2024-07-23T18:29:10Z</time>
      </trkpt>
      <trkpt lat="46.13682" lon="6.22333">
        <ele>593</ele>
        <time>2024-07-23T18:29:20Z</time>
      </trkpt>
      <trkpt lat="46.13704" lon="6.22359">
        <ele>594</ele>
        <time>2024-07-23T18:29:25Z</time>
      </trkpt>
      <trkpt lat="46.13803" lon="6.22454">
        <ele>592</ele>
        <time>2024-07-23T18:29:46Z</time>
      </trkpt>
      <trkpt lat="46.13819" lon="6.22473">
        <ele>592</ele>
        <time>2024-07-23T18:29:50Z</time>
      </trkpt>
      <trkpt lat="46.13836" lon="6.22499">
        <ele>593</ele>
        <time>2024-07-23T18:29:54Z</time>
      </trkpt>
      <trkpt lat="46.13861" lon="6.22548">
        <ele>597</ele>
        <time>2024-07-23T18:30:02Z</time>
      </trkpt>
      <trkpt lat="46.13947" lon="6.22741">
        <ele>613</ele>
        <time>2024-07-23T18:30:30Z</time>
      </trkpt>
      <trkpt lat="46.13968" lon="6.22796">
        <ele>616</ele>
        <time>2024-07-23T18:30:38Z</time>
      </trkpt>
      <trkpt lat="46.13982" lon="6.22841">
        <ele>620</ele>
        <time>2024-07-23T18:30:44Z</time>
      </trkpt>
      <trkpt lat="46.13995" lon="6.22872">
        <ele>623</ele>
        <time>2024-07-23T18:30:48Z</time>
      </trkpt>
      <trkpt lat="46.14007" lon="6.22893">
        <ele>625</ele>
        <time>2024-07-23T18:30:52Z</time>
      </trkpt>
      <trkpt lat="46.14024" lon="6.22912">
        <ele>626</ele>
        <time>2024-07-23T18:30:55Z</time>
      </trkpt>
      <trkpt lat="46.14044" lon="6.22927">
        <ele>626</ele>
        <time>2024-07-23T18:30:59Z</time>
      </trkpt>
      <trkpt lat="46.14161" lon="6.22996">
        <ele>626</ele>
        <time>2024-07-23T18:31:22Z</time>
      </trkpt>
      <trkpt lat="46.1418" lon="6.23011">
        <ele>626</ele>
        <time>2024-07-23T18:31:26Z</time>
      </trkpt>
      <trkpt lat="46.14216" lon="6.23075">
        <ele>629</ele>
        <time>2024-07-23T18:31:36Z</time>
      </trkpt>
      <trkpt lat="46.14251" lon="6.23124">
        <ele>626</ele>
        <time>2024-07-23T18:31:45Z</time>
      </trkpt>
      <trkpt lat="46.14283" lon="6.23154">
        <ele>623</ele>
        <time>2024-07-23T18:31:51Z</time>
      </trkpt>
      <trkpt lat="46.14437" lon="6.23244">
        <ele>618</ele>
        <time>2024-07-23T18:32:21Z</time>
      </trkpt>
      <trkpt lat="46.14438" lon="6.23349">
        <ele>625</ele>
        <time>2024-07-23T18:32:34Z</time>
      </trkpt>
      <trkpt lat="46.1443" lon="6.23452">
        <ele>624</ele>
        <time>2024-07-23T18:32:47Z</time>
      </trkpt>
      <trkpt lat="46.14399" lon="6.23517">
        <ele>621</ele>
        <time>2024-07-23T18:32:56Z</time>
      </trkpt>
      <trkpt lat="46.1439" lon="6.23543">
        <ele>620</ele>
        <time>2024-07-23T18:33:00Z</time>
      </trkpt>
      <trkpt lat="46.14388" lon="6.23577">
        <ele>618</ele>
        <time>2024-07-23T18:33:04Z</time>
      </trkpt>
      <trkpt lat="46.14388" lon="6.23608">
        <ele>615</ele>
        <time>2024-07-23T18:33:08Z</time>
      </trkpt>
      <trkpt lat="46.14408" lon="6.23697">
        <ele>609</ele>
        <time>2024-07-23T18:33:19Z</time>
      </trkpt>
      <trkpt lat="46.14413" lon="6.23709">
        <ele>608</ele>
        <time>2024-07-23T18:33:21Z</time>
      </trkpt>
      <trkpt lat="46.1441" lon="6.23731">
        <ele>608</ele>
        <time>2024-07-23T18:33:24Z</time>
      </trkpt>
      <trkpt lat="46.14394" lon="6.23765">
        <ele>607</ele>
        <time>2024-07-23T18:33:29Z</time>
      </trkpt>
      <trkpt lat="46.14276" lon="6.23858">
        <ele>606</ele>
        <time>2024-07-23T18:33:53Z</time>
      </trkpt>
      <trkpt lat="46.14224" lon="6.23834">
        <ele>606</ele>
        <time>2024-07-23T18:34:03Z</time>
      </trkpt>
      <trkpt lat="46.14042" lon="6.2379">
        <ele>608</ele>
        <time>2024-07-23T18:34:35Z</time>
      </trkpt>
      <trkpt lat="46.13985" lon="6.23783">
        <ele>609</ele>
        <time>2024-07-23T18:34:46Z</time>
      </trkpt>
      <trkpt lat="46.13976" lon="6.23793">
        <ele>608</ele>
        <time>2024-07-23T18:34:48Z</time>
      </trkpt>
      <trkpt lat="46.13925" lon="6.23802">
        <ele>608</ele>
        <time>2024-07-23T18:34:57Z</time>
      </trkpt>
      <trkpt lat="46.13842" lon="6.23801">
        <ele>606</ele>
        <time>2024-07-23T18:35:12Z</time>
      </trkpt>
      <trkpt lat="46.13755" lon="6.23821">
        <ele>604</ele>
        <time>2024-07-23T18:35:27Z</time>
      </trkpt>
      <trkpt lat="46.13721" lon="6.23821">
        <ele>604</ele>
        <time>2024-07-23T18:35:33Z</time>
      </trkpt>
      <trkpt lat="46.13688" lon="6.23815">
        <ele>604</ele>
        <time>2024-07-23T18:35:39Z</time>
      </trkpt>
      <trkpt lat="46.13599" lon="6.23791">
        <ele>607</ele>
        <time>2024-07-23T18:35:55Z</time>
      </trkpt>
      <trkpt lat="46.13486" lon="6.23726">
        <ele>612</ele>
        <time>2024-07-23T18:36:17Z</time>
      </trkpt>
      <trkpt lat="46.13471" lon="6.2372">
        <ele>613</ele>
        <time>2024-07-23T18:36:20Z</time>
      </trkpt>
      <trkpt lat="46.13324" lon="6.23703">
        <ele>619</ele>
        <time>2024-07-23T18:36:46Z</time>
      </trkpt>
      <trkpt lat="46.13298" lon="6.23715">
        <ele>619</ele>
        <time>2024-07-23T18:36:51Z</time>
      </trkpt>
      <trkpt lat="46.13324" lon="6.23703">
        <ele>619</ele>
        <time>2024-07-23T18:36:56Z</time>
      </trkpt>
      <trkpt lat="46.13188" lon="6.23675">
        <ele>630</ele>
        <time>2024-07-23T18:37:20Z</time>
      </trkpt>
      <trkpt lat="46.13144" lon="6.23675">
        <ele>632</ele>
        <time>2024-07-23T18:37:28Z</time>
      </trkpt>
      <trkpt lat="46.13067" lon="6.23664">
        <ele>637</ele>
        <time>2024-07-23T18:37:42Z</time>
      </trkpt>
      <trkpt lat="46.12988" lon="6.23666">
        <ele>639</ele>
        <time>2024-07-23T18:37:56Z</time>
      </trkpt>
      <trkpt lat="46.12922" lon="6.23652">
        <ele>643</ele>
        <time>2024-07-23T18:38:08Z</time>
      </trkpt>
      <trkpt lat="46.12865" lon="6.23668">
        <ele>641</ele>
        <time>2024-07-23T18:38:18Z</time>
      </trkpt>
      <trkpt lat="46.12816" lon="6.23662">
        <ele>641</ele>
        <time>2024-07-23T18:38:27Z</time>
      </trkpt>
      <trkpt lat="46.12749" lon="6.23638">
        <ele>641</ele>
        <time>2024-07-23T18:38:39Z</time>
      </trkpt>
      <trkpt lat="46.12706" lon="6.23628">
        <ele>645</ele>
        <time>2024-07-23T18:38:47Z</time>
      </trkpt>
      <trkpt lat="46.12684" lon="6.2365">
        <ele>646</ele>
        <time>2024-07-23T18:38:52Z</time>
      </trkpt>
      <trkpt lat="46.12671" lon="6.23679">
        <ele>645</ele>
        <time>2024-07-23T18:38:56Z</time>
      </trkpt>
      <trkpt lat="46.12601" lon="6.23778">
        <ele>647</ele>
        <time>2024-07-23T18:39:13Z</time>
      </trkpt>
      <trkpt lat="46.1257" lon="6.23804">
        <ele>649</ele>
        <time>2024-07-23T18:39:20Z</time>
      </trkpt>
      <trkpt lat="46.12543" lon="6.23849">
        <ele>650</ele>
        <time>2024-07-23T18:39:27Z</time>
      </trkpt>
      <trkpt lat="46.1248" lon="6.23928">
        <ele>661</ele>
        <time>2024-07-23T18:39:42Z</time>
      </trkpt>
      <trkpt lat="46.12426" lon="6.23968">
        <ele>670</ele>
        <time>2024-07-23T18:39:53Z</time>
      </trkpt>
      <trkpt lat="46.1239" lon="6.23983">
        <ele>672</ele>
        <time>2024-07-23T18:39:59Z</time>
      </trkpt>
      <trkpt lat="46.12391" lon="6.24024">
        <ele>671</ele>
        <time>2024-07-23T18:40:04Z</time>
      </trkpt>
      <trkpt lat="46.12399" lon="6.2405">
        <ele>670</ele>
        <time>2024-07-23T18:40:08Z</time>
      </trkpt>
      <trkpt lat="46.12384" lon="6.24058">
        <ele>669</ele>
        <time>2024-07-23T18:40:11Z</time>
      </trkpt>
      <trkpt lat="46.12374" lon="6.24059">
        <ele>669</ele>
        <time>2024-07-23T18:40:13Z</time>
      </trkpt>
      <trkpt lat="46.12365" lon="6.24053">
        <ele>669</ele>
        <time>2024-07-23T18:40:14Z</time>
      </trkpt>
      <trkpt lat="46.12353" lon="6.24053">
        <ele>669</ele>
        <time>2024-07-23T18:40:16Z</time>
      </trkpt>
      <trkpt lat="46.12335" lon="6.2406">
        <ele>669</ele>
        <time>2024-07-23T18:40:20Z</time>
      </trkpt>
      <trkpt lat="46.1232" lon="6.24081">
        <ele>666</ele>
        <time>2024-07-23T18:40:23Z</time>
      </trkpt>
      <trkpt lat="46.12308" lon="6.24093">
        <ele>664</ele>
        <time>2024-07-23T18:40:26Z</time>
      </trkpt>
      <trkpt lat="46.12293" lon="6.24092">
        <ele>663</ele>
        <time>2024-07-23T18:40:29Z</time>
      </trkpt>
      <trkpt lat="46.1228" lon="6.24087">
        <ele>662</ele>
        <time>2024-07-23T18:40:31Z</time>
      </trkpt>
      <trkpt lat="46.12068" lon="6.2395">
        <ele>657</ele>
        <time>2024-07-23T18:41:12Z</time>
      </trkpt>
      <trkpt lat="46.1202" lon="6.23914">
        <ele>660</ele>
        <time>2024-07-23T18:41:22Z</time>
      </trkpt>
      <trkpt lat="46.1197" lon="6.23898">
        <ele>661</ele>
        <time>2024-07-23T18:41:31Z</time>
      </trkpt>
      <trkpt lat="46.1194" lon="6.23893">
        <ele>661</ele>
        <time>2024-07-23T18:41:37Z</time>
      </trkpt>
      <trkpt lat="46.11915" lon="6.23896">
        <ele>661</ele>
        <time>2024-07-23T18:41:41Z</time>
      </trkpt>
      <trkpt lat="46.11856" lon="6.23884">
        <ele>664</ele>
        <time>2024-07-23T18:41:52Z</time>
      </trkpt>
      <trkpt lat="46.11828" lon="6.23884">
        <ele>665</ele>
        <time>2024-07-23T18:41:57Z</time>
      </trkpt>
      <trkpt lat="46.11783" lon="6.23912">
        <ele>663</ele>
        <time>2024-07-23T18:42:05Z</time>
      </trkpt>
      <trkpt lat="46.11762" lon="6.2392">
        <ele>663</ele>
        <time>2024-07-23T18:42:09Z</time>
      </trkpt>
      <trkpt lat="46.11735" lon="6.23925">
        <ele>663</ele>
        <time>2024-07-23T18:42:14Z</time>
      </trkpt>
      <trkpt lat="46.11719" lon="6.23932">
        <ele>662</ele>
        <time>2024-07-23T18:42:17Z</time>
      </trkpt>
      <trkpt lat="46.11697" lon="6.23963">
        <ele>658</ele>
        <time>2024-07-23T18:42:22Z</time>
      </trkpt>
      <trkpt lat="46.1168" lon="6.23974">
        <ele>655</ele>
        <time>2024-07-23T18:42:26Z</time>
      </trkpt>
      <trkpt lat="46.11672" lon="6.23975">
        <ele>655</ele>
        <time>2024-07-23T18:42:27Z</time>
      </trkpt>
      <trkpt lat="46.11663" lon="6.23973">
        <ele>655</ele>
        <time>2024-07-23T18:42:29Z</time>
      </trkpt>
      <trkpt lat="46.11656" lon="6.23968">
        <ele>655</ele>
        <time>2024-07-23T18:42:30Z</time>
      </trkpt>
      <trkpt lat="46.11621" lon="6.23934">
        <ele>659</ele>
        <time>2024-07-23T18:42:38Z</time>
      </trkpt>
      <trkpt lat="46.11574" lon="6.2391">
        <ele>659</ele>
        <time>2024-07-23T18:42:47Z</time>
      </trkpt>
      <trkpt lat="46.1153" lon="6.23902">
        <ele>655</ele>
        <time>2024-07-23T18:42:54Z</time>
      </trkpt>
      <trkpt lat="46.11493" lon="6.2389">
        <ele>654</ele>
        <time>2024-07-23T18:43:01Z</time>
      </trkpt>
      <trkpt lat="46.11483" lon="6.23893">
        <ele>652</ele>
        <time>2024-07-23T18:43:03Z</time>
      </trkpt>
      <trkpt lat="46.11477" lon="6.23903">
        <ele>649</ele>
        <time>2024-07-23T18:43:05Z</time>
      </trkpt>
      <trkpt lat="46.11474" lon="6.23925">
        <ele>645</ele>
        <time>2024-07-23T18:43:07Z</time>
      </trkpt>
      <trkpt lat="46.11482" lon="6.23943">
        <ele>643</ele>
        <time>2024-07-23T18:43:10Z</time>
      </trkpt>
      <trkpt lat="46.11515" lon="6.23975">
        <ele>642</ele>
        <time>2024-07-23T18:43:17Z</time>
      </trkpt>
      <trkpt lat="46.11558" lon="6.24031">
        <ele>639</ele>
        <time>2024-07-23T18:43:27Z</time>
      </trkpt>
      <trkpt lat="46.1158" lon="6.24066">
        <ele>637</ele>
        <time>2024-07-23T18:43:33Z</time>
      </trkpt>
      <trkpt lat="46.11606" lon="6.24199">
        <ele>622</ele>
        <time>2024-07-23T18:43:50Z</time>
      </trkpt>
      <trkpt lat="46.1162" lon="6.24221">
        <ele>620</ele>
        <time>2024-07-23T18:43:54Z</time>
      </trkpt>
      <trkpt lat="46.11654" lon="6.24236">
        <ele>619</ele>
        <time>2024-07-23T18:44:00Z</time>
      </trkpt>
      <trkpt lat="46.11686" lon="6.24238">
        <ele>620</ele>
        <time>2024-07-23T18:44:06Z</time>
      </trkpt>
      <trkpt lat="46.11731" lon="6.24266">
        <ele>617</ele>
        <time>2024-07-23T18:44:15Z</time>
      </trkpt>
      <trkpt lat="46.11772" lon="6.24311">
        <ele>611</ele>
        <time>2024-07-23T18:44:24Z</time>
      </trkpt>
      <trkpt lat="46.11799" lon="6.24326">
        <ele>610</ele>
        <time>2024-07-23T18:44:29Z</time>
      </trkpt>
      <trkpt lat="46.11807" lon="6.24336">
        <ele>609</ele>
        <time>2024-07-23T18:44:31Z</time>
      </trkpt>
      <trkpt lat="46.11807" lon="6.24349">
        <ele>607</ele>
        <time>2024-07-23T18:44:33Z</time>
      </trkpt>
      <trkpt lat="46.11801" lon="6.24362">
        <ele>604</ele>
        <time>2024-07-23T18:44:35Z</time>
      </trkpt>
      <trkpt lat="46.11754" lon="6.24357">
        <ele>603</ele>
        <time>2024-07-23T18:44:43Z</time>
      </trkpt>
      <trkpt lat="46.11737" lon="6.24353">
        <ele>604</ele>
        <time>2024-07-23T18:44:46Z</time>
      </trkpt>
      <trkpt lat="46.11701" lon="6.24365">
        <ele>603</ele>
        <time>2024-07-23T18:44:53Z</time>
      </trkpt>
      <trkpt lat="46.11681" lon="6.24393">
        <ele>599</ele>
        <time>2024-07-23T18:44:57Z</time>
      </trkpt>
      <trkpt lat="46.11668" lon="6.24417">
        <ele>596</ele>
        <time>2024-07-23T18:45:01Z</time>
      </trkpt>
      <trkpt lat="46.11649" lon="6.24474">
        <ele>589</ele>
        <time>2024-07-23T18:45:09Z</time>
      </trkpt>
      <trkpt lat="46.11642" lon="6.24521">
        <ele>587</ele>
        <time>2024-07-23T18:45:15Z</time>
      </trkpt>
      <trkpt lat="46.1164" lon="6.24579">
        <ele>588</ele>
        <time>2024-07-23T18:45:22Z</time>
      </trkpt>
      <trkpt lat="46.11607" lon="6.24593">
        <ele>596</ele>
        <time>2024-07-23T18:45:28Z</time>
      </trkpt>
      <trkpt lat="46.11608" lon="6.2461">
        <ele>600</ele>
        <time>2024-07-23T18:45:30Z</time>
      </trkpt>
      <trkpt lat="46.11658" lon="6.24684">
        <ele>601</ele>
        <time>2024-07-23T18:45:43Z</time>
      </trkpt>
      <trkpt lat="46.11687" lon="6.24722">
        <ele>606</ele>
        <time>2024-07-23T18:45:50Z</time>
      </trkpt>
      <trkpt lat="46.11731" lon="6.24727">
        <ele>606</ele>
        <time>2024-07-23T18:45:58Z</time>
      </trkpt>
      <trkpt lat="46.1174" lon="6.24744">
        <ele>608</ele>
        <time>2024-07-23T18:46:01Z</time>
      </trkpt>
      <trkpt lat="46.11741" lon="6.24764">
        <ele>611</ele>
        <time>2024-07-23T18:46:03Z</time>
      </trkpt>
      <trkpt lat="46.11729" lon="6.24775">
        <ele>613</ele>
        <time>2024-07-23T18:46:06Z</time>
      </trkpt>
      <trkpt lat="46.11698" lon="6.24777">
        <ele>616</ele>
        <time>2024-07-23T18:46:11Z</time>
      </trkpt>
      <trkpt lat="46.11685" lon="6.24791">
        <ele>619</ele>
        <time>2024-07-23T18:46:14Z</time>
      </trkpt>
      <trkpt lat="46.11684" lon="6.2481">
        <ele>622</ele>
        <time>2024-07-23T18:46:16Z</time>
      </trkpt>
      <trkpt lat="46.11695" lon="6.24826">
        <ele>624</ele>
        <time>2024-07-23T18:46:19Z</time>
      </trkpt>
      <trkpt lat="46.11758" lon="6.24825">
        <ele>618</ele>
        <time>2024-07-23T18:46:30Z</time>
      </trkpt>
      <trkpt lat="46.11767" lon="6.24837">
        <ele>618</ele>
        <time>2024-07-23T18:46:32Z</time>
      </trkpt>
      <trkpt lat="46.11772" lon="6.24872">
        <ele>617</ele>
        <time>2024-07-23T18:46:37Z</time>
      </trkpt>
      <trkpt lat="46.11767" lon="6.24913">
        <ele>618</ele>
        <time>2024-07-23T18:46:42Z</time>
      </trkpt>
      <trkpt lat="46.11773" lon="6.24956">
        <ele>615</ele>
        <time>2024-07-23T18:46:47Z</time>
      </trkpt>
      <trkpt lat="46.11787" lon="6.2501">
        <ele>611</ele>
        <time>2024-07-23T18:46:55Z</time>
      </trkpt>
      <trkpt lat="46.11775" lon="6.25032">
        <ele>612</ele>
        <time>2024-07-23T18:46:58Z</time>
      </trkpt>
      <trkpt lat="46.11787" lon="6.2501">
        <ele>611</ele>
        <time>2024-07-23T18:47:01Z</time>
      </trkpt>
      <trkpt lat="46.11757" lon="6.2521">
        <ele>601</ele>
        <time>2024-07-23T18:47:27Z</time>
      </trkpt>
      <trkpt lat="46.11763" lon="6.25246">
        <ele>599</ele>
        <time>2024-07-23T18:47:31Z</time>
      </trkpt>
      <trkpt lat="46.11773" lon="6.25272">
        <ele>596</ele>
        <time>2024-07-23T18:47:35Z</time>
      </trkpt>
      <trkpt lat="46.1179" lon="6.25284">
        <ele>594</ele>
        <time>2024-07-23T18:47:38Z</time>
      </trkpt>
      <trkpt lat="46.11814" lon="6.25289">
        <ele>593</ele>
        <time>2024-07-23T18:47:43Z</time>
      </trkpt>
      <trkpt lat="46.1183" lon="6.25315">
        <ele>590</ele>
        <time>2024-07-23T18:47:47Z</time>
      </trkpt>
      <trkpt lat="46.11826" lon="6.25348">
        <ele>587</ele>
        <time>2024-07-23T18:47:51Z</time>
      </trkpt>
      <trkpt lat="46.11792" lon="6.25438">
        <ele>580</ele>
        <time>2024-07-23T18:48:04Z</time>
      </trkpt>
      <trkpt lat="46.11763" lon="6.25492">
        <ele>578</ele>
        <time>2024-07-23T18:48:12Z</time>
      </trkpt>
      <trkpt lat="46.11737" lon="6.25563">
        <ele>574</ele>
        <time>2024-07-23T18:48:22Z</time>
      </trkpt>
      <trkpt lat="46.11734" lon="6.25591">
        <ele>572</ele>
        <time>2024-07-23T18:48:26Z</time>
      </trkpt>
      <trkpt lat="46.11737" lon="6.25637">
        <ele>568</ele>
        <time>2024-07-23T18:48:31Z</time>
      </trkpt>
      <trkpt lat="46.11726" lon="6.25668">
        <ele>568</ele>
        <time>2024-07-23T18:48:35Z</time>
      </trkpt>
      <trkpt lat="46.11689" lon="6.25738">
        <ele>568</ele>
        <time>2024-07-23T18:48:46Z</time>
      </trkpt>
      <trkpt lat="46.11657" lon="6.25808">
        <ele>564</ele>
        <time>2024-07-23T18:48:57Z</time>
      </trkpt>
      <trkpt lat="46.11614" lon="6.25921">
        <ele>555</ele>
        <time>2024-07-23T18:49:13Z</time>
      </trkpt>
      <trkpt lat="46.11608" lon="6.25943">
        <ele>554</ele>
        <time>2024-07-23T18:49:16Z</time>
      </trkpt>
      <trkpt lat="46.11633" lon="6.25952">
        <ele>552</ele>
        <time>2024-07-23T18:49:20Z</time>
      </trkpt>
      <trkpt lat="46.11647" lon="6.2596">
        <ele>551</ele>
        <time>2024-07-23T18:49:23Z</time>
      </trkpt>
      <trkpt lat="46.1166" lon="6.25978">
        <ele>549</ele>
        <time>2024-07-23T18:49:26Z</time>
      </trkpt>
      <trkpt lat="46.11673" lon="6.26025">
        <ele>547</ele>
        <time>2024-07-23T18:49:32Z</time>
      </trkpt>
      <trkpt lat="46.11679" lon="6.26067">
        <ele>547</ele>
        <time>2024-07-23T18:49:38Z</time>
      </trkpt>
      <trkpt lat="46.11683" lon="6.26079">
        <ele>547</ele>
        <time>2024-07-23T18:49:39Z</time>
      </trkpt>
      <trkpt lat="46.11692" lon="6.26147">
        <ele>544</ele>
        <time>2024-07-23T18:49:48Z</time>
      </trkpt>
      <trkpt lat="46.11742" lon="6.26348">
        <ele>537</ele>
        <time>2024-07-23T18:50:14Z</time>
      </trkpt>
      <trkpt lat="46.1177" lon="6.26571">
        <ele>532</ele>
        <time>2024-07-23T18:50:42Z</time>
      </trkpt>
      <trkpt lat="46.11777" lon="6.26611">
        <ele>531</ele>
        <time>2024-07-23T18:50:47Z</time>
      </trkpt>
      <trkpt lat="46.11787" lon="6.26638">
        <ele>530</ele>
        <time>2024-07-23T18:50:51Z</time>
      </trkpt>
      <trkpt lat="46.12036" lon="6.2689">
        <ele>526</ele>
        <time>2024-07-23T18:51:45Z</time>
      </trkpt>
      <trkpt lat="46.12073" lon="6.26909">
        <ele>526</ele>
        <time>2024-07-23T18:51:52Z</time>
      </trkpt>
      <trkpt lat="46.12069" lon="6.26922">
        <ele>526</ele>
        <time>2024-07-23T18:51:54Z</time>
      </trkpt>
      <trkpt lat="46.12071" lon="6.26947">
        <ele>527</ele>
        <time>2024-07-23T18:51:57Z</time>
      </trkpt>
      <trkpt lat="46.12079" lon="6.26957">
        <ele>527</ele>
        <time>2024-07-23T18:51:59Z</time>
      </trkpt>
      <trkpt lat="46.12088" lon="6.2696">
        <ele>526</ele>
        <time>2024-07-23T18:52:00Z</time>
      </trkpt>
      <trkpt lat="46.12097" lon="6.26958">
        <ele>526</ele>
        <time>2024-07-23T18:52:02Z</time>
      </trkpt>
      <trkpt lat="46.12106" lon="6.2695">
        <ele>525</ele>
        <time>2024-07-23T18:52:04Z</time>
      </trkpt>
      <trkpt lat="46.12112" lon="6.26926">
        <ele>525</ele>
        <time>2024-07-23T18:52:07Z</time>
      </trkpt>
      <trkpt lat="46.12201" lon="6.26866">
        <ele>523</ele>
        <time>2024-07-23T18:52:24Z</time>
      </trkpt>
      <trkpt lat="46.1224" lon="6.26848">
        <ele>522</ele>
        <time>2024-07-23T18:52:32Z</time>
      </trkpt>
      <trkpt lat="46.12322" lon="6.26843">
        <ele>520</ele>
        <time>2024-07-23T18:52:46Z</time>
      </trkpt>
      <trkpt lat="46.12341" lon="6.26837">
        <ele>519</ele>
        <time>2024-07-23T18:52:50Z</time>
      </trkpt>
      <trkpt lat="46.12373" lon="6.26819">
        <ele>518</ele>
        <time>2024-07-23T18:52:56Z</time>
      </trkpt>
      <trkpt lat="46.12537" lon="6.26648">
        <ele>514</ele>
        <time>2024-07-23T18:53:32Z</time>
      </trkpt>
      <trkpt lat="46.12569" lon="6.26626">
        <ele>513</ele>
        <time>2024-07-23T18:53:38Z</time>
      </trkpt>
      <trkpt lat="46.126" lon="6.26616">
        <ele>512</ele>
        <time>2024-07-23T18:53:44Z</time>
      </trkpt>
      <trkpt lat="46.12647" lon="6.26615">
        <ele>512</ele>
        <time>2024-07-23T18:53:52Z</time>
      </trkpt>
      <trkpt lat="46.12685" lon="6.26619">
        <ele>510</ele>
        <time>2024-07-23T18:53:59Z</time>
      </trkpt>
      <trkpt lat="46.12726" lon="6.2663">
        <ele>507</ele>
        <time>2024-07-23T18:54:06Z</time>
      </trkpt>
      <trkpt lat="46.12817" lon="6.26664">
        <ele>506</ele>
        <time>2024-07-23T18:54:23Z</time>
      </trkpt>
      <trkpt lat="46.12838" lon="6.26666">
        <ele>506</ele>
        <time>2024-07-23T18:54:27Z</time>
      </trkpt>
      <trkpt lat="46.1287" lon="6.26662">
        <ele>503</ele>
        <time>2024-07-23T18:54:33Z</time>
      </trkpt>
      <trkpt lat="46.12916" lon="6.26664">
        <ele>498</ele>
        <time>2024-07-23T18:54:41Z</time>
      </trkpt>
      <trkpt lat="46.12961" lon="6.26672">
        <ele>495</ele>
        <time>2024-07-23T18:54:49Z</time>
      </trkpt>
      <trkpt lat="46.12999" lon="6.26693">
        <ele>491</ele>
        <time>2024-07-23T18:54:56Z</time>
      </trkpt>
      <trkpt lat="46.13043" lon="6.26724">
        <ele>490</ele>
        <time>2024-07-23T18:55:05Z</time>
      </trkpt>
      <trkpt lat="46.13076" lon="6.26757">
        <ele>490</ele>
        <time>2024-07-23T18:55:12Z</time>
      </trkpt>
      <trkpt lat="46.13115" lon="6.26775">
        <ele>489</ele>
        <time>2024-07-23T18:55:19Z</time>
      </trkpt>
      <trkpt lat="46.13226" lon="6.26771">
        <ele>487</ele>
        <time>2024-07-23T18:55:39Z</time>
      </trkpt>
      <trkpt lat="46.13296" lon="6.26797">
        <ele>485</ele>
        <time>2024-07-23T18:55:52Z</time>
      </trkpt>
      <trkpt lat="46.13297" lon="6.26805">
        <ele>484</ele>
        <time>2024-07-23T18:55:53Z</time>
      </trkpt>
      <trkpt lat="46.13301" lon="6.26811">
        <ele>484</ele>
        <time>2024-07-23T18:55:54Z</time>
      </trkpt>
      <trkpt lat="46.1326" lon="6.26882">
        <ele>485</ele>
        <time>2024-07-23T18:56:05Z</time>
      </trkpt>
      <trkpt lat="46.13193" lon="6.26979">
        <ele>485</ele>
        <time>2024-07-23T18:56:22Z</time>
      </trkpt>
      <trkpt lat="46.13174" lon="6.26998">
        <ele>486</ele>
        <time>2024-07-23T18:56:26Z</time>
      </trkpt>
      <trkpt lat="46.13126" lon="6.27031">
        <ele>485</ele>
        <time>2024-07-23T18:56:36Z</time>
      </trkpt>
      <trkpt lat="46.13068" lon="6.27078">
        <ele>485</ele>
        <time>2024-07-23T18:56:48Z</time>
      </trkpt>
      <trkpt lat="46.12936" lon="6.27246">
        <ele>487</ele>
        <time>2024-07-23T18:57:19Z</time>
      </trkpt>
      <trkpt lat="46.12882" lon="6.2731">
        <ele>488</ele>
        <time>2024-07-23T18:57:31Z</time>
      </trkpt>
      <trkpt lat="46.12838" lon="6.27375">
        <ele>489</ele>
        <time>2024-07-23T18:57:43Z</time>
      </trkpt>
      <trkpt lat="46.12821" lon="6.27434">
        <ele>488</ele>
        <time>2024-07-23T18:57:50Z</time>
      </trkpt>
      <trkpt lat="46.12809" lon="6.27456">
        <ele>488</ele>
        <time>2024-07-23T18:57:54Z</time>
      </trkpt>
      <trkpt lat="46.12766" lon="6.27486">
        <ele>489</ele>
        <time>2024-07-23T18:58:02Z</time>
      </trkpt>
      <trkpt lat="46.12693" lon="6.27504">
        <ele>491</ele>
        <time>2024-07-23T18:58:16Z</time>
      </trkpt>
      <trkpt lat="46.12644" lon="6.27546">
        <ele>490</ele>
        <time>2024-07-23T18:58:26Z</time>
      </trkpt>
      <trkpt lat="46.12614" lon="6.2758">
        <ele>490</ele>
        <time>2024-07-23T18:58:33Z</time>
      </trkpt>
      <trkpt lat="46.12596" lon="6.27624">
        <ele>490</ele>
        <time>2024-07-23T18:58:39Z</time>
      </trkpt>
      <trkpt lat="46.12586" lon="6.277">
        <ele>489</ele>
        <time>2024-07-23T18:58:48Z</time>
      </trkpt>
      <trkpt lat="46.12546" lon="6.27742">
        <ele>489</ele>
        <time>2024-07-23T18:58:57Z</time>
      </trkpt>
      <trkpt lat="46.12524" lon="6.27758">
        <ele>489</ele>
        <time>2024-07-23T18:59:02Z</time>
      </trkpt>
      <trkpt lat="46.12502" lon="6.27767">
        <ele>489</ele>
        <time>2024-07-23T18:59:06Z</time>
      </trkpt>
      <trkpt lat="46.12472" lon="6.27768">
        <ele>490</ele>
        <time>2024-07-23T18:59:11Z</time>
      </trkpt>
      <trkpt lat="46.12308" lon="6.27756">
        <ele>495</ele>
        <time>2024-07-23T18:59:40Z</time>
      </trkpt>
      <trkpt lat="46.12278" lon="6.27777">
        <ele>496</ele>
        <time>2024-07-23T18:59:46Z</time>
      </trkpt>
      <trkpt lat="46.12259" lon="6.27782">
        <ele>496</ele>
        <time>2024-07-23T18:59:50Z</time>
      </trkpt>
      <trkpt lat="46.12186" lon="6.27781">
        <ele>500</ele>
        <time>2024-07-23T19:00:03Z</time>
      </trkpt>
      <trkpt lat="46.12162" lon="6.27786">
        <ele>501</ele>
        <time>2024-07-23T19:00:07Z</time>
      </trkpt>
      <trkpt lat="46.12096" lon="6.27783">
        <ele>504</ele>
        <time>2024-07-23T19:00:19Z</time>
      </trkpt>
      <trkpt lat="46.12061" lon="6.27804">
        <ele>505</ele>
        <time>2024-07-23T19:00:25Z</time>
      </trkpt>
      <trkpt lat="46.12025" lon="6.27817">
        <ele>507</ele>
        <time>2024-07-23T19:00:32Z</time>
      </trkpt>
      <trkpt lat="46.12" lon="6.2782">
        <ele>508</ele>
        <time>2024-07-23T19:00:36Z</time>
      </trkpt>
      <trkpt lat="46.11968" lon="6.27816">
        <ele>508</ele>
        <time>2024-07-23T19:00:42Z</time>
      </trkpt>
      <trkpt lat="46.11933" lon="6.27807">
        <ele>509</ele>
        <time>2024-07-23T19:00:48Z</time>
      </trkpt>
      <trkpt lat="46.11925" lon="6.27807">
        <ele>509</ele>
        <time>2024-07-23T19:00:50Z</time>
      </trkpt>
      <trkpt lat="46.11874" lon="6.27829">
        <ele>510</ele>
        <time>2024-07-23T19:00:59Z</time>
      </trkpt>
      <trkpt lat="46.11858" lon="6.27834">
        <ele>510</ele>
        <time>2024-07-23T19:01:02Z</time>
      </trkpt>
      <trkpt lat="46.11841" lon="6.27836">
        <ele>510</ele>
        <time>2024-07-23T19:01:05Z</time>
      </trkpt>
      <trkpt lat="46.11828" lon="6.27834">
        <ele>510</ele>
        <time>2024-07-23T19:01:08Z</time>
      </trkpt>
      <trkpt lat="46.11818" lon="6.27829">
        <ele>511</ele>
        <time>2024-07-23T19:01:09Z</time>
      </trkpt>
      <trkpt lat="46.11812" lon="6.2782">
        <ele>511</ele>
        <time>2024-07-23T19:01:11Z</time>
      </trkpt>
      <trkpt lat="46.118" lon="6.27763">
        <ele>513</ele>
        <time>2024-07-23T19:01:18Z</time>
      </trkpt>
      <trkpt lat="46.11794" lon="6.27749">
        <ele>513</ele>
        <time>2024-07-23T19:01:20Z</time>
      </trkpt>
      <trkpt lat="46.11787" lon="6.27747">
        <ele>513</ele>
        <time>2024-07-23T19:01:22Z</time>
      </trkpt>
      <trkpt lat="46.11738" lon="6.27774">
        <ele>514</ele>
        <time>2024-07-23T19:01:31Z</time>
      </trkpt>
      <trkpt lat="46.1169" lon="6.27793">
        <ele>515</ele>
        <time>2024-07-23T19:01:40Z</time>
      </trkpt>
      <trkpt lat="46.11677" lon="6.27793">
        <ele>515</ele>
        <time>2024-07-23T19:01:42Z</time>
      </trkpt>
      <trkpt lat="46.11617" lon="6.27768">
        <ele>517</ele>
        <time>2024-07-23T19:01:53Z</time>
      </trkpt>
      <trkpt lat="46.11524" lon="6.27744">
        <ele>523</ele>
        <time>2024-07-23T19:02:10Z</time>
      </trkpt>
      <trkpt lat="46.11451" lon="6.27751">
        <ele>526</ele>
        <time>2024-07-23T19:02:23Z</time>
      </trkpt>
      <trkpt lat="46.11387" lon="6.27797">
        <ele>527</ele>
        <time>2024-07-23T19:02:36Z</time>
      </trkpt>
      <trkpt lat="46.1133" lon="6.27861">
        <ele>527</ele>
        <time>2024-07-23T19:02:49Z</time>
      </trkpt>
      <trkpt lat="46.11316" lon="6.2787">
        <ele>527</ele>
        <time>2024-07-23T19:02:51Z</time>
      </trkpt>
      <trkpt lat="46.11283" lon="6.27885">
        <ele>527</ele>
        <time>2024-07-23T19:02:58Z</time>
      </trkpt>
      <trkpt lat="46.11243" lon="6.27925">
        <ele>528</ele>
        <time>2024-07-23T19:03:06Z</time>
      </trkpt>
      <trkpt lat="46.11199" lon="6.27958">
        <ele>530</ele>
        <time>2024-07-23T19:03:15Z</time>
      </trkpt>
      <trkpt lat="46.11203" lon="6.2797">
        <ele>529</ele>
        <time>2024-07-23T19:03:17Z</time>
      </trkpt>
      <trkpt lat="46.11209" lon="6.27976">
        <ele>529</ele>
        <time>2024-07-23T19:03:18Z</time>
      </trkpt>
      <trkpt lat="46.11237" lon="6.27978">
        <ele>527</ele>
        <time>2024-07-23T19:03:23Z</time>
      </trkpt>
      <trkpt lat="46.11242" lon="6.27983">
        <ele>526</ele>
        <time>2024-07-23T19:03:24Z</time>
      </trkpt>
      <trkpt lat="46.11246" lon="6.28014">
        <ele>524</ele>
        <time>2024-07-23T19:03:28Z</time>
      </trkpt>
      <trkpt lat="46.11176" lon="6.28021">
        <ele>528</ele>
        <time>2024-07-23T19:03:40Z</time>
      </trkpt>
      <trkpt lat="46.11168" lon="6.28025">
        <ele>528</ele>
        <time>2024-07-23T19:03:42Z</time>
      </trkpt>
      <trkpt lat="46.11158" lon="6.28035">
        <ele>527</ele>
        <time>2024-07-23T19:03:44Z</time>
      </trkpt>
      <trkpt lat="46.11151" lon="6.28051">
        <ele>525</ele>
        <time>2024-07-23T19:03:46Z</time>
      </trkpt>
      <trkpt lat="46.11148" lon="6.28068">
        <ele>523</ele>
        <time>2024-07-23T19:03:49Z</time>
      </trkpt>
      <trkpt lat="46.11142" lon="6.28131">
        <ele>523</ele>
        <time>2024-07-23T19:03:56Z</time>
      </trkpt>
      <trkpt lat="46.11144" lon="6.28142">
        <ele>523</ele>
        <time>2024-07-23T19:03:58Z</time>
      </trkpt>
      <trkpt lat="46.11153" lon="6.28157">
        <ele>523</ele>
        <time>2024-07-23T19:04:00Z</time>
      </trkpt>
      <trkpt lat="46.11166" lon="6.28169">
        <ele>522</ele>
        <time>2024-07-23T19:04:03Z</time>
      </trkpt>
      <trkpt lat="46.11208" lon="6.28193">
        <ele>522</ele>
        <time>2024-07-23T19:04:11Z</time>
      </trkpt>
      <trkpt lat="46.11221" lon="6.28209">
        <ele>522</ele>
        <time>2024-07-23T19:04:14Z</time>
      </trkpt>
      <trkpt lat="46.11231" lon="6.2823">
        <ele>522</ele>
        <time>2024-07-23T19:04:17Z</time>
      </trkpt>
      <trkpt lat="46.11237" lon="6.28254">
        <ele>523</ele>
        <time>2024-07-23T19:04:20Z</time>
      </trkpt>
      <trkpt lat="46.1124" lon="6.28284">
        <ele>523</ele>
        <time>2024-07-23T19:04:24Z</time>
      </trkpt>
      <trkpt lat="46.11239" lon="6.28307">
        <ele>523</ele>
        <time>2024-07-23T19:04:27Z</time>
      </trkpt>
      <trkpt lat="46.11224" lon="6.28452">
        <ele>520</ele>
        <time>2024-07-23T19:04:45Z</time>
      </trkpt>
      <trkpt lat="46.11228" lon="6.28479">
        <ele>519</ele>
        <time>2024-07-23T19:04:48Z</time>
      </trkpt>
      <trkpt lat="46.11255" lon="6.2859">
        <ele>516</ele>
        <time>2024-07-23T19:05:03Z</time>
      </trkpt>
      <trkpt lat="46.11271" lon="6.28667">
        <ele>512</ele>
        <time>2024-07-23T19:05:13Z</time>
      </trkpt>
      <trkpt lat="46.11307" lon="6.28867">
        <ele>502</ele>
        <time>2024-07-23T19:05:38Z</time>
      </trkpt>
      <trkpt lat="46.11316" lon="6.28931">
        <ele>498</ele>
        <time>2024-07-23T19:05:46Z</time>
      </trkpt>
      <trkpt lat="46.11315" lon="6.28953">
        <ele>497</ele>
        <time>2024-07-23T19:05:49Z</time>
      </trkpt>
      <trkpt lat="46.11323" lon="6.28979">
        <ele>496</ele>
        <time>2024-07-23T19:05:53Z</time>
      </trkpt>
      <trkpt lat="46.11364" lon="6.29291">
        <ele>489</ele>
        <time>2024-07-23T19:06:32Z</time>
      </trkpt>
      <trkpt lat="46.11364" lon="6.29317">
        <ele>489</ele>
        <time>2024-07-23T19:06:35Z</time>
      </trkpt>
      <trkpt lat="46.11357" lon="6.29331">
        <ele>489</ele>
        <time>2024-07-23T19:06:37Z</time>
      </trkpt>
      <trkpt lat="46.11339" lon="6.29355">
        <ele>488</ele>
        <time>2024-07-23T19:06:42Z</time>
      </trkpt>
      <trkpt lat="46.11338" lon="6.29384">
        <ele>487</ele>
        <time>2024-07-23T19:06:45Z</time>
      </trkpt>
      <trkpt lat="46.11343" lon="6.29442">
        <ele>485</ele>
        <time>2024-07-23T19:06:52Z</time>
      </trkpt>
      <trkpt lat="46.11271" lon="6.29533">
        <ele>486</ele>
        <time>2024-07-23T19:07:09Z</time>
      </trkpt>
      <trkpt lat="46.11185" lon="6.29682">
        <ele>482</ele>
        <time>2024-07-23T19:07:33Z</time>
      </trkpt>
      <trkpt lat="46.11146" lon="6.29729">
        <ele>482</ele>
        <time>2024-07-23T19:07:42Z</time>
      </trkpt>
      <trkpt lat="46.11111" lon="6.29763">
        <ele>483</ele>
        <time>2024-07-23T19:07:50Z</time>
      </trkpt>
      <trkpt lat="46.11077" lon="6.29783">
        <ele>483</ele>
        <time>2024-07-23T19:07:56Z</time>
      </trkpt>
      <trkpt lat="46.11041" lon="6.298">
        <ele>485</ele>
        <time>2024-07-23T19:08:03Z</time>
      </trkpt>
      <trkpt lat="46.10949" lon="6.29917">
        <ele>493</ele>
        <time>2024-07-23T19:08:25Z</time>
      </trkpt>
      <trkpt lat="46.10871" lon="6.2995">
        <ele>498</ele>
        <time>2024-07-23T19:08:39Z</time>
      </trkpt>
      <trkpt lat="46.10805" lon="6.29965">
        <ele>498</ele>
        <time>2024-07-23T19:08:51Z</time>
      </trkpt>
      <trkpt lat="46.1065" lon="6.30123">
        <ele>492</ele>
        <time>2024-07-23T19:09:25Z</time>
      </trkpt>
      <trkpt lat="46.10619" lon="6.30137">
        <ele>493</ele>
        <time>2024-07-23T19:09:31Z</time>
      </trkpt>
      <trkpt lat="46.10593" lon="6.30161">
        <ele>495</ele>
        <time>2024-07-23T19:09:36Z</time>
      </trkpt>
      <trkpt lat="46.10564" lon="6.30211">
        <ele>492</ele>
        <time>2024-07-23T19:09:44Z</time>
      </trkpt>
      <trkpt lat="46.1053" lon="6.30234">
        <ele>491</ele>
        <time>2024-07-23T19:09:51Z</time>
      </trkpt>
      <trkpt lat="46.10499" lon="6.30243">
        <ele>491</ele>
        <time>2024-07-23T19:09:57Z</time>
      </trkpt>
      <trkpt lat="46.10486" lon="6.30256">
        <ele>490</ele>
        <time>2024-07-23T19:09:59Z</time>
      </trkpt>
      <trkpt lat="46.10468" lon="6.30211">
        <ele>491</ele>
        <time>2024-07-23T19:10:06Z</time>
      </trkpt>
      <trkpt lat="46.10431" lon="6.30171">
        <ele>496</ele>
        <time>2024-07-23T19:10:14Z</time>
      </trkpt>
      <trkpt lat="46.10422" lon="6.30165">
        <ele>497</ele>
        <time>2024-07-23T19:10:16Z</time>
      </trkpt>
      <trkpt lat="46.10424" lon="6.30178">
        <ele>496</ele>
        <time>2024-07-23T19:10:18Z</time>
      </trkpt>
      <trkpt lat="46.10422" lon="6.30193">
        <ele>495</ele>
        <time>2024-07-23T19:10:19Z</time>
      </trkpt>
      <trkpt lat="46.10389" lon="6.30261">
        <ele>489</ele>
        <time>2024-07-23T19:10:30Z</time>
      </trkpt>
      <trkpt lat="46.10349" lon="6.30213">
        <ele>496</ele>
        <time>2024-07-23T19:10:39Z</time>
      </trkpt>
      <trkpt lat="46.10317" lon="6.30186">
        <ele>500</ele>
        <time>2024-07-23T19:10:46Z</time>
      </trkpt>
      <trkpt lat="46.10302" lon="6.30177">
        <ele>501</ele>
        <time>2024-07-23T19:10:48Z</time>
      </trkpt>
      <trkpt lat="46.10277" lon="6.30167">
        <ele>500</ele>
        <time>2024-07-23T19:10:53Z</time>
      </trkpt>
      <trkpt lat="46.10256" lon="6.30162">
        <ele>499</ele>
        <time>2024-07-23T19:10:57Z</time>
      </trkpt>
      <trkpt lat="46.10224" lon="6.3016">
        <ele>496</ele>
        <time>2024-07-23T19:11:03Z</time>
      </trkpt>
      <trkpt lat="46.10176" lon="6.30163">
        <ele>493</ele>
        <time>2024-07-23T19:11:11Z</time>
      </trkpt>
      <trkpt lat="46.10025" lon="6.30159">
        <ele>493</ele>
        <time>2024-07-23T19:11:38Z</time>
      </trkpt>
      <trkpt lat="46.10004" lon="6.30153">
        <ele>494</ele>
        <time>2024-07-23T19:11:42Z</time>
      </trkpt>
      <trkpt lat="46.09966" lon="6.30134">
        <ele>495</ele>
        <time>2024-07-23T19:11:49Z</time>
      </trkpt>
      <trkpt lat="46.09914" lon="6.30098">
        <ele>497</ele>
        <time>2024-07-23T19:11:59Z</time>
      </trkpt>
      <trkpt lat="46.09831" lon="6.30076">
        <ele>497</ele>
        <time>2024-07-23T19:12:14Z</time>
      </trkpt>
      <trkpt lat="46.09819" lon="6.30067">
        <ele>497</ele>
        <time>2024-07-23T19:12:17Z</time>
      </trkpt>
      <trkpt lat="46.09734" lon="6.29976">
        <ele>498</ele>
        <time>2024-07-23T19:12:35Z</time>
      </trkpt>
      <trkpt lat="46.09696" lon="6.2995">
        <ele>500</ele>
        <time>2024-07-23T19:12:43Z</time>
      </trkpt>
      <trkpt lat="46.09655" lon="6.2993">
        <ele>502</ele>
        <time>2024-07-23T19:12:51Z</time>
      </trkpt>
      <trkpt lat="46.09633" lon="6.29926">
        <ele>502</ele>
        <time>2024-07-23T19:12:55Z</time>
      </trkpt>
      <trkpt lat="46.09613" lon="6.29926">
        <ele>501</ele>
        <time>2024-07-23T19:12:58Z</time>
      </trkpt>
      <trkpt lat="46.09388" lon="6.29978">
        <ele>505</ele>
        <time>2024-07-23T19:13:39Z</time>
      </trkpt>
      <trkpt lat="46.09343" lon="6.29925">
        <ele>508</ele>
        <time>2024-07-23T19:13:49Z</time>
      </trkpt>
      <trkpt lat="46.09317" lon="6.29976">
        <ele>508</ele>
        <time>2024-07-23T19:13:57Z</time>
      </trkpt>
      <trkpt lat="46.0931" lon="6.29983">
        <ele>508</ele>
        <time>2024-07-23T19:13:58Z</time>
      </trkpt>
      <trkpt lat="46.09294" lon="6.29992">
        <ele>508</ele>
        <time>2024-07-23T19:14:01Z</time>
      </trkpt>
      <trkpt lat="46.09276" lon="6.29988">
        <ele>509</ele>
        <time>2024-07-23T19:14:05Z</time>
      </trkpt>
      <trkpt lat="46.0927" lon="6.29978">
        <ele>509</ele>
        <time>2024-07-23T19:14:06Z</time>
      </trkpt>
      <trkpt lat="46.09236" lon="6.29941">
        <ele>510</ele>
        <time>2024-07-23T19:14:14Z</time>
      </trkpt>
      <trkpt lat="46.09184" lon="6.29878">
        <ele>512</ele>
        <time>2024-07-23T19:14:26Z</time>
      </trkpt>
      <trkpt lat="46.09077" lon="6.29726">
        <ele>520</ele>
        <time>2024-07-23T19:14:53Z</time>
      </trkpt>
      <trkpt lat="46.09014" lon="6.29653">
        <ele>526</ele>
        <time>2024-07-23T19:15:07Z</time>
      </trkpt>
      <trkpt lat="46.08988" lon="6.29601">
        <ele>529</ele>
        <time>2024-07-23T19:15:15Z</time>
      </trkpt>
      <trkpt lat="46.08961" lon="6.29491">
        <ele>538</ele>
        <time>2024-07-23T19:15:29Z</time>
      </trkpt>
      <trkpt lat="46.08962" lon="6.29466">
        <ele>540</ele>
        <time>2024-07-23T19:15:32Z</time>
      </trkpt>
      <trkpt lat="46.0897" lon="6.29444">
        <ele>541</ele>
        <time>2024-07-23T19:15:35Z</time>
      </trkpt>
      <trkpt lat="46.09008" lon="6.29387">
        <ele>544</ele>
        <time>2024-07-23T19:15:45Z</time>
      </trkpt>
      <trkpt lat="46.09026" lon="6.29351">
        <ele>545</ele>
        <time>2024-07-23T19:15:51Z</time>
      </trkpt>
      <trkpt lat="46.09063" lon="6.29239">
        <ele>548</ele>
        <time>2024-07-23T19:16:06Z</time>
      </trkpt>
      <trkpt lat="46.09075" lon="6.29183">
        <ele>552</ele>
        <time>2024-07-23T19:16:13Z</time>
      </trkpt>
      <trkpt lat="46.09075" lon="6.29126">
        <ele>553</ele>
        <time>2024-07-23T19:16:20Z</time>
      </trkpt>
      <trkpt lat="46.09068" lon="6.29033">
        <ele>553</ele>
        <time>2024-07-23T19:16:32Z</time>
      </trkpt>
      <trkpt lat="46.09062" lon="6.28895">
        <ele>557</ele>
        <time>2024-07-23T19:16:49Z</time>
      </trkpt>
      <trkpt lat="46.09047" lon="6.28807">
        <ele>561</ele>
        <time>2024-07-23T19:17:00Z</time>
      </trkpt>
      <trkpt lat="46.09047" lon="6.28788">
        <ele>561</ele>
        <time>2024-07-23T19:17:02Z</time>
      </trkpt>
      <trkpt lat="46.09051" lon="6.2877">
        <ele>561</ele>
        <time>2024-07-23T19:17:05Z</time>
      </trkpt>
      <trkpt lat="46.0905" lon="6.2874">
        <ele>562</ele>
        <time>2024-07-23T19:17:08Z</time>
      </trkpt>
      <trkpt lat="46.09056" lon="6.28725">
        <ele>562</ele>
        <time>2024-07-23T19:17:11Z</time>
      </trkpt>
      <trkpt lat="46.09055" lon="6.28708">
        <ele>563</ele>
        <time>2024-07-23T19:17:13Z</time>
      </trkpt>
      <trkpt lat="46.09046" lon="6.28692">
        <ele>564</ele>
        <time>2024-07-23T19:17:15Z</time>
      </trkpt>
      <trkpt lat="46.09037" lon="6.28687">
        <ele>565</ele>
        <time>2024-07-23T19:17:17Z</time>
      </trkpt>
      <trkpt lat="46.09027" lon="6.28668">
        <ele>566</ele>
        <time>2024-07-23T19:17:20Z</time>
      </trkpt>
      <trkpt lat="46.09024" lon="6.28667">
        <ele>566</ele>
        <time>2024-07-23T19:17:20Z</time>
      </trkpt>
      <trkpt lat="46.09026" lon="6.28653">
        <ele>567</ele>
        <time>2024-07-23T19:17:22Z</time>
      </trkpt>
      <trkpt lat="46.09048" lon="6.28574">
        <ele>568</ele>
        <time>2024-07-23T19:17:33Z</time>
      </trkpt>
      <trkpt lat="46.09082" lon="6.28499">
        <ele>569</ele>
        <time>2024-07-23T19:17:44Z</time>
      </trkpt>
      <trkpt lat="46.09068" lon="6.28455">
        <ele>572</ele>
        <time>2024-07-23T19:17:50Z</time>
      </trkpt>
      <trkpt lat="46.09065" lon="6.28432">
        <ele>573</ele>
        <time>2024-07-23T19:17:53Z</time>
      </trkpt>
      <trkpt lat="46.09051" lon="6.28409">
        <ele>576</ele>
        <time>2024-07-23T19:17:56Z</time>
      </trkpt>
      <trkpt lat="46.09031" lon="6.28402">
        <ele>578</ele>
        <time>2024-07-23T19:18:00Z</time>
      </trkpt>
      <trkpt lat="46.09013" lon="6.28403">
        <ele>579</ele>
        <time>2024-07-23T19:18:03Z</time>
      </trkpt>
      <trkpt lat="46.08996" lon="6.28411">
        <ele>581</ele>
        <time>2024-07-23T19:18:06Z</time>
      </trkpt>
      <trkpt lat="46.0894" lon="6.28423">
        <ele>585</ele>
        <time>2024-07-23T19:18:17Z</time>
      </trkpt>
      <trkpt lat="46.08934" lon="6.28426">
        <ele>586</ele>
        <time>2024-07-23T19:18:18Z</time>
      </trkpt>
      <trkpt lat="46.08918" lon="6.2845">
        <ele>587</ele>
        <time>2024-07-23T19:18:22Z</time>
      </trkpt>
      <trkpt lat="46.08899" lon="6.28469">
        <ele>587</ele>
        <time>2024-07-23T19:18:26Z</time>
      </trkpt>
      <trkpt lat="46.08824" lon="6.28498">
        <ele>586</ele>
        <time>2024-07-23T19:18:40Z</time>
      </trkpt>
      <trkpt lat="46.0875" lon="6.28533">
        <ele>588</ele>
        <time>2024-07-23T19:18:54Z</time>
      </trkpt>
      <trkpt lat="46.087" lon="6.28548">
        <ele>589</ele>
        <time>2024-07-23T19:19:03Z</time>
      </trkpt>
      <trkpt lat="46.08642" lon="6.2854">
        <ele>590</ele>
        <time>2024-07-23T19:19:13Z</time>
      </trkpt>
      <trkpt lat="46.08595" lon="6.2853">
        <ele>591</ele>
        <time>2024-07-23T19:19:21Z</time>
      </trkpt>
      <trkpt lat="46.0856" lon="6.28527">
        <ele>591</ele>
        <time>2024-07-23T19:19:28Z</time>
      </trkpt>
      <trkpt lat="46.08536" lon="6.28529">
        <ele>591</ele>
        <time>2024-07-23T19:19:32Z</time>
      </trkpt>
      <trkpt lat="46.08501" lon="6.2855">
        <ele>591</ele>
        <time>2024-07-23T19:19:39Z</time>
      </trkpt>
      <trkpt lat="46.08473" lon="6.28557">
        <ele>591</ele>
        <time>2024-07-23T19:19:44Z</time>
      </trkpt>
      <trkpt lat="46.08449" lon="6.28554">
        <ele>592</ele>
        <time>2024-07-23T19:19:48Z</time>
      </trkpt>
      <trkpt lat="46.08434" lon="6.28539">
        <ele>593</ele>
        <time>2024-07-23T19:19:51Z</time>
      </trkpt>
      <trkpt lat="46.08403" lon="6.2848">
        <ele>597</ele>
        <time>2024-07-23T19:20:00Z</time>
      </trkpt>
      <trkpt lat="46.08391" lon="6.28467">
        <ele>599</ele>
        <time>2024-07-23T19:20:03Z</time>
      </trkpt>
      <trkpt lat="46.08379" lon="6.28472">
        <ele>599</ele>
        <time>2024-07-23T19:20:05Z</time>
      </trkpt>
      <trkpt lat="46.08353" lon="6.28498">
        <ele>599</ele>
        <time>2024-07-23T19:20:11Z</time>
      </trkpt>
      <trkpt lat="46.08298" lon="6.28538">
        <ele>598</ele>
        <time>2024-07-23T19:20:22Z</time>
      </trkpt>
      <trkpt lat="46.08243" lon="6.2855">
        <ele>599</ele>
        <time>2024-07-23T19:20:32Z</time>
      </trkpt>
      <trkpt lat="46.0818" lon="6.28537">
        <ele>603</ele>
        <time>2024-07-23T19:20:43Z</time>
      </trkpt>
      <trkpt lat="46.08107" lon="6.28553">
        <ele>606</ele>
        <time>2024-07-23T19:20:56Z</time>
      </trkpt>
      <trkpt lat="46.08066" lon="6.28565">
        <ele>607</ele>
        <time>2024-07-23T19:21:04Z</time>
      </trkpt>
      <trkpt lat="46.08027" lon="6.28593">
        <ele>607</ele>
        <time>2024-07-23T19:21:11Z</time>
      </trkpt>
      <trkpt lat="46.08" lon="6.28604">
        <ele>608</ele>
        <time>2024-07-23T19:21:16Z</time>
      </trkpt>
      <trkpt lat="46.0797" lon="6.28604">
        <ele>609</ele>
        <time>2024-07-23T19:21:22Z</time>
      </trkpt>
      <trkpt lat="46.07921" lon="6.28597">
        <ele>612</ele>
        <time>2024-07-23T19:21:31Z</time>
      </trkpt>
      <trkpt lat="46.07897" lon="6.28599">
        <ele>614</ele>
        <time>2024-07-23T19:21:35Z</time>
      </trkpt>
      <trkpt lat="46.07882" lon="6.28609">
        <ele>615</ele>
        <time>2024-07-23T19:21:38Z</time>
      </trkpt>
      <trkpt lat="46.07833" lon="6.28662">
        <ele>614</ele>
        <time>2024-07-23T19:21:49Z</time>
      </trkpt>
      <trkpt lat="46.07826" lon="6.28674">
        <ele>614</ele>
        <time>2024-07-23T19:21:51Z</time>
      </trkpt>
      <trkpt lat="46.07812" lon="6.2871">
        <ele>612</ele>
        <time>2024-07-23T19:21:56Z</time>
      </trkpt>
      <trkpt lat="46.07793" lon="6.28736">
        <ele>612</ele>
        <time>2024-07-23T19:22:00Z</time>
      </trkpt>
      <trkpt lat="46.07765" lon="6.28764">
        <ele>611</ele>
        <time>2024-07-23T19:22:06Z</time>
      </trkpt>
      <trkpt lat="46.07695" lon="6.28822">
        <ele>612</ele>
        <time>2024-07-23T19:22:21Z</time>
      </trkpt>
      <trkpt lat="46.07667" lon="6.28851">
        <ele>613</ele>
        <time>2024-07-23T19:22:27Z</time>
      </trkpt>
      <trkpt lat="46.07638" lon="6.2889">
        <ele>613</ele>
        <time>2024-07-23T19:22:34Z</time>
      </trkpt>
      <trkpt lat="46.07614" lon="6.28916">
        <ele>614</ele>
        <time>2024-07-23T19:22:39Z</time>
      </trkpt>
      <trkpt lat="46.07574" lon="6.28948">
        <ele>615</ele>
        <time>2024-07-23T19:22:47Z</time>
      </trkpt>
      <trkpt lat="46.07559" lon="6.28963">
        <ele>615</ele>
        <time>2024-07-23T19:22:51Z</time>
      </trkpt>
      <trkpt lat="46.07561" lon="6.28971">
        <ele>615</ele>
        <time>2024-07-23T19:22:52Z</time>
      </trkpt>
      <trkpt lat="46.07559" lon="6.28985">
        <ele>614</ele>
        <time>2024-07-23T19:22:54Z</time>
      </trkpt>
      <trkpt lat="46.07551" lon="6.29001">
        <ele>614</ele>
        <time>2024-07-23T19:22:56Z</time>
      </trkpt>
      <trkpt lat="46.07521" lon="6.29035">
        <ele>615</ele>
        <time>2024-07-23T19:23:03Z</time>
      </trkpt>
      <trkpt lat="46.07509" lon="6.29042">
        <ele>615</ele>
        <time>2024-07-23T19:23:05Z</time>
      </trkpt>
      <trkpt lat="46.07488" lon="6.29047">
        <ele>616</ele>
        <time>2024-07-23T19:23:09Z</time>
      </trkpt>
      <trkpt lat="46.07464" lon="6.29046">
        <ele>617</ele>
        <time>2024-07-23T19:23:13Z</time>
      </trkpt>
      <trkpt lat="46.07418" lon="6.29039">
        <ele>620</ele>
        <time>2024-07-23T19:23:21Z</time>
      </trkpt>
      <trkpt lat="46.07407" lon="6.29033">
        <ele>620</ele>
        <time>2024-07-23T19:23:23Z</time>
      </trkpt>
      <trkpt lat="46.07405" lon="6.29029">
        <ele>620</ele>
        <time>2024-07-23T19:23:24Z</time>
      </trkpt>
      <trkpt lat="46.07398" lon="6.29034">
        <ele>620</ele>
        <time>2024-07-23T19:23:25Z</time>
      </trkpt>
      <trkpt lat="46.07372" lon="6.29032">
        <ele>620</ele>
        <time>2024-07-23T19:23:30Z</time>
      </trkpt>
      <trkpt lat="46.07355" lon="6.29021">
        <ele>621</ele>
        <time>2024-07-23T19:23:33Z</time>
      </trkpt>
      <trkpt lat="46.07347" lon="6.29013">
        <ele>621</ele>
        <time>2024-07-23T19:23:35Z</time>
      </trkpt>
      <trkpt lat="46.07319" lon="6.28973">
        <ele>623</ele>
        <time>2024-07-23T19:23:42Z</time>
      </trkpt>
      <trkpt lat="46.07314" lon="6.2897">
        <ele>623</ele>
        <time>2024-07-23T19:23:43Z</time>
      </trkpt>
      <trkpt lat="46.07296" lon="6.28974">
        <ele>623</ele>
        <time>2024-07-23T19:23:46Z</time>
      </trkpt>
      <trkpt lat="46.07284" lon="6.28991">
        <ele>623</ele>
        <time>2024-07-23T19:23:49Z</time>
      </trkpt>
      <trkpt lat="46.07267" lon="6.29081">
        <ele>624</ele>
        <time>2024-07-23T19:24:01Z</time>
      </trkpt>
      <trkpt lat="46.07259" lon="6.29104">
        <ele>624</ele>
        <time>2024-07-23T19:24:04Z</time>
      </trkpt>
      <trkpt lat="46.07246" lon="6.29123">
        <ele>624</ele>
        <time>2024-07-23T19:24:07Z</time>
      </trkpt>
      <trkpt lat="46.07231" lon="6.29138">
        <ele>624</ele>
        <time>2024-07-23T19:24:11Z</time>
      </trkpt>
      <trkpt lat="46.07181" lon="6.29171">
        <ele>624</ele>
        <time>2024-07-23T19:24:20Z</time>
      </trkpt>
      <trkpt lat="46.07142" lon="6.29193">
        <ele>625</ele>
        <time>2024-07-23T19:24:28Z</time>
      </trkpt>
      <trkpt lat="46.07054" lon="6.2923">
        <ele>626</ele>
        <time>2024-07-23T19:24:44Z</time>
      </trkpt>
      <trkpt lat="46.07029" lon="6.29257">
        <ele>627</ele>
        <time>2024-07-23T19:24:50Z</time>
      </trkpt>
      <trkpt lat="46.06998" lon="6.29281">
        <ele>627</ele>
        <time>2024-07-23T19:24:56Z</time>
      </trkpt>
      <trkpt lat="46.06917" lon="6.29323">
        <ele>627</ele>
        <time>2024-07-23T19:25:11Z</time>
      </trkpt>
      <trkpt lat="46.06901" lon="6.29335">
        <ele>627</ele>
        <time>2024-07-23T19:25:14Z</time>
      </trkpt>
      <trkpt lat="46.06877" lon="6.29365">
        <ele>626</ele>
        <time>2024-07-23T19:25:20Z</time>
      </trkpt>
      <trkpt lat="46.06777" lon="6.29441">
        <ele>625</ele>
        <time>2024-07-23T19:25:40Z</time>
      </trkpt>
      <trkpt lat="46.06782" lon="6.29445">
        <ele>625</ele>
        <time>2024-07-23T19:25:41Z</time>
      </trkpt>
      <trkpt lat="46.06788" lon="6.29458">
        <ele>624</ele>
        <time>2024-07-23T19:25:43Z</time>
      </trkpt>
      <trkpt lat="46.06788" lon="6.29494">
        <ele>623</ele>
        <time>2024-07-23T19:25:48Z</time>
      </trkpt>
      <trkpt lat="46.06751" lon="6.29588">
        <ele>618</ele>
        <time>2024-07-23T19:26:01Z</time>
      </trkpt>
      <trkpt lat="46.06745" lon="6.29612">
        <ele>616</ele>
        <time>2024-07-23T19:26:04Z</time>
      </trkpt>
      <trkpt lat="46.06747" lon="6.29635">
        <ele>614</ele>
        <time>2024-07-23T19:26:07Z</time>
      </trkpt>
      <trkpt lat="46.06799" lon="6.29757">
        <ele>607</ele>
        <time>2024-07-23T19:26:25Z</time>
      </trkpt>
      <trkpt lat="46.06815" lon="6.29789">
        <ele>604</ele>
        <time>2024-07-23T19:26:30Z</time>
      </trkpt>
      <trkpt lat="46.06841" lon="6.29807">
        <ele>602</ele>
        <time>2024-07-23T19:26:35Z</time>
      </trkpt>
      <trkpt lat="46.06897" lon="6.29831">
        <ele>601</ele>
        <time>2024-07-23T19:26:45Z</time>
      </trkpt>
      <trkpt lat="46.06982" lon="6.2992">
        <ele>596</ele>
        <time>2024-07-23T19:27:04Z</time>
      </trkpt>
      <trkpt lat="46.07008" lon="6.29944">
        <ele>594</ele>
        <time>2024-07-23T19:27:09Z</time>
      </trkpt>
      <trkpt lat="46.06863" lon="6.30238">
        <ele>584</ele>
        <time>2024-07-23T19:27:54Z</time>
      </trkpt>
      <trkpt lat="46.06858" lon="6.30367">
        <ele>581</ele>
        <time>2024-07-23T19:28:10Z</time>
      </trkpt>
      <trkpt lat="46.0684" lon="6.3043">
        <ele>579</ele>
        <time>2024-07-23T19:28:18Z</time>
      </trkpt>
      <trkpt lat="46.06783" lon="6.30592">
        <ele>573</ele>
        <time>2024-07-23T19:28:41Z</time>
      </trkpt>
      <trkpt lat="46.06782" lon="6.30654">
        <ele>569</ele>
        <time>2024-07-23T19:28:48Z</time>
      </trkpt>
      <trkpt lat="46.06785" lon="6.30706">
        <ele>567</ele>
        <time>2024-07-23T19:28:55Z</time>
      </trkpt>
      <trkpt lat="46.0681" lon="6.30831">
        <ele>563</ele>
        <time>2024-07-23T19:29:11Z</time>
      </trkpt>
      <trkpt lat="46.06808" lon="6.30924">
        <ele>560</ele>
        <time>2024-07-23T19:29:22Z</time>
      </trkpt>
      <trkpt lat="46.06757" lon="6.31103">
        <ele>554</ele>
        <time>2024-07-23T19:29:46Z</time>
      </trkpt>
    </trkseg>
  </trk>
</gpx>